     2              OBSERVATION DATA    GPS                 RINEX VERSION / TYPE
teqc 2000Feb29 simon 20000628 01:37:19UTC                   PGM / RUN BY / DATE
                                                            COMMENT
L2: 1 -> 1; 150 -> 5; 250 -> 9                              COMMENT
L2: 1 -> 1; 150 -> 5; 250 -> 9                              COMMENT
L2: 1 -> 1; 150 -> 5; 250 -> 9                              COMMENT
L2: 1 -> 1; 150 -> 5; 250 -> 9                              COMMENT
L2: 1 -> 1; 150 -> 5; 250 -> 9                              COMMENT
Original Marker Name: GS21                                  COMMENT
Campaign Name: China Lake April 2000                        COMMENT
4-Character Station Name: GS21                              COMMENT
6-Character Antenna Code: ASHGD3                            COMMENT
Vertical Measurement Point: TGP                             COMMENT
Vertical Offset to Rinex Ref. Point: 0.0640                 COMMENT
Radial Measurement Point: RRP                               COMMENT
Radial Offset to Rinex Ref. Point: 0.0000                   COMMENT
Antenna Height from Field Measurement: 0.2110 m             COMMENT
Additional Antenna Identification Info.:                    COMMENT
The Whopper (700718AB)                                      COMMENT
Original XYZ: -2415088.9500 -4592344.1800 3697995.5500      COMMENT
New XYZ position is based on association with SCEC monument COMMENT
E1F4E6D8+0011. Position of that monument is believed to be  COMMENT
valid to within 1 m horizontally; vertical accuracy         COMMENT
should be no worse than 3-times this value.                 COMMENT
                                                            COMMENT
Revised Rinex header created by UCSD GPS archive for        COMMENT
GSAC on 14-Sep-2001 (2001:257) 20:21:34 GMT                 COMMENT
For assistance contact dagnew@ucsd.edu                      COMMENT
or anderson@python.ucsd.edu                                 COMMENT
                                                            COMMENT
GO21                                                        MARKER NAME
gs21                                                        MARKER NUMBER
JDT US NATIONAL IMAGERY MAPPING AGENCY                      OBSERVER / AGENCY
489 ASHTECH Z-XII3 4J30                                     REC # / TYPE / VERS
110 ASHTECH GEODETIC III                                    ANT # / TYPE
 -2410766.6622 -4582613.3469  3712691.8208                  APPROX POSITION XYZ
        0.1470        0.0000        0.0000                  ANTENNA: DELTA H/E/N
     1     1     0                                          WAVELENGTH FACT L1/2
     7    L1    L2    C1    P1    P2    S1    S2            # / TYPES OF OBSERV
    30                                                      INTERVAL
  2000     5    15    14    20    0.000000                  TIME OF FIRST OBS
  2000     5    15    21    29   60.000000                  TIME OF LAST OBS
                                                            END OF HEADER
 00  5 15 14 20  0.0000000  0  5G 2G26G 4G 7G 9
     -1360.67249      -869.94447  18183048.701    18183049.431    18183057.012
       238.000         206.000
     33545.57859     21461.23156  19868145.261    19868146.861    19868155.783
       228.000         186.000
    -44257.67553                  19316014.570
       223.000          74.000
     -7136.46249     -4559.35647  17306592.097    17306593.102    17306600.353
       232.000         205.000
    -39801.66553                  19651521.399
       223.000          74.000
 00  5 15 14 20 59.9990000  0  5G 2G26G 4G 7G 9
     -3003.72949     -2150.30447  21180661.372    21180661.383    21180668.989
       238.000         206.000
     98255.96849     71884.74646  22878384.724    22878385.458    22878394.525
       228.000         185.000
   -322424.25959   -235211.01856  22267307.610    22267308.565    22267318.786
       223.000         178.000
    -17200.51149    -12401.48547  20302602.436    20302602.584    20302609.854
       233.000         205.000
   -302219.27559   -211390.65456  22607543.175    22607543.630    22607552.060
       224.000         183.000
 00  5 15 14 21 29.9990000  0  6G 2G26G 4G 7G 8G 9
     -3724.44549     -2711.93147  21180524.335    21180524.276    21180531.874
       238.000         206.000
    130938.05349     97351.22646  22884604.064    22884604.700    22884613.739
       228.000         185.000
   -444852.54949   -330609.55646  22244010.346    22244011.070    22244021.358
       223.000         178.000
    -21898.98849    -16062.63347  20301708.486    20301708.523    20301715.786
       233.000         205.000
    193403.98149    133668.95846  23150867.565    23150867.965    23150879.709
       215.000         166.000
   -412137.42549   -297041.12446  22586626.597    22586626.980    22586635.276
       225.000         183.000
 00  5 15 14 21 59.9990000  0  6G 2G26G 4G 7G 8G 9
     -4443.78049     -3272.47447  21180387.552    21180387.428    21180395.020
       238.000         206.000
    163763.79049    122929.65046  22890850.785    22890851.340    22890860.357
       229.000         186.000
   -567261.92849   -425993.35146  22220716.598    22220717.231    22220727.603
       223.000         179.000
    -26443.24449    -19603.60347  20300843.894    20300843.811    20300851.062
       234.000         205.000
    276574.30349    198476.82446  23166694.447    23166694.554    23166706.557
       214.000         165.000
   -521982.76349   -382634.84046  22565723.744    22565724.072    22565732.383
       225.000         182.000
 00  5 15 14 22 29.9990000  0  6G 2G26G 4G 7G 8G 9
     -5116.21249     -3796.48647  21180259.670    21180259.500    21180267.084
       239.000         206.000
    196775.74049    148653.16246  22897132.896    22897133.356    22897142.392
       229.000         184.000
   -689604.12449   -521324.80246  22197435.660    22197436.221    22197446.649
       224.000         179.000
    -30789.76949    -22990.50447  20300016.871    20300016.728    20300023.975
       233.000         205.000
    359774.20049    263307.74446  23182526.951    23182526.962    23182538.930
       213.000         164.000
   -631707.74849   -468134.77846  22544843.829    22544844.085    22544852.492
       225.000         184.000
 00  5 15 14 22 59.9990000  0  6G 2G26G 4G 7G 8G 9
     -5711.15749     -4260.11847  21180146.562    21180146.315    21180153.887
       239.000         206.000
    230000.98449    174542.88846  22903455.598    22903455.984    22903465.009
       230.000         185.000
   -811846.11149   -616578.17346  22174173.760    22174174.325    22174184.706
       226.000         180.000
    -34910.06249    -26201.12347  20299232.890    20299232.672    20299239.905
       234.000         205.000
    443031.60849    328183.46646  23198370.450    23198370.432    23198382.335
       213.000         164.000
   -741280.23749   -553515.88746  22523992.931    22523993.165    22524001.605
       227.000         185.000
 00  5 15 14 23 29.9990000  0  7G27G 2G26G 4G 7G 8G 9
    158785.88145                  24469499.596
       208.000         147.000
     -6174.22749     -4620.98747  21180058.536    21180058.247    21180065.792
       239.000         206.000
    263490.84049    200638.80846  22909828.662    22909828.986    22909837.965
       229.000         186.000
   -933930.73549   -711708.90546  22150941.886    22150942.361    22150952.718
       226.000         180.000
    -38751.68449    -29194.59247  20298501.918    20298501.655    20298508.901
       234.000         206.000
    526398.11449    393144.22245  23214234.680    23214234.638    23214246.475
       211.000         162.000
   -850643.62849   -638734.07346  22503181.821    22503182.023    22503190.464
       227.000         186.000
 00  5 15 14 23 59.9990000  0  7G27G 2G26G 4G 7G 8G 9
    311782.58249    229033.88445  24486655.280    24486657.485    24486671.215
       205.000         147.000
     -6489.01949     -4866.32247  21179998.704    21179998.370    21180005.910
       239.000         206.000
    297258.05649    226950.83046  22916254.398    22916254.716    22916263.671
       227.000         183.000
  -1055839.51949   -806702.63646  22127743.434    22127743.924    22127754.184
       227.000         181.000
    -42300.59149    -31959.97347  20297826.622    20297826.333    20297833.595
       234.000         206.000
    609887.53649    458200.73045  23230122.345    23230122.168    23230134.080
       211.000         162.000
   -959779.86849   -723775.24646  22482413.874    22482414.071    22482422.553
       226.000         186.000
 00  5 15 14 24 29.9990000  0  7G27G 2G26G 4G 7G 8G 9
    401985.13849    299321.15045  24503820.595    24503821.920    24503836.852
       201.000         145.000
     -6645.00049     -4987.91247  21179969.091    21179968.721    21179976.258
       239.000         206.000
    331309.98249    253484.70746  22922734.335    22922734.634    22922743.556
       229.000         184.000
  -1177559.23349   -901549.03646  22104580.909    22104581.412    22104591.626
       227.000         182.000
    -45548.24949    -34490.61847  20297208.635    20297208.338    20297215.597
       234.000         206.000
    693507.54149    523358.99446  23246034.770    23246034.598    23246046.532
       211.000         163.000
  -1068676.66649   -808629.84346  22461691.498    22461691.699    22461700.205
       228.000         187.000
 00  5 15 14 24 59.9990000  0  7G27G 2G26G 4G 7G 8G 9
    492231.07049    369642.16545  24520994.201    24520995.323    24521010.849
       205.000         146.000
     -6646.20549     -4988.89847  21179968.942    21179968.536    21179976.066
       239.000         206.000
    365639.22949    280234.69946  22929267.149    22929267.365    22929276.245
       227.000         183.000
  -1299091.51149   -996249.38246  22081454.101    22081454.590    22081464.744
       227.000         182.000
    -48500.91149    -36791.39447  20296646.807    20296646.488    20296653.747
       234.000         206.000
    777251.39549    588613.75946  23261970.877    23261970.606    23261982.562
       212.000         163.000
  -1177336.58549   -893299.85847  22441014.225    22441014.401    22441022.910
       229.000         188.000
 00  5 15 14 25 29.9990000  0  7G27G 2G26G 4G 7G 8G 9
    582530.00949    440004.50445  24538178.010    24538178.995    24538194.153
       206.000         145.000
     -6480.17949     -4859.57047  21180000.596    21180000.182    21180007.707
       239.000         206.000
    400254.91049    307207.85446  22935854.364    22935854.569    22935863.479
       227.000         183.000
  -1420421.30249  -1090791.94446  22058365.826    22058366.293    22058376.373
       228.000         183.000
    -51148.25649    -38854.26047  20296143.070    20296142.733    20296150.000
       234.000         206.000
    861128.98149    653972.73545  23277932.443    23277932.095    23277944.030
       212.000         162.000
  -1285745.55949   -977774.32947  22420384.747    22420384.883    22420393.396
       229.000         188.000
 00  5 15 14 25 59.9990000  0  7G27G 2G26G 4G 7G 8G 9
    672877.44349    510404.66445  24555371.025    24555371.824    24555386.715
       206.000         145.000
     -6148.67849     -4601.31547  21180063.757    21180063.325    21180070.836
       239.000         206.000
    435152.04049    334400.32446  22942495.156    22942495.359    22942504.271
       227.000         182.000
  -1541547.73749  -1185176.06646  22035316.204    22035316.681    22035326.696
       229.000         184.000
    -53494.05449    -40682.15847  20295696.720    20295696.359    20295703.622
       234.000         206.000
    945135.80949    719432.40945  23293918.633    23293918.210    23293930.085
       211.000         162.000
  -1393903.24649  -1062052.99647  22399803.042    22399803.168    22399811.669
       230.000         189.000
 00  5 15 14 26 29.9990000  0  7G27G 2G26G 4G 7G 8G 9
    763269.19049    580839.35545  24572572.341    24572572.991    24572587.853
       207.000         143.000
     -5653.35349     -4215.39547  21180158.088    21180157.630    21180165.159
       239.000         206.000
    470325.74049    361808.31146  22949188.599    22949188.759    22949197.659
       227.000         180.000
  -1662469.94049  -1279401.03146  22012305.435    22012305.920    22012315.895
       228.000         184.000
    -55541.89049    -42277.87147  20295307.053    20295306.679    20295313.943
       234.000         206.000
   1029267.66849    784989.51745  23309928.529    23309928.062    23309939.972
       210.000         160.000
  -1501809.17449  -1146135.47747  22379269.278    22379269.370    22379277.820
       231.000         189.000
 00  5 15 14 26 59.9990000  0  6G 2G26G 4G 7G 8G 9
     -4984.00849     -3693.87647  21180285.518    21180285.058    21180292.595
       239.000         206.000
    505782.83249    389437.13146  22955935.985    22955936.092    22955944.975
       225.000         180.000
  -1783175.32349  -1373457.06046  21989335.906    21989336.396    21989346.390
       228.000         184.000
    -57283.91049    -43635.28947  20294975.585    20294975.204    20294982.457
       234.000         206.000
   1113532.08449    850649.90845  23325963.633    23325963.162    23325975.076
       209.000         159.000
  -1609451.71949  -1230012.72847  22358785.577    22358785.671    22358794.125
       231.000         190.000
 00  5 15 14 27 29.9990000  0  6G 2G26G 4G 7G 8G 9
     -4134.17049     -3031.71547  21180447.304    21180446.834    21180454.374
       239.000         206.000
    541526.34949    417289.12046  22962737.757    22962737.882    22962746.851
       225.000         180.000
  -1903654.96049  -1467337.18446  21966409.318    21966409.843    21966419.831
       228.000         185.000
    -58715.81949    -44751.06247  20294703.145    20294702.765    20294709.987
       234.000         206.000
   1197932.63249    916416.39145  23342024.618    23342024.166    23342036.094
       209.000         159.000
  -1716822.53349  -1313678.22347  22338353.579    22338353.686    22338362.173
       232.000         190.000
 00  5 15 14 27 59.9990000  0  6G 2G26G 4G 7G 8G 9
     -3124.82849     -2245.26947  21180639.430    21180638.953    21180646.499
       239.000         206.000
    577531.94249    445345.33646  22969589.441    22969589.578    22969598.584
       225.000         179.000
  -2023927.26849  -1561055.76746  21943522.161    21943522.726    21943532.737
       229.000         186.000
    -59860.68949    -45643.17547  20294485.315    20294484.918    20294492.130
       234.000         206.000
   1282445.55449    982270.42145  23358106.946    23358106.537    23358118.501
       209.000         159.000
  -1823940.73049  -1397146.89447  22317969.670    22317969.758    22317978.243
       232.000         190.000
 00  5 15 14 28 29.9990000  0  6G 2G26G 4G 7G 8G 9
     -1945.81649     -1326.60747  21180863.842    21180863.365    21180870.926
       239.000         207.000
    613806.28749    473610.97446  22976492.247    22976492.427    22976501.446
       224.000         178.000
  -2143979.46649  -1654602.81446  21920676.865    21920677.492    21920687.519
       229.000         186.000
    -60710.43349    -46305.30647  20294323.605    20294323.216    20294330.438
       234.000         206.000
   1367078.65349   1048218.10845  23374212.204    23374211.763    23374223.800
       208.000         159.000
  -1930794.50149  -1480409.50547  22297636.016    22297636.142    22297644.594
       232.000         189.000
 00  5 15 14 28 59.9990000  0  6G 2G26G 4G 7G 8G 9
      -596.99449      -275.63247  21181120.571    21181120.097    21181127.676
       239.000         206.000
    650346.41849    502083.70646  22983445.656    22983445.857    22983454.897
       224.000         178.000
  -2263808.97449  -1747976.36546  21897873.987    21897874.636    21897884.648
       230.000         186.000
    -61266.99149    -46738.99547  20294217.691    20294217.319    20294224.534
       234.000         205.000
   1451829.04949   1114257.19245  23390339.898    23390339.391    23390351.436
       211.000         159.000
  -2037381.86549  -1563464.54447  22277353.117    22277353.243    22277361.651
       233.000         190.000
 00  5 15 14 29 29.9990000  0  6G 2G26G 4G 7G 8G 9
       931.94049       915.69247  21181411.564    21181411.076    21181418.690
       239.000         206.000
    687158.99749    530768.72546  22990450.992    22990451.137    22990460.162
       225.000         179.000
  -2383403.06749  -1841166.46246  21875115.965    21875116.580    21875126.557
       229.000         185.000
    -61522.38049    -46937.99947  20294169.108    20294168.733    20294175.958
       234.000         206.000
   1536704.39849   1180393.64145  23406491.340    23406490.792    23406502.867
       210.000         160.000
  -2143690.81749  -1646302.63847  22257123.159    22257123.306    22257131.689
       232.000         188.000
 00  5 15 14 29 59.9980000  0  6G 2G26G 4G 7G 8G 9
      2643.60849      2249.40247  21181737.328    21181736.864    21181744.467
       239.000         206.000
    724242.10549    559664.55646  22997507.822    22997507.940    22997516.903
       224.000         177.000
  -2502752.78449  -1934166.14346  21852404.380    21852405.029    21852414.960
       229.000         185.000
    -61476.22449    -46902.03447  20294177.856    20294177.519    20294184.735
       234.000         206.000
   1621701.82649   1246625.20845  23422666.081    23422665.391    23422677.541
       212.000         158.000
  -2249713.59449  -1728917.73047  22236947.591    22236947.800    22236956.150
       232.000         188.000
 00  5 15 14 30 29.9980000  0  6G 2G26G 4G 7G 8G 9
      4525.99749      3716.14647  21182095.612    21182095.138    21182102.739
       239.000         206.000
    761582.79049    588761.09746  23004613.478    23004613.662    23004622.665
       223.000         176.000
  -2621875.50849  -2026988.94846  21829736.015    21829736.683    21829746.554
       230.000         186.000
    -61142.44049    -46641.94547  20294241.393    20294241.056    20294248.270
       235.000         205.000
   1706812.16949   1312944.76245  23438862.248    23438861.463    23438873.653
       211.000         157.000
  -2355467.32649  -1811323.19047  22216823.296    22216823.517    22216831.796
       234.000         189.000
 00  5 15 14 30 59.9980000  0  6G 2G26G 4G 7G 8G 9
      6580.29249      5316.84447  21182486.562    21182486.105    21182493.708
       239.000         205.000
    799177.48749    618055.56646  23011767.565    23011767.747    23011776.779
       225.000         177.000
  -2740763.69149  -2119628.99346  21807112.344    21807112.991    21807122.754
       230.000         186.000
    -60522.39549    -46158.78847  20294359.402    20294359.060    20294366.264
       234.000         205.000
   1792030.92849   1379348.80045  23455078.944    23455078.165    23455090.369
       210.000         157.000
  -2460945.34349  -1893513.80647  22196751.507    22196751.714    22196759.926
       233.000         188.000
 00  5 15 14 31 29.9980000  0  6G 2G26G 4G 7G 8G 9
      8798.51949      7045.27947  21182908.762    21182908.286    21182915.875
       240.000         206.000
    837014.80149    647539.08046  23018968.043    23018968.106    23018977.057
       225.000         178.000
  -2859422.94349  -2212090.64846  21784532.209    21784532.817    21784542.519
       230.000         185.000
    -59626.13749    -45460.40347  20294529.934    20294529.612    20294536.818
       234.000         205.000
   1877347.54649   1445829.09145  23471314.185    23471313.531    23471325.725
       211.000         156.000
  -2566154.18349  -1975494.68247  22176730.917    22176731.122    22176739.249
       234.000         188.000
 00  5 15 14 31 59.9980000  0  6G 2G26G 4G 7G 8G 9
     11185.94049      8905.56247  21183363.130    21183362.652    21183370.247
       239.000         206.000
    875096.57049    677213.09046  23026214.949    23026214.952    23026223.885
       225.000         177.000
  -2977845.33049  -2304367.73846  21761997.058    21761997.724    21762007.380
       229.000         185.000
    -58450.31649    -44544.17847  20294753.703    20294753.379    20294760.574
       235.000         206.000
   1962764.40549   1512387.48245  23487568.574    23487567.975    23487580.167
       211.000         156.000
  -2671086.70149  -2057260.23747  22156762.921    22156763.116    22156771.168
       234.000         189.000
 00  5 15 14 32 29.9980000  0  6G 2G26G 4G 7G 8G 9
     13744.14649     10898.92347  21183849.994    21183849.524    21183857.124
       239.000         206.000
    913421.12949    707076.25746  23033508.088    23033508.006    23033516.921
       224.000         178.000
  -3096026.77049  -2396457.07946  21739507.820    21739508.490    21739518.088
       228.000         184.000
    -56995.70449    -43410.71447  20295030.542    20295030.199    20295037.388
       235.000         206.000
   2048280.60049   1579023.29445  23503841.932    23503841.316    23503853.527
       212.000         158.000
  -2775739.79149  -2138808.06147  22136848.072    22136848.269    22136856.272
       233.000         189.000
 00  5 15 14 32 59.9980000  0  6G 2G26G 4G 7G 8G 9
     16456.28349     13012.23047  21184366.158    21184365.688    21184373.288
       239.000         206.000
    951968.02149    737112.68746  23040843.436    23040843.346    23040852.275
       224.000         178.000
  -3213981.87149  -2488370.06246  21717061.615    21717062.296    21717071.879
       229.000         185.000
    -55281.43849    -42074.91847  20295356.800    20295356.440    20295363.613
       235.000         206.000
   2133876.29149   1645721.04645  23520130.460    23520129.770    23520142.021
       213.000         157.000
  -2880128.42749  -2220149.81647  22116983.574    22116983.752    22116991.704
       233.000         188.000
 00  5 15 14 33 29.9980000  0  6G 2G26G 4G 7G 8G 9
     19337.79849     15257.52247  21184914.547    21184914.078    21184921.671
       239.000         206.000
    990749.09349    767331.61746  23048223.245    23048223.208    23048232.224
       223.000         178.000
  -3331692.53749  -2580092.57346  21694661.926    21694662.627    21694672.193
       229.000         185.000
    -53294.24849    -40526.45647  20295734.966    20295734.600    20295741.777
       236.000         206.000
   2219564.06949   1712490.54745  23536436.470    23536435.748    23536448.055
       212.000         158.000
  -2984235.27249  -2301271.98947  22097172.669    22097172.832    22097180.777
       232.000         189.000
 00  5 15 14 33 59.9980000  0  6G 2G26G 4G 7G 8G 9
     22341.98649     17598.40847  21185486.257    21185485.813    21185493.422
       239.000         206.000
   1029714.47949    797694.15946  23055638.115    23055638.132    23055647.195
       222.000         176.000
  -3449202.94449  -2671659.04046  21672300.362    21672301.068    21672310.636
       229.000         185.000
    -51082.77449    -38803.22947  20296155.784    20296155.420    20296162.621
       235.000         206.000
   2305294.68149   1779293.40545  23552750.548    23552749.917    23552762.172
       212.000         158.000
  -3088105.12149  -2382209.48347  22077406.849    22077407.017    22077414.969
       233.000         190.000
 00  5 15 14 34 29.9980000  0  6G 2G26G 4G 7G 8G 9
     25513.79349     20069.90547  21186089.887    21186089.430    21186097.056
       238.000         206.000
   1068905.47449    828232.48346  23063095.935    23063096.010    23063105.105
       223.000         177.000
  -3566465.97249  -2763032.75246  21649985.839    21649986.583    21649996.161
       229.000         185.000
    -48604.53849    -36872.13947  20296627.371    20296627.028    20296634.216
       236.000         206.000
   2391110.43649   1846162.61745  23569080.863    23569080.278    23569092.583
       211.000         158.000
  -3191691.62949  -2462926.21047  22057694.947    22057695.135    22057703.082
       232.000         191.000
 00  5 15 14 34 59.9980000  0  6G 2G26G 4G 7G 8G 9
     28837.93949     22660.11447  21186722.450    21186722.022    21186729.687
       238.000         206.000
   1108303.60949    858932.21146  23070593.291    23070593.364    23070602.419
       224.000         179.000
  -3683494.22849  -2854223.52646  21627716.066    21627716.780    21627726.351
       229.000         186.000
    -45876.73049    -34746.57447  20297146.487    20297146.126    20297153.317
       236.000         206.000
   2476993.08149   1913083.93545  23585424.020    23585423.395    23585435.727
       212.000         157.000
  -3295007.98249  -2543432.40547  22038034.416    22038034.631    22038042.649
       232.000         190.000
 00  5 15 14 35 29.9980000  0  6G 2G26G 4G 7G 8G 9
     32320.24449     25373.56547  21187385.134    21187384.712    21187392.418
       238.000         206.000
   1147910.97549    889794.99546  23078130.494    23078130.576    23078139.566
       223.000         178.000
  -3800279.68149  -2945225.09946  21605492.519    21605493.209    21605502.738
       229.000         186.000
    -42896.11649    -32424.01847  20297713.689    20297713.330    20297720.506
       236.000         206.000
   2562945.74149   1980059.80645  23601780.510    23601779.843    23601792.205
       211.000         156.000
  -3398046.96949  -2623722.47547  22018426.765    22018426.955    22018434.992
       233.000         192.000
 00  5 15 14 35 59.9980000  0  6G 2G26G 4G 7G 8G 9
     35967.36449     28215.44747  21188079.179    21188078.775    21188086.519
       238.000         206.000
   1187730.64549    920823.20346  23085708.002    23085708.092    23085717.152
       221.000         176.000
  -3916813.30449  -3036030.44646  21583316.906    21583317.540    21583327.049
       230.000         186.000
    -39658.04049    -29900.84247  20298329.895    20298329.544    20298336.695
       236.000         207.000
   2648972.23449   2047093.20945  23618151.010    23618150.326    23618162.693
       211.000         156.000
  -3500800.30249  -2703789.96447  21998873.461    21998873.633    21998881.705
       232.000         192.000
 00  5 15 14 36 29.9980000  0  6G 2G26G 4G 7G 8G 9
     39768.70949     31177.50047  21188802.573    21188802.175    21188809.956
       238.000         206.000
   1227748.57049    952005.89246  23093323.210    23093323.309    23093332.429
       222.000         177.000
  -4033102.86949  -3126645.61847  21561187.740    21561188.343    21561197.810
       232.000         188.000
    -36175.24249    -27186.98047  20298992.655    20298992.313    20298999.447
       236.000         207.000
   2735059.34249   2114173.82945  23634533.005    23634532.369    23634544.740
       210.000         155.000
  -3603276.40649  -2783641.42847  21979372.844    21979373.033    21979381.163
       233.000         193.000
 00  5 15 14 36 59.9980000  0  6G 2G26G 4G 7G 8G 9
     43744.74849     34275.68247  21189559.259    21189558.836    21189566.618
       237.000         206.000
   1267982.07349    983356.58146  23100979.461    23100979.586    23100988.721
       223.000         177.000
  -4149125.74449  -3217052.97746  21539109.282    21539109.894    21539119.304
       229.000         187.000
    -32429.35149    -24268.11247  20299705.478    20299705.142    20299712.278
       235.000         207.000
   2821224.81149   2181315.51445  23650929.900    23650929.277    23650941.648
       211.000         153.000
  -3705453.18649  -2863259.65347  21959929.223    21959929.419    21959937.571
       233.000         193.000
 00  5 15 14 37 29.9980000  0  6G 2G26G 4G 7G 8G 9
     47870.99149     37490.90847  21190344.515    21190344.084    21190351.870
       237.000         206.000
   1308403.13049   1014853.39146  23108671.246    23108671.461    23108680.707
       221.000         176.000
  -4264903.71749  -3307269.51247  21517077.464    21517078.056    21517087.405
       232.000         188.000
    -28447.09349    -21165.06247  20300463.266    20300462.925    20300470.102
       236.000         207.000
   2907441.52349   2248497.11945  23667336.571    23667335.976    23667348.378
       210.000         152.000
  -3807353.37749  -2942662.35547  21940538.217    21940538.440    21940546.606
       233.000         194.000
 00  5 15 14 37 59.9980000  0  6G 2G26G 4G 7G 8G 9
     52156.35149     40830.12547  21191160.043    21191159.607    21191167.403
       238.000         205.000
   1349017.02449   1046500.45846  23116399.950    23116400.102    23116409.365
       223.000         176.000
  -4380425.68449  -3397286.56147  21495094.335    21495094.928    21495104.219
       231.000         188.000
    -24221.91849    -17872.73147  20301267.314    20301266.965    20301274.144
       236.000         207.000
   2993715.22949   2315723.11745  23683754.198    23683753.532    23683765.908
       211.000         151.000
  -3908966.35349  -3021841.25347  21921201.882    21921202.115    21921210.278
       233.000         194.000
 00  5 15 14 38 29.9980000  0  6G 2G26G 4G 7G 8G 9
     56599.52449     44292.31147  21192005.591    21192005.160    21192012.969
       238.000         205.000
   1389818.99749   1078294.08946  23124164.425    23124164.569    23124173.760
       222.000         175.000
  -4495690.50149  -3487103.22547  21473160.101    21473160.715    21473169.976
       231.000         188.000
    -19757.06349    -14393.62447  20302116.981    20302116.620    20302123.799
       237.000         207.000
   3080042.19849   2382990.62345  23700181.984    23700181.230    23700193.595
       209.000         151.000
  -4010291.52949  -3100795.88847  21901920.319    21901920.558    21901928.715
       233.000         194.000
 00  5 15 14 38 59.9980000  0  6G 2G26G 4G 7G 8G 9
     61187.76049     47867.52947  21192878.712    21192878.297    21192886.116
       238.000         204.000
   1430792.67949   1110221.51846  23131961.585    23131961.701    23131970.860
       223.000         175.000
  -4610708.80749  -3576727.80547  21451272.770    21451273.393    21451282.650
       232.000         188.000
    -15067.82949    -10739.68547  20303009.349    20303008.977    20303016.143
       237.000         207.000
   3166406.69349   2450287.35145  23716616.807    23716616.036    23716628.500
       209.000         150.000
  -4111340.07149  -3179534.96747  21882691.447    21882691.660    21882699.780
       233.000         194.000
 00  5 15 14 39 29.9980000  0  6G 2G26G 4G 7G 8G 9
     65949.54349     51577.98047  21193784.867    21193784.469    21193792.298
       238.000         205.000
   1471963.27849   1142302.38146  23139796.209    23139796.298    23139805.486
       221.000         174.000
  -4725449.16549  -3666135.80447  21429438.324    21429438.943    21429448.207
       231.000         188.000
    -10127.75149     -6890.28547  20303949.416    20303949.056    20303956.226
       237.000         207.000
   3252834.53449   2517633.45245  23733063.709    23733062.901    23733075.448
       208.000         150.000
  -4212081.43749  -3258034.68947  21863521.028    21863521.203    21863529.292
       234.000         195.000
 00  5 15 14 39 59.9980000  0  7G 2G26G 4G24G 7G 8G 9
     70885.98949     55424.53247  21194724.314    21194723.889    21194731.706
       239.000         205.000
   1513328.33149   1174534.76446  23147667.739    23147667.858    23147677.105
       222.000         175.000
  -4839908.34949  -3755324.71447  21407657.340    21407658.012    21407667.280
       231.000         188.000
   -391502.62659   -281205.31055  23894270.587    23894272.158    23894285.890
       206.000         145.000
     -4937.81549     -2846.19047  20304937.012    20304936.667    20304943.844
       236.000         206.000
   3339324.33049   2585027.81545  23749522.421    23749521.657    23749534.204
       211.000         151.000
  -4312513.21049  -3336293.16447  21844409.455    21844409.652    21844417.716
       232.000         194.000
 00  5 15 14 40 29.9980000  0  7G 2G26G 4G24G 7G 8G 9
     75965.04349     59382.21147  21195690.871    21195690.461    21195698.250
       238.000         205.000
   1554852.31349   1206891.00646  23155569.574    23155569.683    23155578.979
       222.000         175.000
  -4954116.00349  -3844317.61247  21385924.261    21385924.957    21385934.232
       230.000         188.000
   -527244.12649   -386977.72745  23868439.948    23868439.207    23868455.908
       208.000         144.000
       467.61149      1365.82247  20305965.607    20305965.276    20305972.476
       236.000         207.000
   3425840.89049   2652443.01645  23765986.234    23765985.427    23765998.082
       209.000         150.000
  -4412665.60449  -3414333.94347  21825351.022    21825351.243    21825359.304
       233.000         195.000
 00  5 15 14 40 59.9980000  0  7G 2G26G 4G24G 7G 8G 9
     81215.36449     63473.33747  21196690.049    21196689.618    21196697.389
       238.000         205.000
   1596560.35549   1239390.66546  23163506.405    23163506.514    23163515.912
       221.000         175.000
  -5068041.00749  -3933090.27447  21364245.036    21364245.701    21364254.972
       232.000         189.000
   -663048.83159   -492799.42155  23842597.145    23842597.190    23842612.606
       209.000         144.000
      6115.10249      5766.44947  20307040.314    20307039.974    20307047.181
       237.000         207.000
   3512410.39649   2719899.48845  23782460.151    23782459.239    23782472.001
       208.000         149.000
  -4512508.23249  -3492133.34347  21806351.601    21806351.798    21806359.837
       234.000         195.000
 00  5 15 14 41 29.9980000  0  7G 2G26G 4G24G 7G 8G 9
     86648.31049     67706.77147  21197723.937    21197723.508    21197731.282
       238.000         204.000
   1638460.21949   1272039.79646  23171479.784    23171479.897    23171489.325
       222.000         174.000
  -5181669.70649  -4021632.05047  21342622.239    21342622.851    21342632.103
       232.000         190.000
   -798903.68749   -598660.20345  23816744.826    23816744.994    23816760.368
       208.000         143.000
     12013.59049     10362.65747  20308162.773    20308162.437    20308169.626
       236.000         207.000
   3599041.28749   2787403.79445  23798945.666    23798944.735    23798957.557
       208.000         148.000
  -4612028.19649  -3569681.32147  21787413.569    21787413.753    21787421.767
       234.000         195.000
 00  5 15 14 41 59.9980000  0  7G 2G26G 4G24G 7G 8G 9
     92264.11549     72082.68947  21198792.674    21198792.214    21198799.949
       239.000         204.000
   1680548.66249   1304835.85446  23179489.016    23179489.136    23179498.607
       221.000         174.000
  -5294999.41549  -4109940.84347  21321056.282    21321056.889    21321066.128
       233.000         191.000
   -934806.28249   -704558.23345  23790883.408    23790883.614    23790898.834
       209.000         146.000
     18161.25649     15153.02847  20309332.672    20309332.321    20309339.510
       237.000         208.000
   3685730.96449   2854953.87345  23815442.406    23815441.396    23815454.345
       209.000         146.000
  -4711223.12349  -3646976.02847  21768537.394    21768537.561    21768545.520
       234.000         195.000
 00  5 15 14 42 29.9980000  0  7G 2G26G 4G24G 7G 8G 9
     98056.21349     76595.98247  21199894.866    21199894.468    21199902.176
       238.000         203.000
   1722815.57949   1337770.98946  23187532.282    23187532.380    23187541.834
       222.000         175.000
  -5408034.44849  -4198020.01547  21299546.386    21299546.987    21299556.221
       232.000         191.000
  -1070760.93349   -810496.75545  23765011.962    23765012.276    23765027.387
       208.000         145.000
     24549.27549     20130.68647  20310548.303    20310547.939    20310555.112
       237.000         207.000
   3772470.18249   2922542.56145  23831948.492    23831947.587    23831960.588
       206.000         146.000
  -4810098.01949  -3724021.35047  21749722.106    21749722.263    21749730.194
       235.000         196.000
 00  5 15 14 42 59.9980000  0  7G 2G26G 4G24G 7G 8G 9
    104004.38949     81230.89147  21201026.794    21201026.405    21201034.081
       238.000         203.000
   1765237.42749   1370826.84846  23195605.036    23195605.105    23195614.544
       221.000         175.000
  -5520792.45849  -4285883.32347  21278089.270    21278089.827    21278099.029
       232.000         192.000
  -1206786.09849   -916490.25445  23739127.205    23739127.435    23739142.550
       212.000         145.000
     31155.38949     25278.28747  20311805.441    20311805.069    20311812.216
       238.000         207.000
   3859236.07649   2990152.02945  23848459.666    23848458.813    23848471.945
       207.000         144.000
  -4908671.34249  -3800831.68147  21730964.188    21730964.355    21730972.253
       235.000         197.000
 00  5 15 14 43 29.9980000  0  7G 2G26G 4G24G 7G 8G 9
    110127.34349     86001.99447  21202191.979    21202191.580    21202199.272
       238.000         203.000
   1807829.12449   1404015.05746  23203710.023    23203710.127    23203719.604
       221.000         173.000
  -5633252.60749  -4373514.53247  21256688.814    21256689.337    21256698.539
       233.000         192.000
  -1342860.81049  -1022522.39345  23713233.034    23713233.329    23713248.302
       211.000         148.000
     37995.81849     30608.47547  20313107.150    20313106.778    20313113.905
       237.000         207.000
   3946044.37549   3057794.52445  23864979.073    23864978.174    23864991.339
       206.000         144.000
  -5006922.87749  -3877391.27047  21712267.511    21712267.675    21712275.553
       235.000         196.000
 00  5 15 14 43 59.9980000  0  7G 2G26G 4G24G 7G 8G 9
    116435.65749     90917.53347  21203392.433    21203392.028    21203399.729
       237.000         202.000
   1850597.96549   1437341.30946  23211848.658    23211848.832    23211858.398
       220.000         172.000
  -5745401.92549  -4460903.52447  21235347.462    21235348.014    21235357.195
       234.000         193.000
  -1478972.44649  -1128583.25045  23687331.788    23687332.019    23687346.993
       212.000         149.000
     45079.15749     36127.94647  20314455.093    20314454.722    20314461.822
       238.000         207.000
   4032902.93149   3125476.19545  23881508.072    23881507.065    23881520.337
       205.000         140.000
  -5104840.29749  -3953690.50447  21693634.370    21693634.566    21693642.420
       235.000         197.000
 00  5 15 14 44 29.9980000  0  7G 2G26G 4G24G 7G 8G 9
    122911.84749     95963.88947  21204624.770    21204624.412    21204632.121
       237.000         202.000
   1893522.87849   1470789.17546  23220016.974    23220017.195    23220026.887
       220.000         171.000
  -5857255.42849  -4548062.01347  21214062.456    21214062.974    21214072.128
       234.000         193.000
  -1615136.43849  -1234684.93945  23661420.563    23661420.777    23661435.775
       212.000         148.000
     52385.71949     41821.35147  20315845.544    20315845.157    20315852.222
       238.000         208.000
   4119791.65149   3193181.37245  23898042.688    23898041.657    23898054.958
       203.000         141.000
  -5202439.49049  -4029741.76947  21675061.793    21675062.014    21675069.879
       236.000         198.000
 00  5 15 14 44 59.9980000  0  7G 2G26G 4G24G 7G 8G 9
    129582.23149    101161.56847  21205894.108    21205893.768    21205901.476
       237.000         202.000
   1936626.52549   1504376.30446  23228219.470    23228219.655    23228229.390
       221.000         173.000
  -5968784.65549  -4634967.81947  21192839.060    21192839.627    21192848.763
       233.000         193.000
  -1751324.46349  -1340805.34545  23635504.633    23635504.993    23635520.021
       213.000         150.000
     59939.54449     47707.43447  20317283.010    20317282.635    20317289.697
       238.000         208.000
   4206734.12649   3260928.39545  23914587.442    23914586.469    23914599.890
       202.000         143.000
  -5299692.30249  -4105523.12747  21656555.201    21656555.403    21656563.256
       236.000         199.000
 00  5 15 14 45 29.9980000  0  7G 2G26G 4G24G 7G 8G 9
    136442.67549    106507.34847  21207199.624    21207199.281    21207207.007
       236.000         202.000
   1979901.38849   1538096.85946  23236454.521    23236454.697    23236464.486
       220.000         173.000
  -6079991.24949  -4721622.21147  21171677.028    21171677.663    21171686.766
       234.000         193.000
  -1887538.40249  -1446945.94745  23609583.853    23609584.239    23609599.350
       214.000         151.000
     67734.39249     53781.32447  20318766.361    20318765.968    20318773.039
       238.000         208.000
   4293723.24049   3328711.75645  23931141.062    23931140.118    23931153.685
       202.000         143.000
  -5396601.02149  -4181036.36147  21638114.064    21638114.275    21638122.109
       236.000         199.000
 00  5 15 14 45 59.9980000  0  7G 2G26G 4G24G 7G 8G 9
    143496.45949    112003.77747  21208541.901    21208541.567    21208549.345
       237.000         202.000
   2023347.19949   1571950.61846  23244722.059    23244722.222    23244732.130
       219.000         171.000
  -6190869.63249  -4808020.86547  21150577.523    21150578.170    21150587.218
       234.000         194.000
  -2023772.96849  -1553102.63745  23583659.157    23583659.562    23583674.681
       212.000         150.000
     75771.33349     60043.85747  20320295.711    20320295.364    20320302.444
       238.000         208.000
   4380759.68649   3396532.01445  23947703.718    23947702.856    23947716.368
       202.000         141.000
  -5493160.73649  -4256277.64547  21619739.328    21619739.551    21619747.363
       237.000         199.000
 00  5 15 14 46 29.9980000  0  7G 2G26G 4G24G 7G 8G 9
    150733.50549    117643.00947  21209919.056    21209918.737    21209926.567
       236.000         203.000
   2066950.29349   1605926.91046  23253019.635    23253019.727    23253029.660
       220.000         171.000
  -6301427.46849  -4894169.72647  21129538.999    21129539.664    21129548.680
       234.000         194.000
  -2160036.23449  -1659281.66845  23557728.917    23557729.389    23557744.454
       214.000         149.000
     84037.91549     66485.33047  20321868.800    20321868.444    20321875.548
       238.000         207.000
   4467830.51349   3464379.05545  23964272.951    23964272.007    23964285.809
       198.000         137.000
  -5589380.09249  -4331253.72447  21601429.411    21601429.595    21601437.381
       237.000         199.000
 00  5 15 14 46 59.9980000  0  7G 2G26G 4G24G 7G 8G 9
    158149.20249    123421.43947  21211330.260    21211329.910    21211337.782
       237.000         203.000
   2110702.72849   1640019.58846  23261345.540    23261345.623    23261355.536
       218.000         169.000
  -6411667.31349  -4980070.80347  21108560.966    21108561.649    21108570.643
       234.000         193.000
  -2296330.47549  -1765484.86045  23531792.971    23531793.406    23531808.396
       212.000         154.000
     92527.55449     73100.61147  20323484.346    20323483.996    20323491.089
       238.000         207.000
   4554928.41049   3532247.16345  23980847.298    23980846.451    23980860.328
       198.000         139.000
  -5685261.74349  -4405966.65047  21583183.706    21583183.902    21583191.668
       237.000         199.000
 00  5 15 14 47 29.9980000  0  7G 2G26G 4G24G 7G 8G 9
    165754.52849    129347.63547  21212777.532    21212777.197    21212785.087
       237.000         203.000
   2154611.85449   1674234.36446  23269701.177    23269701.323    23269711.287
       220.000         170.000
  -6521575.59049  -5065713.51847  21087646.089    21087646.764    21087655.683
       235.000         194.000
  -2432642.63849  -1871701.94545  23505853.540    23505853.971    23505868.921
       213.000         149.000
    101249.10349     79896.60947  20325144.028    20325143.667    20325150.760
       237.000         207.000
   4642061.83949   3600142.94345  23997428.545    23997427.708    23997441.568
       198.000         138.000
  -5780792.89949  -4480406.46547  21565004.732    21565004.917    21565012.663
       237.000         200.000
 00  5 15 14 47 59.9980000  0  7G 2G26G 4G24G 7G 8G 9
    173551.53749    135423.18547  21214261.296    21214260.943    21214268.855
       237.000         203.000
   2198676.34349   1708570.22546  23278086.487    23278086.590    23278096.574
       222.000         171.000
  -6631148.02249  -5151094.53547  21066795.094    21066795.768    21066804.670
       235.000         194.000
  -2568968.40449  -1977929.73445  23479911.591    23479911.929    23479926.738
       212.000         151.000
    110202.47649     86873.24547  20326847.803    20326847.443    20326854.551
       238.000         207.000
   4729229.88349   3668065.73245  24014016.550    24014015.490    24014029.512
       195.000         136.000
  -5875969.88649  -4554570.31347  21546893.136    21546893.321    21546901.047
       237.000         199.000
 00  5 15 14 48 29.9980000  0  7G 2G26G 4G24G 7G 8G 9
    181549.73549    141655.50447  21215783.326    21215782.960    21215790.911
       236.000         203.000
   2242902.06649   1743031.69946  23286502.531    23286502.595    23286512.535
       220.000         171.000
  -6740372.72949  -5236204.59847  21046010.216    21046010.913    21046019.811
       235.000         194.000
  -2705296.28249  -2084159.03545  23453969.109    23453969.421    23453984.230
       213.000         152.000
    119394.84949     94036.11547  20328597.093    20328596.717    20328603.813
       238.000         207.000
   4816439.40149   3736020.79445  24030612.277    24030611.071    24030625.267
       198.000         133.000
  -5970781.77149  -4628449.65447  21528850.959    21528851.185    21528858.910
       236.000         199.000
 00  5 15 14 48 59.9980000  0  7G 2G26G 4G24G 7G 8G 9
    189751.29249    148046.28347  21217344.065    21217343.709    21217351.669
       237.000         204.000
   2287287.62649   1777617.71946  23294948.937    23294948.983    23294958.903
       221.000         171.000
  -6849245.43449  -5321040.36547  21025292.349    21025293.053    21025301.951
       235.000         195.000
  -2841622.15349  -2190386.88645  23428027.100    23428027.450    23428041.977
       209.000         148.000
    128826.42749    101385.38047  20330391.862    20330391.503    20330398.591
       238.000         207.000
   4903689.79148   3804007.71444  24047215.986    24047214.587    24047228.828
       194.000         130.000
  -6065224.69949  -4702041.49947  21510879.041    21510879.269    21510886.961
       237.000         199.000
 00  5 15 14 49 29.9980000  0  7G 2G26G 4G24G 7G 8G 9
    198114.35049    154562.91047  21218935.553    21218935.195    21218943.183
       237.000         204.000
   2331787.59149   1812292.88946  23303417.232    23303417.217    23303427.098
       222.000         172.000
  -6957805.75649  -5405632.71947  21004633.938    21004634.646    21004643.544
       235.000         194.000
  -2977985.62349  -2296643.91845  23402077.737    23402078.193    23402092.653
       216.000         155.000
    138452.86049    108886.48747  20332223.718    20332223.356    20332230.464
       238.000         207.000
   4990936.21949   3871991.50545  24063818.912    24063817.316    24063831.648
       201.000         132.000
  -6159338.89549  -4775377.19247  21492969.676    21492969.897    21492977.570
       236.000         199.000
 00  5 15 14 49 59.9980000  0  7G 2G26G 4G24G 7G 8G 9
    206665.90849    161226.41147  21220562.916    21220562.537    21220570.548
       236.000         202.000
   2376425.53349   1847075.55746  23311911.724    23311911.685    23311921.515
       223.000         172.000
  -7066024.24649  -5489958.71947  20984040.631    20984041.291    20984050.165
       235.000         195.000
  -3114357.55349  -2402907.58645  23376126.880    23376127.433    23376141.759
       210.000         148.000
    148298.99949    116558.78747  20334097.407    20334097.038    20334104.125
       238.000         207.000
   5078203.18949   3939991.36445  24080425.587    24080424.033    24080438.312
       195.000         133.000
  -6253095.71349  -4848434.40647  21475128.296    21475128.532    21475136.200
       237.000         200.000
 00  5 15 14 50 29.9980000  0  7G 2G26G 4G24G 7G 8G 9
    215403.87349    168035.17247  21222225.737    21222225.351    21222233.374
       237.000         203.000
   2421195.98349   1881961.50846  23320431.400    23320431.351    23320441.184
       223.000         172.000
  -7173900.77149  -5574018.24447  20963512.387    20963513.023    20963521.838
       235.000         194.000
  -3250737.78449  -2509177.72845  23350174.451    23350174.975    23350189.267
       213.000         156.000
    158360.83449    124399.16247  20336012.136    20336011.760    20336018.846
       238.000         207.000
   5165485.79649   4008003.37045  24097035.072    24097033.637    24097048.045
       199.000         136.000
  -6346495.30549  -4921213.26347  21457354.931    21457355.150    21457362.823
       237.000         200.000
 00  5 15 14 50 59.9980000  0  7G 2G26G 4G24G 7G 8G 9
    224331.56549    174991.76947  21223924.683    21223924.289    21223932.296
       236.000         202.000
   2466098.39549   1916950.27946  23328976.194    23328976.146    23328985.932
       224.000         172.000
  -7281430.10449  -5657807.23147  20943050.171    20943050.813    20943059.603
       235.000         194.000
  -3387121.19749  -2615450.28045  23324221.458    23324222.021    23324236.286
       210.000         151.000
    168639.30649    132408.34847  20337968.105    20337967.711    20337974.793
       239.000         208.000
   5252784.59249   4076028.01045  24113647.614    24113646.368    24113660.799
       199.000         135.000
  -6439533.16049  -4993710.24747  21439650.387    21439650.607    21439658.257
       237.000         200.000
 00  5 15 14 51 29.9980000  0  8G 2G26G 4G 5G24G 7G 8G 9
    233464.15749    182108.02847  21225662.611    21225662.202    21225670.205
       236.000         202.000
   2511144.72149   1952051.19746  23337548.379    23337548.300    23337558.085
       223.000         170.000
  -7388594.45949  -5741311.82347  20922657.423    20922658.042    20922666.808
       235.000         195.000
   -180107.37455                  24396920.632
       205.000         137.000
  -3523490.15449  -2721711.66245  23298271.255    23298271.757    23298285.875
       213.000         154.000
    179147.49849    140596.53647  20339967.776    20339967.390    20339974.471
       239.000         208.000
   5340112.17449   4144075.12445  24130265.720    24130264.575    24130279.067
       200.000         136.000
  -6532192.05949  -5065911.94647  21422018.008    21422018.193    21422025.791
       237.000         200.000
 00  5 15 14 51 59.9980000  0  8G 2G26G 4G 5G24G 7G 8G 9
    242802.95049    189384.97247  21227439.757    21227439.363    21227447.375
       237.000         202.000
   2556332.65349   1987262.45746  23346147.466    23346147.392    23346157.138
       223.000         171.000
  -7495390.40149  -5824529.33747  20902334.730    20902335.383    20902344.119
       235.000         195.000
   -373542.06449   -267557.07345  24375564.907    24375564.844    24375576.164
       207.000         140.000
  -3659841.16749  -2827958.94145  23272324.337    23272324.876    23272339.025
       211.000         153.000
    189884.57949    148963.07947  20342011.018    20342010.612    20342017.708
       239.000         208.000
   5427466.92449   4212143.37045  24146889.097    24146887.860    24146902.390
       198.000         137.000
  -6624469.25249  -5137816.20247  21404458.214    21404458.398    21404465.998
       237.000         200.000
 00  5 15 14 52 29.9980000  0  8G 2G26G 4G 5G24G 7G 8G 9
    252342.22449    196818.13247  21229255.057    21229254.656    21229262.691
       236.000         201.000
   2601652.85049   2022576.78346  23354771.646    23354771.646    23354781.441
       220.000         170.000
  -7601821.40649  -5907462.48547  20882081.503    20882082.165    20882090.886
       235.000         195.000
   -485842.83149   -355064.10545  24354194.895    24354195.219    24354205.602
       209.000         144.000
  -3796177.75049  -2934195.07445  23246380.159    23246380.760    23246394.843
       209.000         151.000
    200842.59349    157501.78547  20344096.296    20344095.881    20344102.966
       238.000         208.000
   5514840.39849   4280226.19745  24163516.284    24163514.924    24163529.307
       199.000         139.000
  -6716368.77149  -5209426.16747  21386970.297    21386970.483    21386978.091
       237.000         201.000
 00  5 15 14 52 59.9980000  0  8G 2G26G 4G 5G24G 7G 8G 9
    262070.14949    204398.29447  21231106.236    21231105.846    21231113.871
       236.000         201.000
   2647090.27949   2057982.43546  23363418.150    23363418.178    23363428.051
       221.000         171.000
  -7707896.96049  -5990118.67447  20861895.920    20861896.578    20861905.277
       235.000         195.000
   -598229.29959   -442637.90855  24332808.677    24332809.236    24332819.357
       212.000         148.000
  -3932509.71349  -3040427.50245  23220436.791    23220437.471    23220451.534
       211.000         156.000
    212007.86049    166201.98047  20346221.004    20346220.586    20346227.665
       239.000         208.000
   5602218.50349   4348312.64645  24180144.138    24180142.731    24180157.154
       198.000         139.000
  -6807900.61949  -5280749.63847  21369552.337    21369552.533    21369560.112
       237.000         200.000
 00  5 15 14 53 29.9980000  0  8G 2G26G 4G 5G24G 7G 8G 9
    271992.66149    212130.08047  21232994.477    21232994.074    21233002.123
       235.000         201.000
   2692647.16549   2093481.17046  23372087.437    23372087.461    23372097.361
       221.000         170.000
  -7813609.06349  -6072491.64947  20841779.480    20841780.156    20841788.812
       235.000         195.000
   -710695.82649   -530274.13745  24311407.115    24311407.362    24311418.284
       212.000         150.000
  -4068828.85849  -3146650.00745  23194496.031    23194496.706    23194510.608
       211.000         152.000
    223383.93949    175066.44147  20348385.806    20348385.403    20348392.475
       238.000         208.000
   5689604.07649   4416404.93545  24196773.303    24196771.866    24196786.450
       198.000         137.000
  -6899057.42549  -5351780.87447  21352205.772    21352205.947    21352213.540
       237.000         201.000
 00  5 15 14 53 59.9980000  0  8G 2G26G 4G 5G24G 7G 8G 9
    282112.17249    220015.37147  21234920.174    21234919.780    21234927.863
       236.000         201.000
   2738322.52349   2129072.22546  23380779.290    23380779.308    23380789.233
       222.000         171.000
  -7918952.81949  -6154577.60047  20821733.166    20821733.830    20821742.457
       235.000         195.000
   -823239.80149   -617970.69345  24289990.795    24289990.796    24290001.945
       214.000         151.000
  -4205130.40749  -3252858.75145  23168558.618    23168559.215    23168573.139
       211.000         158.000
    234971.13749    184095.41947  20350590.806    20350590.405    20350597.476
       239.000         208.000
   5776996.81149   4484502.79245  24213403.890    24213402.410    24213417.080
       197.000         138.000
  -6989835.18949  -5422516.75047  21334931.266    21334931.466    21334939.061
       237.000         201.000
 00  5 15 14 54 29.9980000  0  8G 2G26G 4G 5G24G 7G 8G 9
    292427.31749    228053.10247  21236883.146    21236882.732    21236890.817
       236.000         201.000
   2784111.49849   2164751.81446  23389492.777    23389492.756    23389502.730
       221.000         168.000
  -8023927.66149  -6236376.08747  20801757.007    20801757.702    20801766.326
       235.000         196.000
   -935863.06349   -705729.03445  24268559.430    24268559.406    24268570.432
       215.000         154.000
  -4341413.74049  -3359053.33445  23142624.752    23142625.247    23142639.084
       211.000         155.000
    246766.08949    193286.27947  20352835.326    20352834.919    20352841.999
       238.000         208.000
   5864392.73849   4552603.13645  24230034.999    24230033.530    24230048.405
       198.000         138.000
  -7080233.53749  -5492956.99147  21317729.022    21317729.221    21317736.780
       237.000         201.000
 00  5 15 14 54 59.9980000  0  8G 2G26G 4G 5G24G 7G 8G 9
    302932.67149    236239.05147  21238882.274    21238881.875    21238889.976
       235.000         201.000
   2830005.07549   2200512.91846  23398226.086    23398226.100    23398236.098
       223.000         168.000
  -8128536.92049  -6317889.70647  20781850.473    20781851.151    20781859.740
       236.000         196.000
  -1048571.13349   -793553.44145  24247111.794    24247111.764    24247122.735
       216.000         155.000
  -4477682.11049  -3465236.25645  23116693.692    23116694.110    23116707.883
       215.000         158.000
    258761.00249    202632.95947  20355117.898    20355117.502    20355124.566
       239.000         208.000
   5951783.64449   4620699.55845  24246665.222    24246663.682    24246678.745
       196.000         137.000
  -7170256.46149  -5563104.69647  21300598.199    21300598.413    21300605.952
       237.000         201.000
 00  5 15 14 55 29.9980000  0  8G 2G26G 4G 5G24G 7G 8G 9
    313643.71849    244585.28447  21240920.558    21240920.148    21240928.276
       236.000         201.000
   2876015.24449   2236364.84846  23406981.628    23406981.667    23406991.684
       222.000         170.000
  -8232762.82049  -6399104.60547  20762016.865    20762017.547    20762026.108
       236.000         196.000
  -1161348.53949   -881431.86745  24225651.005    24225650.950    24225661.873
       216.000         155.000
  -4613917.86649  -3571393.74945  23090768.844    23090769.198    23090782.910
       214.000         154.000
    270969.33949    212145.94047  20357441.060    20357440.666    20357447.753
       239.000         208.000
   6039182.28349   4688802.00945  24263296.852    24263295.440    24263310.575
       199.000         139.000
  -7259886.84049  -5632946.52447  21283542.067    21283542.271    21283549.823
       238.000         201.000
 00  5 15 14 55 59.9980000  0  8G 2G26G 4G 5G24G 7G 8G 9
    324543.49749    253078.58147  21242994.752    21242994.346    21243002.485
       235.000         201.000
   2922121.43949   2272291.62146  23415755.394    23415755.463    23415765.523
       223.000         169.000
  -8336620.12849  -6480032.29347  20742253.460    20742254.111    20742262.619
       237.000         197.000
  -1274212.46349   -969377.70445  24204173.742    24204173.633    24204184.603
       215.000         156.000
  -4750135.80249  -3677537.38745  23064847.285    23064847.666    23064861.302
       212.000         156.000
    283371.91149    221810.27047  20359801.245    20359800.833    20359807.910
       239.000         208.000
   6126568.83549   4756895.05745  24279926.206    24279924.835    24279940.031
       203.000         143.000
  -7349140.21149  -5702494.58447  21266557.713    21266557.899    21266565.432
       237.000         201.000
 00  5 15 14 56 29.9980000  0  8G 2G26G 4G 5G24G 7G 8G 9
    335645.03049    261729.09047  21245107.407    21245106.962    21245115.101
       236.000         201.000
   2968333.36449   2308300.77846  23424549.295    23424549.378    23424559.496
       221.000         168.000
  -8440093.77549  -6560661.02447  20722563.053    20722563.686    20722572.160
       236.000         197.000
  -1387149.95449  -1057380.87045  24182682.495    24182682.330    24182693.230
       216.000         155.000
  -4886320.48049  -3783655.08645  23038931.937    23038932.454    23038946.009
       215.000         156.000
    295979.73849    231634.53947  20362200.453    20362200.048    20362207.122
       239.000         208.000
   6213953.84749   4824986.89845  24296555.301    24296554.038    24296569.237
       201.000         142.000
  -7438001.83749  -5771737.37947  21249647.845    21249648.051    21249655.598
       238.000         201.000
 00  5 15 14 56 59.9980000  0  8G 2G26G 4G 5G24G 7G 8G 9
    346939.09249    270529.62547  21247256.656    21247256.202    21247264.345
       236.000         201.000
   3014638.26449   2344382.37346  23433360.972    23433361.018    23433371.142
       221.000         167.000
  -8543190.60249  -6640996.12647  20702944.299    20702944.971    20702953.397
       236.000         197.000
  -1500170.34849  -1145448.62745  24161175.455    24161175.251    24161186.122
       213.000         154.000
  -5022478.98449  -3889752.42045  23013021.551    23013022.206    23013035.669
       213.000         155.000
    308781.58149    241609.98247  20364636.580    20364636.180    20364643.251
       239.000         208.000
   6301325.28549   4893068.16145  24313181.875    24313180.667    24313195.786
       203.000         144.000
  -7526479.36649  -5840680.89147  21232811.171    21232811.347    21232818.839
       238.000         201.000
 00  5 15 14 57 29.9980000  0  8G 2G26G 4G 5G24G 7G 8G 9
    358431.21749    279484.48547  21249443.591    21249443.131    21249451.260
       236.000         201.000
   3061038.34949   2380538.13346  23442190.746    23442190.743    23442200.924
       221.000         167.000
  -8645903.12949  -6721031.77747  20683398.751    20683399.388    20683407.779
       237.000         198.000
  -1613268.23149  -1233576.76645  24139653.492    24139653.391    24139664.237
       211.000         151.000
  -5158603.35649  -3995823.16845  22987117.818    22987118.450    22987131.876
       212.000         156.000
    321780.86649    251739.28047  20367110.286    20367109.887    20367116.954
       239.000         208.000
   6388686.32149   4961141.34045  24329806.485    24329805.208    24329820.487
       205.000         145.000
  -7614565.59649  -5909319.48947  21216048.877    21216049.065    21216056.532
       237.000         201.000
 00  5 15 14 57 59.9980000  0  8G 2G26G 4G 5G24G 7G 8G 9
    370135.89149    288604.97047  21251670.951    21251670.499    21251678.634
       235.000         200.000
   3107544.32249   2416776.41146  23451040.650    23451040.640    23451050.796
       223.000         168.000
  -8748214.66349  -6800754.97547  20663929.490    20663930.119    20663938.450
       237.000         198.000
  -1726429.50349  -1321754.30445  24118119.535    24118119.485    24118130.306
       210.000         151.000
  -5294676.97349  -4101854.37745  22961223.829    22961224.372    22961237.654
       215.000         159.000
    334989.82449    262031.95947  20369623.931    20369623.502    20369630.552
       239.000         208.000
   6476048.32549   5029215.23745  24346431.333    24346429.942    24346445.184
       204.000         146.000
  -7702244.37149  -5977640.59247  21199364.142    21199364.329    21199371.798
       238.000         202.000
 00  5 15 14 58 29.9980000  0  8G 2G26G 4G 5G24G 7G 8G 9
    382043.54649    297883.61847  21253936.936    21253936.486    21253944.647
       235.000         200.000
   3154143.37849   2453087.22146  23459908.331    23459908.270    23459918.410
       222.000         169.000
  -8850132.66149  -6880171.51147  20644535.125    20644535.728    20644544.008
       238.000         198.000
  -1839663.56749  -1409988.55845  24096571.783    24096571.742    24096582.543
       211.000         150.000
  -5430707.45349  -4207851.93745  22935337.975    22935338.407    22935351.753
       215.000         159.000
    348396.80649    272478.94347  20372175.230    20372174.793    20372181.842
       239.000         208.000
   6563399.30349   5097280.54145  24363053.998    24363052.602    24363067.930
       206.000         146.000
  -7789524.01049  -6045650.66647  21182755.335    21182755.520    21182763.007
       238.000         202.000
 00  5 15 14 58 59.9980000  0  8G 2G26G 4G 5G24G 7G 8G 9
    394143.07949    307311.78747  21256239.414    21256238.984    21256247.144
       235.000         199.000
   3200820.93049   2489459.19146  23468790.870    23468790.825    23468801.015
       223.000         170.000
  -8951665.92349  -6959288.26147  20625213.963    20625214.548    20625222.795
       238.000         199.000
  -1952981.57049  -1498288.22045  24075008.119    24075008.008    24075018.880
       210.000         148.000
  -5566703.30149  -4313822.55545  22909458.712    22909459.114    22909472.426
       214.000         158.000
    361988.86849    283070.14347  20374761.734    20374761.299    20374768.344
       239.000         208.000
   6650725.39749   5165326.47245  24379671.892    24379670.555    24379685.827
       205.000         144.000
  -7876413.95949  -6113357.09947  21166220.772    21166220.921    21166228.380
       238.000         202.000
 00  5 15 14 59 29.9980000  0  8G 2G26G 4G 5G24G 7G 8G 9
    406435.93449    316890.58947  21258578.688    21258578.252    21258586.431
       234.000         199.000
   3247575.06849   2525890.83546  23477688.047    23477687.996    23477698.171
       221.000         169.000
  -9052811.08949  -7038102.59447  20605966.624    20605967.211    20605975.428
       238.000         199.000
  -2066381.96949  -1586652.09645  24053428.620    24053428.597    24053439.438
       209.000         150.000
  -5702660.78349  -4419763.27945  22883586.761    22883587.117    22883600.353
       215.000         157.000
    375765.40149    293805.08147  20377383.343    20377382.907    20377389.949
       239.000         208.000
   6738025.52049   5233352.15945  24396284.932    24396283.538    24396298.794
       205.000         144.000
  -7962910.82349  -6180757.21247  21149760.953    21149761.078    21149768.541
       238.000         202.000
 00  5 15 14 59 59.9970000  0  8G 2G26G 4G 5G24G 7G 8G 9
    418927.05549    326623.88547  21260955.690    21260955.282    21260963.463
       234.000         199.000
   3294406.08049   2562382.38546  23486599.754    23486599.735    23486609.940
       221.000         168.000
  -9153557.16549  -7116605.95147  20586795.255    20586795.815    20586804.026
       238.000         199.000
  -2179855.81549  -1675073.18245  24031835.088    24031835.160    24031846.057
       210.000         148.000
  -5838567.78749  -4525664.66045  22857724.197    22857724.711    22857737.917
       214.000         160.000
    389729.13049    304685.88747  20380040.528    20380040.131    20380047.164
       239.000         208.000
   6825299.50949   5301357.48745  24412892.946    24412891.471    24412906.819
       208.000         145.000
  -8049004.94149  -6247843.49647  21133377.779    21133377.899    21133385.327
       239.000         203.000
 00  5 15 15  0 29.9970000  0  8G 2G26G 4G 5G24G 7G 8G 9
    431624.94349    336518.29747  21263372.063    21263371.643    21263379.833
       235.000         199.000
   3341321.30849   2598939.56046  23495527.502    23495527.547    23495537.727
       221.000         168.000
  -9253901.19749  -7194796.03347  20567700.331    20567700.924    20567709.123
       237.000         199.000
  -2293403.12149  -1763551.53045  24010227.763    24010227.753    24010238.668
       211.000         148.000
  -5974423.56249  -4631526.15545  22831871.492    22831872.089    22831885.228
       216.000         157.000
    403886.54849    315717.62347  20382734.618    20382734.212    20382741.252
       240.000         208.000
   6912557.89749   5369350.61445  24429497.942    24429496.511    24429511.914
       210.000         146.000
  -8134693.02649  -6314613.38347  21117071.878    21117071.999    21117079.402
       238.000         203.000
 00  5 15 15  0 59.9970000  0  8G 2G26G 4G 5G24G 7G 8G 9
    444519.32849    346565.82447  21265825.832    21265825.405    21265833.597
       235.000         199.000
   3388305.86949   2635550.75746  23504468.426    23504468.501    23504478.746
       219.000         167.000
  -9353847.61949  -7272676.28547  20548681.095    20548681.705    20548689.893
       237.000         200.000
  -2407029.80949  -1852091.75445  23988605.266    23988605.256    23988616.238
       213.000         148.000
  -6110231.03349  -4737349.97745  22806028.177    22806028.675    22806041.773
       216.000         159.000
    418225.40249    326890.73747  20385463.251    20385462.833    20385469.865
       239.000         208.000
   6999785.62549   5437319.90445  24446097.088    24446095.739    24446111.142
       203.000         146.000
  -8219980.60149  -6381071.18347  21100842.128    21100842.268    21100849.695
       238.000         203.000
 00  5 15 15  1 29.9970000  0  8G 2G26G 4G 5G24G 7G 8G 9
    457593.90549    356753.76047  21268313.881    21268313.453    21268321.664
       235.000         199.000
   3435339.98349   2672200.55346  23513418.820    23513418.879    23513429.205
       220.000         168.000
  -9453410.70549  -7350257.83647  20529734.777    20529735.408    20529743.606
       238.000         200.000
  -2520752.33749  -1940706.63945  23966964.565    23966964.527    23966975.503
       215.000         148.000
  -6246004.37049  -4843147.23945  22780191.256    22780191.752    22780204.708
       215.000         159.000
    432727.11349    338190.75047  20388222.823    20388222.423    20388229.463
       240.000         207.000
   7086963.63649   5505250.39745  24462686.657    24462685.507    24462700.947
       197.000         140.000
  -8304882.41449  -6447228.39647  21084685.862    21084685.971    21084693.388
       239.000         204.000
 00  5 15 15  1 59.9970000  0  7G 2G26G 4G 5G24G 7G 9
    470855.48449    367087.41047  21270837.543    21270837.084    21270845.310
       235.000         199.000
   3482427.12649   2708891.67646  23522379.268    23522379.355    23522389.743
       218.000         166.000
  -9552581.50149  -7427533.70647  20510863.107    20510863.776    20510871.964
       238.000         200.000
  -2634563.87849  -2029390.90645  23945306.930    23945306.871    23945317.776
       211.000         152.000
  -6381734.18349  -4948910.57945  22754362.632    22754363.116    22754376.011
       215.000         159.000
    447396.68149    349621.56447  20391014.337    20391013.958    20391020.997
       240.000         207.000
  -8389390.07549  -6513078.47947  21068604.559    21068604.683    21068612.078
       239.000         204.000
 00  5 15 15  2 29.9970000  0  7G 2G26G 4G 5G24G 7G 9
    484304.09349    377566.79347  21273396.723    21273396.296    21273404.558
       235.000         199.000
   3529563.87149   2745621.45646  23531349.251    23531349.326    23531359.755
       220.000         168.000
  -9651357.96949  -7504502.31447  20492066.524    20492067.175    20492075.355
       238.000         200.000
  -2748464.37049  -2118144.46845  23923632.320    23923632.249    23923643.176
       213.000         152.000
  -6517418.29449  -5054638.30045  22728542.717    22728543.168    22728555.989
       218.000         161.000
    462232.03449    361181.55347  20393837.396    20393837.047    20393844.078
       240.000         207.000
  -8473501.97849  -6578620.18647  21052598.540    21052598.708    21052606.065
       239.000         204.000
 00  5 15 15  2 59.9970000  0  7G 2G26G 4G 5G24G 7G 9
    497939.52049    388191.74047  21275991.505    21275991.087    21275999.328
       234.000         198.000
   3576746.54249   2782387.02346  23540327.974    23540327.989    23540338.476
       219.000         166.000
  -9749738.25249  -7581162.19947  20473345.300    20473345.969    20473354.135
       238.000         200.000
  -2862454.00149  -2206967.46645  23901940.720    23901940.639    23901951.652
       213.000         153.000
  -6653054.86549  -5160328.98745  22702731.806    22702732.272    22702745.040
       216.000         161.000
    477230.93949    372868.99147  20396691.637    20396691.259    20396698.283
       240.000         207.000
  -8557216.91449  -6643852.56747  21036668.159    21036668.272    21036675.620
       240.000         204.000
 00  5 15 15  3 29.9970000  0  7G 2G26G 4G 5G24G 7G 9
    511763.54849    398963.66047  21278622.209    21278621.758    21278630.009
       235.000         199.000
   3623973.44449   2819187.06246  23549314.934    23549315.056    23549325.652
       218.000         166.000
  -9847718.77949  -7657510.59447  20454700.162    20454700.823    20454708.982
       237.000         200.000
  -2976530.98349  -2295858.56145  23880232.564    23880232.471    23880243.434
       212.000         153.000
  -6788639.62249  -5265979.27245  22676930.764    22676931.238    22676943.987
       220.000         162.000
    492392.93649    384683.51847  20399576.880    20399576.504    20399583.546
       240.000         208.000
  -8640531.74149  -6708773.17847  21020813.888    21020813.999    21020821.292
       239.000         204.000
 00  5 15 15  3 59.9970000  0  7G 2G26G 4G 5G24G 7G 9
    525777.71349    409883.72447  21281289.084    21281288.616    21281296.872
       235.000         198.000
   3671242.73749   2856020.10946  23558310.058    23558310.209    23558320.856
       219.000         167.000
  -9945295.86449  -7733544.62347  20436131.791    20436132.463    20436140.605
       238.000         200.000
  -3090693.59949  -2384816.36845  23858508.112    23858508.053    23858518.983
       213.000         154.000
  -6924168.79549  -5371586.28246  22651140.405    22651140.801    22651153.498
       219.000         163.000
    507717.81549    396624.96447  20402493.135    20402492.753    20402499.796
       240.000         207.000
  -8723443.33449  -6773379.59147  21005036.294    21005036.405    21005043.686
       239.000         204.000
 00  5 15 15  4 29.9970000  0  7G 2G26G 4G 5G24G 7G 9
    539968.56649    420941.47047  21283989.574    21283989.099    21283997.361
       234.000         198.000
   3718537.66149   2892873.12546  23567310.177    23567310.240    23567320.977
       219.000         165.000
 -10042480.80549  -7809273.08247  20417638.030    20417638.714    20417646.863
       238.000         199.000
  -3204955.10949  -2473851.23045  23836764.788    23836764.756    23836775.677
       212.000         153.000
  -7059653.33549  -5477158.49846  22625358.482    22625358.850    22625371.490
       219.000         163.000
    523190.11049    408681.28247  20405437.420    20405437.044    20405444.118
       240.000         207.000
  -8805963.72049  -6837681.17247  20989333.174    20989333.292    20989340.531
       239.000         205.000
 00  5 15 15  4 59.9970000  0  7G 2G26G 4G 5G24G 7G 9
    554341.85049    432141.37347  21286724.787    21286724.300    21286732.577
       234.000         198.000
   3765860.65649   2929748.02046  23576315.514    23576315.605    23576326.386
       218.000         166.000
 -10139265.78949  -7884689.89147  20399220.418    20399221.082    20399229.209
       238.000         200.000
  -3319309.86149  -2562958.73945  23815003.657    23815003.652    23815014.652
       211.000         155.000
  -7195085.30549  -5582689.76646  22599586.507    22599586.932    22599599.458
       219.000         163.000
    538813.55149    420855.37647  20408410.467    20408410.094    20408417.179
       240.000         207.000
  -8888085.50749  -6901672.15347  20973705.870    20973706.006    20973713.246
       239.000         205.000
 00  5 15 15  5 29.9970000  0  7G 2G26G 4G 5G24G 7G 9
    568904.94349    443489.18047  21289496.068    21289495.603    21289503.907
       233.000         197.000
   3813215.54049   2966647.76646  23585327.017    23585327.063    23585337.912
       219.000         166.000
 -10235641.63149  -7959787.88947  20380880.664    20380881.325    20380889.420
       237.000         200.000
  -3433750.42549  -2652133.11045  23793226.332    23793226.286    23793237.289
       213.000         156.000
  -7330454.71749  -5688172.27446  22573826.345    22573826.867    22573839.330
       219.000         163.000
    554593.58149    433151.49047  20411413.300    20411412.927    20411420.037
       239.000         207.000
  -8969799.75449  -6965345.57447  20958156.164    20958156.292    20958163.511
       240.000         206.000
 00  5 15 15  5 59.9970000  0  7G 2G26G 4G 5G24G 7G 9
    583657.94049    454984.94947  21292303.439    21292303.025    21292311.347
       234.000         197.000
   3860599.20249   3003569.93246  23594343.934    23594343.973    23594354.914
       220.000         167.000
 -10331606.09849  -8034565.34247  20362619.190    20362619.848    20362627.897
       238.000         200.000
  -3548276.44849  -2741374.08145  23771432.812    23771432.715    23771443.634
       214.000         156.000
  -7465759.50849  -5793604.43546  22548078.550    22548079.104    22548091.530
       218.000         165.000
    570528.43749    445568.24547  20414445.597    20414445.246    20414452.369
       240.000         207.000
  -9051105.04849  -7028700.33547  20942684.302    20942684.413    20942691.602
       240.000         205.000
 00  5 15 15  6 29.9970000  0  7G 2G26G 4G 5G24G 7G 9
    598619.12749    466642.96047  21295150.532    21295150.092    21295158.452
       234.000         198.000
   3908026.46949   3040526.08446  23603369.213    23603369.195    23603380.160
       219.000         167.000
 -10427139.16149  -8109006.63647  20344439.845    20344440.462    20344448.491
       237.000         201.000
  -3662869.48949  -2830667.28145  23749626.486    23749626.354    23749637.227
       214.000         156.000
  -7600978.81249  -5898969.97946  22522347.057    22522347.602    22522360.008
       218.000         164.000
    586634.32049    458118.27447  20417510.457    20417510.084    20417517.249
       239.000         207.000
  -9131981.74549  -7091721.11547  20927293.982    20927294.089    20927301.248
       241.000         206.000
 00  5 15 15  6 59.9970000  0  7G 2G26G 4G 5G24G 7G 9
    613783.80249    478459.52147  21298036.318    21298035.888    21298044.258
       233.000         198.000
   3955489.05849   3077509.76046  23612401.217    23612401.127    23612412.155
       219.000         167.000
 -10522243.68549  -8183114.00747  20326342.052    20326342.641    20326350.627
       238.000         201.000
  -3777534.39049  -2920016.48045  23727806.398    23727806.267    23727817.118
       216.000         156.000
  -7736115.25249  -6004270.94046  22496631.337    22496631.870    22496644.273
       219.000         165.000
    602904.39449    470796.24147  20420606.564    20420606.194    20420613.359
       240.000         207.000
  -9212433.28349  -7154410.60247  20911984.575    20911984.674    20911991.803
       240.000         206.000
 00  5 15 15  7 29.9970000  0  7G 2G26G 4G 5G24G 7G 9
    629148.26249    490431.76547  21300960.133    21300959.683    21300968.072
       233.000         197.000
   4002980.06549   3114515.57046  23621438.711    23621438.507    23621449.560
       219.000         167.000
 -10616921.36949  -8256888.77447  20308325.471    20308326.052    20308333.980
       239.000         201.000
  -3892274.73749  -3009424.46945  23705971.940    23705971.878    23705982.622
       215.000         156.000
  -7871170.00049  -6109508.25546  22470931.144    22470931.685    22470944.074
       219.000         165.000
    619333.05549    483597.78547  20423732.875    20423732.477    20423739.657
       239.000         206.000
  -9292461.62949  -7216770.32447  20896755.669    20896755.764    20896762.912
       240.000         206.000
 00  5 15 15  7 59.9970000  0  7G 2G26G 4G 5G24G 7G 9
    644701.39649    502551.02447  21303919.791    21303919.391    21303927.821
       232.000         197.000
   4050485.13149   3151532.33346  23630478.728    23630478.552    23630489.612
       220.000         166.000
 -10711181.07849  -8330337.84947  20290388.463    20290389.023    20290396.881
       239.000         202.000
  -4007101.41949  -3098899.73345  23684121.042    23684121.027    23684131.763
       218.000         157.000
  -8006151.89349  -6214688.79446  22445244.835    22445245.375    22445257.749
       218.000         166.000
    635907.41049    496512.85847  20426886.884    20426886.500    20426893.662
       239.000         207.000
  -9372076.59349  -7278807.92747  20881605.382    20881605.508    20881612.694
       240.000         206.000
 00  5 15 15  8 29.9970000  0  7G 2G26G 4G 5G24G 7G 9
    660440.32049    514815.04047  21306914.895    21306914.459    21306922.909
       233.000         197.000
   4097997.94049   3188555.13346  23639520.291    23639520.106    23639531.139
       219.000         166.000
 -10805024.07849  -8403462.21947  20272530.748    20272531.271    20272539.096
       239.000         203.000
  -4122017.28449  -3188444.49745  23662253.229    23662253.207    23662263.885
       219.000         157.000
  -8141061.41649  -6319812.93946  22419572.235    22419572.834    22419585.195
       220.000         165.000
    652622.52949    509537.61847  20430067.699    20430067.295    20430074.460
       240.000         206.000
  -9451279.59449  -7340524.52147  20866533.537    20866533.669    20866540.855
       240.000         206.000
 00  5 15 15  8 59.9970000  0  7G 2G26G 4G 5G24G 7G 9
    676364.48049    527223.40447  21309945.230    21309944.780    21309953.250
       233.000         197.000
   4145514.63749   3225580.96346  23648562.547    23648562.376    23648573.440
       221.000         167.000
 -10898448.93349  -8476260.76547  20254752.578    20254753.100    20254760.890
       239.000         203.000
  -4237022.61849  -3278058.97745  23640368.431    23640368.403    23640379.001
       219.000         160.000
  -8275896.68249  -6424879.22946  22393913.831    22393914.411    22393926.774
       219.000         165.000
    669475.96849    522670.15347  20433274.808    20433274.410    20433281.564
       240.000         207.000
  -9530069.79549  -7401919.45547  20851540.227    20851540.381    20851547.566
       240.000         206.000
 00  5 15 15  9 29.9970000  0  7G 2G26G 4G 5G24G 7G 9
    692461.92649    539766.79347  21313008.536    21313008.076    21313016.575
       232.000         196.000
   4193020.03249   3262597.98246  23657602.667    23657602.500    23657613.569
       220.000         166.000
 -10991465.55249  -8548741.20647  20237052.094    20237052.602    20237060.377
       239.000         203.000
  -4352128.95049  -3367752.15145  23618464.420    23618464.371    23618474.904
       220.000         160.000
  -8410667.30049  -6529895.15046  22368267.794    22368268.297    22368280.628
       219.000         166.000
    686453.96649    535899.74947  20436505.618    20436505.227    20436512.390
       239.000         207.000
  -9608457.76049  -7463000.96247  20836623.459    20836623.626    20836630.813
       240.000         206.000
 00  5 15 15  9 59.9970000  0  7G 2G26G 4G 5G24G 7G 9
    708749.01949    552457.95847  21316107.921    21316107.460    21316115.970
       231.000         196.000
   4240527.10649   3299616.30046  23666643.079    23666642.926    23666654.028
       220.000         166.000
 -11084055.86749  -8620889.46447  20219432.691    20219433.226    20219440.979
       239.000         203.000
  -4467319.86949  -3457511.23545  23596544.310    23596544.242    23596554.699
       220.000         160.000
  -8545354.53549  -6634846.09946  22342637.527    22342638.023    22342650.356
       220.000         166.000
    703571.02149    549237.70247  20439762.874    20439762.503    20439769.670
       240.000         207.000
  -9686425.57149  -7523755.07547  20821786.627    20821786.811    20821794.021
       240.000         206.000
 00  5 15 15 10 29.9970000  0  7G 2G26G 4G 5G24G 7G 9
    725211.48449    565285.76747  21319240.709    21319240.207    21319248.735
       233.000         196.000
   4288018.41749   3336622.34246  23675680.508    23675680.360    23675691.511
       220.000         166.000
 -11176232.09749  -8692715.06047  20201892.113    20201892.653    20201900.393
       240.000         203.000
  -4582609.51749  -3547347.25345  23574605.466    23574605.376    23574615.739
       216.000         159.000
  -8679970.25449  -6739741.32146  22317020.969    22317021.397    22317033.705
       220.000         167.000
    720810.88749    562671.35047  20443043.516    20443043.144    20443050.326
       240.000         207.000
  -9763986.34949  -7584192.02247  20807027.256    20807027.452    20807034.679
       240.000         206.000
 00  5 15 15 10 59.9970000  0  7G 2G26G 4G 5G24G 7G 9
    741865.44849    578262.81547  21322409.940    21322409.408    21322417.957
       233.000         196.000
   4335506.47949   3373625.84246  23684717.349    23684717.240    23684728.372
       220.000         166.000
 -11267976.64949  -8764204.28247  20184433.715    20184434.216    20184441.951
       240.000         204.000
  -4697981.57149  -3637247.47345  23552650.741    23552650.699    23552661.083
       214.000         157.000
  -8814496.14849  -6844566.54946  22291421.387    22291421.882    22291434.131
       219.000         167.000
    738187.70749    576211.71647  20446350.227    20446349.862    20446357.036
       240.000         207.000
  -9841122.62749  -7644298.18947  20792348.729    20792348.909    20792356.140
       241.000         207.000
 00  5 15 15 11 29.9970000  0  7G 2G26G 4G 5G24G 7G 9
    758704.74849    591384.27247  21325614.382    21325613.876    21325622.439
       233.000         196.000
   4382981.91349   3410619.50446  23693751.671    23693751.648    23693762.820
       218.000         165.000
 -11359293.66049  -8835360.36047  20167056.633    20167057.149    20167064.864
       240.000         204.000
  -4813441.97549  -3727216.51545  23530679.283    23530679.213    23530689.646
       213.000         158.000
  -8948935.73349  -6949324.53946  22265838.314    22265838.800    22265850.945
       220.000         168.000
    755693.37349    589852.47947  20449681.497    20449681.105    20449688.268
       240.000         207.000
  -9917839.09449  -7704077.23747  20777750.063    20777750.229    20777757.474
       240.000         206.000
 00  5 15 15 11 59.9970000  0  7G 2G26G 4G 5G24G 7G 9
    775730.30849    604650.86847  21328854.297    21328853.788    21328862.367
       232.000         196.000
   4430442.50049   3447601.60346  23702783.238    23702783.227    23702794.466
       220.000         165.000
 -11450180.36249  -8906181.13447  20149761.445    20149761.956    20149769.651
       240.000         204.000
  -4928989.47249  -3817253.43145  23508691.227    23508691.237    23508701.605
       214.000         161.000
  -9083285.90049  -7054012.84646  22240272.366    22240272.725    22240284.835
       219.000         168.000
    773327.10749    603593.03447  20453037.136    20453036.726    20453043.889
       240.000         208.000
  -9994133.57949  -7763527.47047  20763231.678    20763231.844    20763239.111
       240.000         207.000
 00  5 15 15 12 29.9970000  0  7G 2G26G 4G 5G24G 7G 9
    792924.92749    618049.19847  21332126.365    21332125.873    21332134.454
       231.000         196.000
   4477867.66049   3484556.12046  23711807.997    23711808.015    23711819.318
       219.000         165.000
 -11540652.08749  -8976678.54547  20132545.230    20132545.735    20132553.421
       240.000         205.000
  -5044640.83049  -3907371.25246  23486683.407    23486683.422    23486693.787
       217.000         164.000
  -9217561.32949  -7158642.91246  22214720.499    22214720.855    22214732.900
       219.000         168.000
    791069.83849    617418.52147  20456413.495    20456413.087    20456420.243
       241.000         207.000
 -10070021.61749  -7822660.99147  20748790.663    20748790.819    20748798.089
       240.000         207.000
 00  5 15 15 12 59.9970000  0  7G 2G26G 4G 5G24G 7G 9
    810303.86249    631591.14947  21335433.516    21335433.028    21335441.611
       232.000         195.000
   4525269.50849   3521492.45946  23720828.381    23720828.410    23720839.733
       219.000         165.000
 -11630691.74849  -9046839.28447  20115411.237    20115411.742    20115419.416
       240.000         205.000
  -5160380.48649  -3997557.88446  23464658.761    23464658.806    23464669.217
       219.000         165.000
  -9351744.29349  -7263200.93246  22189186.229    22189186.595    22189198.587
       219.000         168.000
    808934.99349    631339.39947  20459813.134    20459812.726    20459819.883
       241.000         207.000
 -10145486.85049  -7881465.05947  20734430.076    20734430.257    20734437.526
       241.000         207.000
 00  5 15 15 13 29.9970000  0  7G 2G26G 4G 5G24G 7G 9
    827863.01949    645273.54747  21338774.968    21338774.485    21338783.063
       232.000         196.000
   4572640.72649   3558404.93346  23729842.910    23729842.960    23729854.375
       218.000         166.000
 -11720301.61849  -9116665.12647  20098359.001    20098359.526    20098367.186
       240.000         205.000
  -5276212.41549  -4087816.44346  23442616.580    23442616.624    23442627.074
       220.000         166.000
  -9485836.53249  -7367688.25146  22163669.195    22163669.571    22163681.537
       221.000         169.000
    826916.73349    645351.12547  20463234.975    20463234.563    20463241.725
       241.000         208.000
 -10220531.98549  -7939941.77447  20720149.467    20720149.642    20720156.903
       240.000         207.000
 00  5 15 15 13 59.9970000  0  7G 2G26G 4G 5G24G 7G 9
    845608.11349    659100.83047  21342151.810    21342151.316    21342159.939
       232.000         195.000
   4619983.73149   3595295.39446  23738852.042    23738852.098    23738863.600
       218.000         165.000
 -11809474.06349  -9186150.11447  20081390.028    20081390.550    20081398.199
       240.000         205.000
  -5392130.46349  -4178142.11846  23420558.089    23420558.083    23420568.546
       220.000         164.000
  -9619829.72049  -7472098.37546  22138170.967    22138171.415    22138183.367
       221.000         171.000
    845019.01649    659456.77347  20466679.734    20466679.351    20466686.510
       240.000         208.000
 -10295149.80049  -7998085.52147  20705950.121    20705950.304    20705957.592
       239.000         206.000
 00  5 15 15 14 29.9970000  0  7G 2G26G 4G 5G24G 7G 9
    863542.99249    673075.99647  21345564.742    21345564.267    21345572.910
       232.000         195.000
   4667299.19349   3632164.40146  23747855.980    23747856.046    23747867.598
       218.000         165.000
 -11898203.59149  -9255289.96947  20064505.362    20064505.861    20064513.484
       240.000         205.000
  -5508130.54349  -4268531.71545  23398483.982    23398483.931    23398494.369
       219.000         160.000
  -9753717.87949  -7576426.66146  22112692.791    22112693.229    22112705.182
       223.000         172.000
    863243.77249    673657.86247  20470147.839    20470147.435    20470154.601
       240.000         208.000
 -10369335.41749  -8055892.48647  20691833.071    20691833.254    20691840.515
       240.000         206.000
 00  5 15 15 14 59.9970000  0  7G 2G26G 4G 5G24G 7G 9
    881683.36749    687211.28747  21349016.792    21349016.328    21349024.970
       232.000         195.000
   4714599.45749   3669021.55146  23756857.099    23756857.107    23756868.735
       219.000         166.000
 -11986472.95049  -9324071.25047  20047708.223    20047708.746    20047716.361
       241.000         205.000
  -5624196.62949  -4358972.75145  23376397.334    23376397.238    23376407.625
       215.000         157.000
  -9887482.87349  -7680658.97146  22087238.104    22087238.498    22087250.423
       223.000         173.000
    881604.79149    687965.12147  20473641.836    20473641.442    20473648.608
       240.000         208.000
 -10443071.79249  -8113349.39247  20677801.509    20677801.671    20677808.942
       240.000         207.000
 00  5 15 15 15 29.9970000  0  7G 2G26G 4G 5G24G 7G 9
    900017.29649    701497.40047  21352505.677    21352505.204    21352513.875
       232.000         195.000
   4761869.31649   3705855.01446  23765852.407    23765852.396    23765864.064
       219.000         164.000
 -12074292.33849  -9392501.91347  20030996.728    20030997.256    20031004.855
       241.000         205.000
  -5740340.56349  -4449474.45145  23354295.719    23354295.704    23354306.084
       215.000         156.000
 -10021134.02649  -7784802.56746  22061805.003    22061805.410    22061817.326
       222.000         171.000
    900088.45049    702367.94047  20477159.168    20477158.776    20477165.970
       240.000         207.000
 -10516369.61249  -8170464.57147  20663853.389    20663853.552    20663860.812
       241.000         206.000
 00  5 15 15 15 59.9970000  0  7G 2G26G 4G 5G24G 7G 9
    918552.61049    715940.44147  21356032.881    21356032.394    21356041.101
       231.000         194.000
   4809113.40149   3742668.38746  23774842.827    23774842.792    23774854.479
       217.000         164.000
 -12161652.20649  -9460574.50147  20014372.666    20014373.189    20014380.778
       240.000         205.000
  -5856554.05249  -4540030.35245  23332180.796    23332180.891    23332191.309
       212.000         157.000
 -10154661.43049  -7888849.72446  22036395.493    22036395.880    22036407.791
       223.000         172.000
    918700.60349    716870.89147  20480700.961    20480700.575    20480707.778
       240.000         207.000
 -10589219.82249  -8227230.95747  20649990.454    20649990.601    20649997.872
       240.000         206.000
 00  5 15 15 16 29.9970000  0  7G 2G26G 4G 5G24G 7G 9
    937283.05749    730535.53447  21359597.208    21359596.745    21359605.470
       232.000         195.000
   4856322.27449   3779454.33046  23783826.481    23783826.501    23783838.200
       219.000         163.000
 -12248557.08049  -9528292.54747  19997835.171    19997835.702    19997843.298
       240.000         205.000
  -5972842.81849  -4630644.87545  23310051.620    23310051.771    23310062.198
       213.000         159.000
 -10288068.68349  -7992803.26346  22011008.798    22011009.249    22011021.097
       223.000         173.000
    937433.31149    731467.78047  20484265.677    20484265.306    20484272.534
       240.000         208.000
 -10661627.60649  -8283652.59547  20636211.696    20636211.870    20636219.117
       241.000         206.000
 00  5 15 15 16 59.9970000  0  7G 2G26G 4G 5G24G 7G 9
    956195.90349    745272.76447  21363196.266    21363195.798    21363204.530
       232.000         195.000
   4903480.00549   3816200.42246  23792800.411    23792800.453    23792812.220
       218.000         163.000
 -12335017.89249  -9595664.57247  19981382.181    19981382.737    19981390.325
       240.000         205.000
  -6089218.98049  -4721327.49945  23287905.987    23287906.058    23287916.512
       213.000         161.000
 -10421366.08549  -8096671.18946  21985643.069    21985643.501    21985655.306
       223.000         173.000
    956272.17449    746147.38347  20487850.641    20487850.250    20487857.493
       240.000         207.000
 -10733604.13549  -8339738.19247  20622515.048    20622515.172    20622522.401
       241.000         206.000
 00  5 15 15 17 29.9970000  0  7G 2G26G 4G 5G24G 7G 9
    975293.93549    760154.28647  21366830.589    21366830.099    21366838.830
       232.000         194.000
   4950586.35549   3852906.47446  23801764.577    23801764.635    23801776.407
       219.000         165.000
 -12421030.11649  -9662687.04447  19965014.560    19965015.138    19965022.709
       240.000         206.000
  -6205679.60649  -4812075.94746  23265744.263    23265744.272    23265754.741
       216.000         163.000
 -10554548.26949  -8200449.33946  21960299.240    21960299.677    21960311.428
       223.000         174.000
    975218.14249    760910.44747  20491455.909    20491455.541    20491462.826
       239.000         207.000
 -10805145.24549  -8395484.50047  20608901.246    20608901.360    20608908.588
       242.000         206.000
 00  5 15 15 17 59.9970000  0  7G 2G26G 4G 5G24G 7G 9
    994576.56049    775179.64647  21370500.010    21370499.492    21370508.283
       232.000         195.000
   4997637.64649   3889569.62446  23810718.346    23810718.353    23810730.181
       220.000         164.000
 -12506592.65849  -9729359.11947  19948732.542    19948733.083    19948740.654
       240.000         206.000
  -6322224.70149  -4902890.21945  23243566.426    23243566.427    23243576.906
       214.000         162.000
 -10687613.23749  -8304136.14046  21934977.701    21934978.139    21934989.862
       223.000         175.000
    994269.22349    775755.41247  20495081.217    20495080.863    20495088.168
       239.000         207.000
 -10876250.35049  -8450891.06547  20595370.391    20595370.518    20595377.738
       241.000         206.000
 00  5 15 15 18 29.9970000  0  7G 2G26G 4G 5G24G 7G 9
   1014054.07749    790356.87347  21374206.512    21374206.002    21374214.822
       232.000         194.000
   5044641.13449   3926195.50646  23819662.991    23819662.948    23819674.795
       218.000         164.000
 -12591693.39749  -9795671.34147  19932538.388    19932538.932    19932546.484
       240.000         206.000
  -6438843.58749  -4993761.98545  23221374.584    23221374.549    23221384.975
       214.000         159.000
 -10820548.39149  -8407721.79546  21909680.867    21909681.295    21909692.998
       223.000         175.000
   1013434.09149    790689.04747  20498728.220    20498727.846    20498735.146
       240.000         207.000
 -10946907.90849  -8505948.89447  20581924.683    20581924.818    20581932.044
       242.000         206.000
 00  5 15 15 18 59.9970000  0  7G 2G26G 4G 5G24G 7G 9
   1033718.85849    805680.01247  21377948.663    21377948.143    21377956.975
       231.000         194.000
   5091585.75449   3962775.52746  23828596.372    23828596.354    23828608.272
       217.000         164.000
 -12676338.61649  -9861628.61547  19916430.939    19916431.459    19916439.008
       240.000         206.000
  -6555543.64849  -5084697.00445  23199167.234    23199167.166    23199177.602
       214.000         159.000
 -10953359.02849  -8511210.42146  21884407.725    21884408.163    21884419.811
       224.000         177.000
   1032702.89749    805703.67847  20502395.007    20502394.600    20502401.903
       240.000         207.000
 -11017124.49849  -8560663.11547  20568562.909    20568563.034    20568570.263
       241.000         207.000
 00  5 15 15 19 29.9970000  0  7G 2G26G 4G 5G24G 7G 9
   1053584.22849    821159.45447  21381728.934    21381728.439    21381737.311
       231.000         194.000
   5138481.58649   3999317.54646  23837520.489    23837520.447    23837532.491
       219.000         165.000
 -12760513.52149  -9927219.41347  19900412.984    19900413.495    19900421.010
       241.000         207.000
  -6672311.17549  -5175684.61645  23176947.104    23176947.006    23176957.420
       217.000         161.000
 -11086029.52749  -8614589.85046  21859161.209    21859161.678    21859173.305
       223.000         177.000
   1052087.44449    820808.49047  20506083.787    20506083.375    20506090.685
       239.000         206.000
 -11086885.56649  -8615022.38447  20555287.859    20555287.953    20555295.177
       242.000         207.000
 00  5 15 15 19 59.9970000  0  7G 2G26G 4G 5G24G 7G 9
   1073651.97349    836796.59147  21385547.743    21385547.268    21385556.164
       233.000         195.000
   5185327.56549   4035820.69746  23846435.137    23846435.077    23846447.223
       218.000         164.000
 -12844214.53949  -9992440.94747  19884485.178    19884485.707    19884493.191
       241.000         207.000
  -6789143.51649  -5266722.72745  23154714.574    23154714.519    23154724.937
       216.000         162.000
 -11218555.20349  -8717856.43146  21833942.272    21833942.771    21833954.355
       224.000         178.000
   1071587.87249    836003.60047  20509794.602    20509794.209    20509801.542
       239.000         206.000
 -11156188.23149  -8669024.45947  20542100.033    20542100.120    20542107.309
       242.000         207.000
 00  5 15 15 20 29.9970000  0  7G 2G26G 4G 5G24G 7G 9
   1093926.16149    852594.59347  21389405.888    21389405.378    21389414.306
       231.000         194.000
   5232124.75849   4072285.83246  23855340.498    23855340.432    23855352.649
       219.000         163.000
 -12927435.85449 -10057288.68847  19868648.652    19868649.202    19868656.677
       241.000         207.000
  -6906036.17049  -5357807.85545  23132470.572    23132470.541    23132480.912
       213.000         160.000
 -11350929.69449  -8821005.20646  21808752.117    21808752.622    21808764.160
       224.000         180.000
   1091206.71649    851290.97847  20513527.952    20513527.569    20513534.917
       239.000         206.000
 -11225026.85049  -8722664.93547  20529000.439    20529000.559    20529007.752
       242.000         206.000
 00  5 15 15 20 59.9970000  0  7G 2G26G 4G 5G24G 7G 9
   1114410.18049    868556.08747  21393303.893    21393303.409    21393312.368
       231.000         194.000
   5278873.26949   4108713.02245  23864236.672    23864236.553    23864248.778
       218.000         161.000
 -13010172.55449 -10121758.80747  19852904.366    19852904.915    19852912.366
       241.000         207.000
  -7022985.12349  -5448936.82545  23110215.839    23110215.796    23110226.163
       210.000         156.000
 -11483146.98749  -8924031.50046  21783591.873    21783592.389    21783603.891
       224.000         179.000
   1110945.61549    866671.90747  20517284.121    20517283.754    20517291.155
       239.000         206.000
 -11293396.93949  -8775940.32747  20515990.076    20515990.170    20515997.361
       242.000         207.000
 00  5 15 15 21 29.9970000  0  7G 2G26G 4G 5G24G 7G 9
   1135109.02349    884684.97547  21397242.790    21397242.330    21397251.309
       231.000         194.000
   5325575.16449   4145103.87945  23873123.943    23873123.843    23873136.065
       218.000         162.000
 -13092417.98849 -10185846.12647  19837253.564    19837254.110    19837261.547
       241.000         207.000
  -7139984.80149  -5540105.29045  23087951.398    23087951.416    23087961.784
       209.000         153.000
 -11615199.65949  -9026929.51646  21758462.961    21758463.481    21758474.943
       225.000         180.000
   1130807.97649    882149.03547  20521063.830    20521063.463    20521070.867
       239.000         206.000
 -11361292.82449  -8828846.20947  20503069.898    20503070.008    20503077.183
       242.000         206.000
 00  5 15 15 21 59.9970000  0  7G 2G26G 4G 5G24G 7G 9
   1156029.60349    900986.63947  21401223.924    21401223.444    21401232.449
       232.000         194.000
   5372234.25749   4181461.38646  23882003.098    23882002.947    23882015.164
       218.000         163.000
 -13174163.66849 -10249544.02947  19821697.840    19821698.390    19821705.838
       241.000         207.000
  -7257027.87749  -5631307.58945  23065678.771    23065678.813    23065689.099
       212.000         156.000
 -11747078.27249  -9129691.91146  21733367.195    21733367.708    21733379.130
       225.000         180.000
   1150799.06149    897726.46847  20524868.014    20524867.641    20524875.077
       239.000         206.000
 -11428706.02749  -8881375.97647  20490241.586    20490241.703    20490248.863
       242.000         206.000
 00  5 15 15 22 29.9970000  0  7G 2G26G 4G 5G24G 7G 9
   1177160.69649    917452.33647  21405245.130    21405244.633    21405253.645
       231.000         194.000
   5418836.13949   4217774.28846  23890871.266    23890871.145    23890883.427
       218.000         163.000
 -13255419.38249 -10312860.13647  19806235.355    19806235.908    19806243.354
       241.000         207.000
  -7374125.17749  -5722552.17245  23043395.926    23043395.919    23043406.122
       216.000         158.000
 -11878791.73649  -9232325.61646  21708302.883    21708303.363    21708314.745
       226.000         180.000
   1170906.00749    913394.18847  20528694.239    20528693.883    20528701.340
       239.000         206.000
 -11495646.51649  -8933537.39247  20477503.198    20477503.348    20477510.510
       241.000         206.000
 00  5 15 15 22 59.9970000  0  7G 2G26G 4G 5G24G 7G 9
   1198487.04449    934070.18447  21409303.419    21409302.948    21409311.990
       231.000         193.000
   5465362.48849   4254028.32245  23899725.100    23899724.990    23899737.315
       219.000         162.000
 -13336199.01149 -10375805.27047  19790863.454    19790864.032    19790871.470
       240.000         207.000
  -7491291.41449  -5813850.48145  23021099.923    23021099.883    23021109.996
       217.000         161.000
 -12010352.85749  -9334840.62346  21683267.500    21683267.974    21683279.333
       227.000         180.000
   1191111.78349    929138.91047  20532539.308    20532538.940    20532546.419
       239.000         206.000
 -11562128.51249  -8985341.54247  20464852.060    20464852.240    20464859.416
       242.000         206.000
 00  5 15 15 23 29.9970000  0  7G 2G26G 4G 5G24G 7G 9
   1220032.95649    950859.12247  21413403.509    21413403.063    21413412.116
       231.000         192.000
   5511834.49549   4290240.05246  23908568.606    23908568.490    23908580.879
       217.000         163.000
 -13416476.70149 -10438359.28047  19775587.085    19775587.661    19775595.108
       241.000         207.000
  -7608501.87049  -5905183.23845  22998795.505    22998795.435    22998805.501
       214.000         159.000
 -12141734.86649  -9437216.05646  21658266.182    21658266.694    21658278.020
       226.000         181.000
   1211439.03049    944978.28947  20536407.512    20536407.119    20536414.605
       239.000         206.000
 -11628126.91549  -9036768.86347  20452292.991    20452293.133    20452300.337
       242.000         206.000
 00  5 15 15 23 59.9970000  0  7G 2G26G 4G 5G24G 7G 9
   1241804.73249    967824.05547  21417546.611    21417546.177    21417555.225
       232.000         192.000
   5558255.73949   4326412.19945  23917402.503    23917402.353    23917414.783
       218.000         161.000
 -13496244.61949 -10500516.07247  19760407.727    19760408.303    19760415.750
       241.000         207.000
  -7725749.52649  -5996544.93945  22976483.861    22976483.874    22976493.978
       211.000         159.000
 -12272928.58349  -9539444.78046  21633300.599    21633301.230    21633312.543
       224.000         182.000
   1231892.71949    960916.18847  20540299.727    20540299.350    20540306.850
       239.000         206.000
 -11693634.07949  -9087813.40147  20439827.399    20439827.536    20439834.728
       242.000         206.000
 00  5 15 15 24 29.9970000  0  7G 2G26G 4G 5G24G 7G 9
   1263787.53049    984953.41247  21421729.936    21421729.438    21421738.471
       230.000         192.000
   5604608.20149   4362530.74745  23926223.282    23926223.072    23926235.590
       218.000         162.000
 -13575516.01149 -10562285.95847  19745322.871    19745323.436    19745330.873
       241.000         208.000
  -7843048.31849  -6087946.47445  22954162.498    22954162.572    22954172.701
       210.000         158.000
 -12403946.74949  -9641536.70646  21608368.517    21608369.183    21608380.496
       227.000         182.000
   1252456.51849    976939.88847  20544212.967    20544212.557    20544220.051
       239.000         206.000
 -11758663.50549  -9138485.67347  20427452.690    20427452.827    20427460.023
       242.000         207.000
 00  5 15 15 24 59.9970000  0  7G 2G26G 4G 5G24G 7G 9
   1285989.63449   1002253.67147  21425954.914    21425954.438    21425963.436
       230.000         191.000
   5650897.20749   4398599.84745  23935031.937    23935031.741    23935044.351
       216.000         161.000
 -13654281.17349 -10623661.38047  19730334.369    19730334.907    19730342.334
       240.000         208.000
  -7960389.34049  -6179380.95145  22931833.311    22931833.298    22931843.380
       215.000         161.000
 -12534778.29249  -9743483.22046  21583472.015    21583472.649    21583483.957
       226.000         182.000
   1273136.95849    993054.48347  20548148.403    20548147.974    20548155.452
       240.000         206.000
 -11823205.96249  -9188778.48547  20415170.643    20415170.812    20415177.993
       242.000         207.000
 00  5 15 15 25 29.9970000  0  7G 2G26G 4G 5G24G 7G 9
   1308416.01649   1019728.67947  21430222.596    21430222.107    21430231.091
       231.000         191.000
   5697124.90249   4434621.17045  23943828.946    23943828.782    23943841.368
       217.000         160.000
 -13732533.59049 -10684637.26147  19715443.419    19715443.950    19715451.367
       240.000         208.000
  -8077766.92249  -6270843.94145  22909497.128    22909497.047    22909507.054
       216.000         160.000
 -12665415.74449  -9845278.49946  21558612.468    21558613.065    21558624.353
       227.000         182.000
   1293937.60949   1009262.73947  20552106.638    20552106.235    20552113.719
       240.000         206.000
 -11887255.65149  -9238687.33647  20402982.391    20402982.540    20402989.748
       242.000         207.000
 00  5 15 15 25 59.9960000  0  7G 2G26G 4G 5G24G 7G 9
   1331071.14049   1037381.93347  21434533.868    21434533.333    21434542.320
       230.000         191.000
   5743291.71049   4470595.05845  23952614.436    23952614.233    23952626.869
       216.000         160.000
 -13810264.35149 -10745206.65247  19700651.717    19700652.263    19700659.683
       240.000         208.000
  -8195171.42149  -6362327.90545  22887155.794    22887155.694    22887165.608
       213.000         156.000
 -12795847.18049  -9946913.25346  21533792.105    21533792.695    21533803.916
       226.000         182.000
   1314861.44049   1025566.98447  20556088.367    20556087.950    20556095.413
       239.000         206.000
 -11950804.14349  -9288205.63647  20390889.544    20390889.685    20390896.867
       242.000         208.000
 00  5 15 15 26 29.9960000  0  7G 2G26G 4G 5G24G 7G 9
   1353939.53349   1055201.36647  21438885.618    21438885.106    21438894.103
       230.000         191.000
   5789380.84349   4506508.41845  23961385.101    23961384.874    23961397.583
       216.000         159.000
 -13887493.83449 -10805385.44447  19685955.410    19685955.958    19685963.375
       240.000         208.000
  -8312627.06049  -6453851.69345  22864804.621    22864804.560    22864814.438
       212.000         155.000
 -12926095.72049 -10048405.50346  21509006.597    21509007.128    21509018.262
       229.000         182.000
   1335891.16749   1041953.73547  20560090.216    20560089.801    20560097.266
       239.000         205.000
 -12013871.57149  -9337349.09147  20378888.240    20378888.356    20378895.515
       241.000         208.000
 00  5 15 15 26 59.9960000  0  7G 2G26G 4G 5G24G 7G 9
   1377040.25049   1073201.83047  21443281.602    21443281.087    21443290.110
       230.000         190.000
   5835407.59949   4542373.05145  23970143.904    23970143.666    23970156.400
       217.000         160.000
 -13964198.38449 -10865155.19647  19671359.004    19671359.545    19671366.958
       240.000         208.000
  -8430109.29149  -6545396.22445  22842448.494    22842448.378    22842458.222
       216.000         158.000
 -13056134.63249 -10149734.39746  21484260.993    21484261.462    21484272.549
       228.000         183.000
   1357044.64549   1058436.92147  20564115.633    20564115.205    20564122.653
       239.000         205.000
 -12076434.76149  -9386099.62947  20366982.865    20366982.979    20366990.125
       241.000         208.000
 00  5 15 15 27 29.9960000  0  7G 2G26G 4G 5G24G 7G 9
   1400370.44049   1091381.09947  21447721.264    21447720.756    21447729.783
       230.000         190.000
   5881366.89049   4578185.31846  23978889.874    23978889.639    23978902.394
       220.000         164.000
 -14040379.31749 -10924516.93447  19656862.240    19656862.771    19656870.191
       240.000         208.000
  -8547620.15949  -6636963.07945  22820086.880    22820086.733    22820096.579
       215.000         160.000
 -13185964.02149 -10250900.03346  21459555.199    21459555.651    21459566.698
       227.000         182.000
   1378317.67549   1075013.25947  20568163.783    20568163.374    20568170.793
       239.000         205.000
 -12138495.52649  -9434458.67047  20355173.093    20355173.200    20355180.368
       241.000         208.000
 00  5 15 15 27 59.9960000  0  7G 2G26G 4G 5G24G 7G 9
   1423931.39649   1109740.17347  21452204.861    21452204.318    21452213.377
       230.000         190.000
   5927256.29649   4613943.01545  23987622.489    23987622.272    23987635.096
       217.000         158.000
 -14116033.93749 -10983468.57347  19642465.629    19642466.161    19642473.570
       240.000         208.000
  -8665157.60749  -6728550.66045  22797720.179    22797720.049    22797729.865
       212.000         157.000
 -13315580.37849 -10351899.68446  21434889.883    21434890.373    21434901.404
       226.000         183.000
   1399709.87649   1091682.44747  20572234.622    20572234.217    20572241.615
       239.000         204.000
 -12200051.85549  -9482424.65447  20343459.307    20343459.412    20343466.597
       241.000         208.000
 00  5 15 15 28 29.9960000  0  7G 2G26G 4G 5G24G 7G 9
   1447716.32849   1128273.76247  21456730.997    21456730.491    21456739.616
       229.000         191.000
   5973066.11249   4649638.64445  23996339.903    23996339.758    23996352.628
       215.000         158.000
 -14191168.08349 -11042014.65047  19628168.055    19628168.591    19628175.998
       240.000         208.000
  -8782728.08149  -6820163.95445  22775347.207    22775347.044    22775356.872
       211.000         154.000
 -13444987.96149 -10452736.66446  21410264.300    21410264.815    21410275.827
       227.000         181.000
   1421212.88049   1108437.97347  20576326.575    20576326.142    20576333.534
       238.000         204.000
 -12261109.67449  -9530002.19247  20331840.375    20331840.493    20331847.687
       241.000         208.000
 00  5 15 15 28 59.9960000  0  7G 2G26G 4G 5G24G 7G 9
   1471746.14749   1146998.17447  21461303.813    21461303.298    21461312.467
       230.000         190.000
   6018814.66349   4685286.57245  24005045.761    24005045.579    24005058.548
       215.000         156.000
 -14265759.16449 -11100137.54847  19613973.819    19613974.362    19613981.783
       240.000         208.000
  -8900309.57349  -6911785.84145  22752972.128    22752971.983    22752981.792
       215.000         157.000
 -13574163.07249 -10553392.48546  21385683.063    21385683.513    21385694.488
       228.000         183.000
   1442846.26749   1125295.10847  20580443.289    20580442.873    20580450.246
       238.000         204.000
 -12321646.70749  -9577173.91847  20320320.600    20320320.708    20320327.857
       242.000         208.000
 00  5 15 15 29 29.9960000  0  7G 2G26G 4G 5G24G 7G 9
   1496012.59649   1165906.98447  21465921.633    21465921.124    21465930.336
       229.000         190.000
   6064490.80649   4720878.12745  24013737.871    24013737.661    24013750.644
       214.000         156.000
 -14339814.29349 -11157842.82447  19599881.591    19599882.126    19599889.548
       240.000         208.000
  -9017909.59749  -7003422.17345  22730593.556    22730593.406    22730603.146
       216.000         158.000
 -13703111.72649 -10653871.84746  21361144.842    21361145.303    21361156.248
       228.000         183.000
   1464600.27049   1142246.22847  20584582.938    20584582.538    20584589.932
       238.000         204.000
 -12381670.30649  -9623945.55547  20308898.494    20308898.598    20308905.767
       241.000         208.000
 00  5 15 15 29 59.9960000  0  7G 2G26G 4G 5G24G 7G 9
   1520519.05049   1185002.80847  21470585.115    21470584.619    21470593.860
       229.000         189.000
   6110094.70449   4756413.35745  24022416.129    24022415.965    24022429.030
       214.000         155.000
 -14413328.95349 -11215126.95347  19585892.185    19585892.738    19585900.149
       240.000         208.000
  -9135524.25549  -7095069.90045  22708212.153    22708212.030    22708221.733
       213.000         159.000
 -13831827.99949 -10754170.13346  21336650.944    21336651.318    21336662.223
       228.000         184.000
   1486476.70549   1159292.75547  20588745.890    20588745.506    20588752.916
       238.000         204.000
 -12441176.19449  -9670313.78747  20297574.889    20297575.012    20297582.155
       241.000         208.000
 00  5 15 15 30 29.9960000  0  7G 2G26G 4G 5G24G 7G 9
   1545272.55649   1204291.13447  21475295.635    21475295.127    21475304.400
       229.000         189.000
   6155630.76949   4791895.71645  24031081.555    24031081.384    24031094.548
       215.000         156.000
 -14486294.58549 -11271983.27347  19572007.303    19572007.824    19572015.233
       240.000         208.000
  -9253145.48649  -7186722.74645  22685829.410    22685829.370    22685839.112
       214.000         158.000
 -13960302.23549 -10854279.81546  21312203.020    21312203.403    21312214.259
       228.000         184.000
   1508481.26849   1176439.11747  20592933.294    20592932.875    20592940.301
       238.000         204.000
 -12500156.48749  -9716272.45647  20286351.316    20286351.417    20286358.577
       241.000         208.000
 00  5 15 15 30 59.9960000  0  7G 2G26G 4G 5G24G 7G 9
   1570268.07849   1223768.05047  21480052.228    21480051.714    21480061.003
       230.000         189.000
   6201091.16749   4827319.11745  24039732.548    24039732.410    24039745.607
       213.000         155.000
 -14558714.89749 -11328414.66047  19558226.183    19558226.695    19558234.088
       240.000         208.000
  -9370777.42749  -7278383.95045  22663444.756    22663444.723    22663454.413
       218.000         158.000
 -14088536.87049 -10954202.79446  21287800.660    21287801.076    21287811.921
       228.000         185.000
   1530607.74549   1193680.48147  20597143.884    20597143.449    20597150.876
       238.000         204.000
 -12558615.12549  -9761824.64347  20275227.022    20275227.122    20275234.279
       242.000         209.000
 00  5 15 15 31 29.9960000  0  7G 2G26G 4G 5G24G 7G 9
   1595524.79249   1243448.48947  21484858.475    21484857.962    21484867.298
       228.000         189.000
   6246492.33649   4862696.34245  24048372.337    24048372.169    24048385.475
       213.000         154.000
 -14630569.59049 -11384405.31447  19544552.688    19544553.192    19544560.587
       240.000         208.000
  -9488400.04649  -7370037.92445  22641061.936    22641061.842    22641071.505
       215.000         156.000
 -14216510.24549 -11053922.18646  21263448.047    21263448.472    21263459.272
       229.000         185.000
   1552873.94849   1211030.71647  20601381.071    20601380.610    20601388.044
       239.000         205.000
 -12616531.97349  -9806954.65747  20264205.830    20264205.926    20264213.074
       241.000         209.000
 00  5 15 15 31 59.9960000  0  7G 2G26G 4G 5G24G 7G 9
   1621034.12049   1263325.76547  21489712.791    21489712.285    21489721.658
       229.000         189.000
   6291822.78249   4898018.47645  24056998.703    24056998.490    24057011.849
       214.000         154.000
 -14701865.97749 -11439960.91847  19530985.412    19530985.934    19530993.327
       240.000         208.000
  -9606021.36449  -7461690.83045  22618679.164    22618679.169    22618688.821
       213.000         156.000
 -14344228.31149 -11153442.65546  21239144.067    21239144.457    21239155.224
       229.000         185.000
   1575269.79749   1228481.98147  20605642.906    20605642.447    20605649.891
       239.000         205.000
 -12673915.12249  -9851668.80547  20253286.238    20253286.297    20253293.428
       242.000         209.000
 00  5 15 15 32 29.9960000  0  7G 2G26G 4G 5G24G 7G 9
   1646787.36649   1283393.10747  21494613.586    21494613.059    21494622.472
       229.000         190.000
   6337071.17949   4933276.65445  24065609.375    24065609.201    24065622.613
       213.000         153.000
 -14772611.19849 -11495087.04147  19517523.071    19517523.568    19517530.947
       240.000         208.000
  -9723648.84649  -7553348.52645  22596295.293    22596295.360    22596304.974
       214.000         159.000
 -14471697.04549 -11252768.82846  21214887.520    21214887.881    21214898.615
       228.000         186.000
   1597785.50149   1246026.64647  20609927.534    20609927.095    20609934.539
       238.000         205.000
 -12730771.84949  -9895972.74947  20242466.763    20242466.833    20242473.957
       242.000         209.000
 00  5 15 15 32 59.9960000  0  7G 2G26G 4G 5G24G 7G 9
   1672798.78049   1303661.62347  21499563.515    21499562.968    21499572.403
       229.000         190.000
   6382248.95649   4968479.79145  24074206.700    24074206.441    24074219.940
       212.000         151.000
 -14842789.99149 -11549771.79347  19504168.482    19504168.974    19504176.357
       240.000         208.000
  -9841267.38449  -7644999.27445  22573913.341    22573913.299    22573922.904
       217.000         160.000
 -14598899.73249 -11351887.69146  21190681.564    21190681.926    21190692.643
       229.000         186.000
   1620433.75249   1263674.59047  20614237.402    20614236.952    20614244.414
       238.000         205.000
 -12787087.19349  -9939854.84247  20231750.353    20231750.399    20231757.506
       242.000         209.000
 00  5 15 15 33 29.9960000  0  7G 2G26G 4G 5G24G 7G 9
   1699074.97149   1324136.45547  21504563.798    21504563.262    21504572.695
       229.000         189.000
   6427359.84649   5003630.80645  24082791.260    24082790.957    24082804.544
       212.000         151.000
 -14912394.77649 -11604009.26847  19490923.137    19490923.621    19490930.985
       239.000         208.000
  -9958869.40049  -7736637.15645  22551534.343    22551534.350    22551543.948
       216.000         160.000
 -14725827.21049 -11450792.11046  21166528.030    21166528.356    21166539.044
       229.000         187.000
   1643220.00749   1281430.06547  20618573.479    20618573.064    20618580.562
       239.000         205.000
 -12842853.61049  -9983309.19747  20221138.407    20221138.434    20221145.525
       242.000         209.000
 00  5 15 15 33 59.9960000  0  7G 2G26G 4G 5G24G 7G 9
   1725611.94949   1344814.49947  21509613.727    21509613.178    21509622.602
       229.000         189.000
   6472397.45949   5038724.76445  24091361.917    24091361.600    24091375.203
       211.000         150.000
 -14981427.95149 -11657801.33347  19477786.554    19477787.033    19477794.397
       239.000         207.000
 -10076457.88549  -7828264.47845  22529157.963    22529157.927    22529167.575
       217.000         162.000
 -14852480.83849 -11549483.13446  21142426.541    21142426.885    21142437.565
       229.000         187.000
   1666139.01849   1299288.99247  20622934.896    20622934.451    20622941.952
       239.000         205.000
 -12898074.12949 -10026338.18047  20210630.298    20210630.312    20210637.448
       241.000         209.000
 00  5 15 15 34 29.9960000  0  7G 2G26G 4G 5G24G 7G 9
   1752415.38749   1365700.17947  21514714.328    21514713.789    21514723.228
       229.000         188.000
   6517364.45449   5073763.64845  24099918.910    24099918.703    24099932.432
       211.000         149.000
 -15049882.83949 -11711142.78147  19464759.981    19464760.475    19464767.847
       239.000         207.000
 -10194026.35649  -7919876.21045  22506785.396    22506785.364    22506794.987
       216.000         162.000
 -14978852.54149 -11647954.48047  21118378.678    21118379.056    21118389.724
       231.000         188.000
   1689194.97249   1317254.62747  20627322.359    20627321.897    20627329.421
       239.000         205.000
 -12952742.32449 -10068936.77447  20200227.236    20200227.293    20200234.438
       241.000         208.000
 00  5 15 15 34 59.9960000  0  7G 2G26G 4G 5G24G 7G 9
   1779481.66349   1386790.66047  21519864.999    21519864.436    21519873.877
       229.000         188.000
   6562254.43049   5108742.53145  24108461.469    24108461.251    24108474.989
       212.000         148.000
 -15117762.14349 -11764035.72047  19451842.963    19451843.446    19451850.822
       239.000         207.000
 -10311577.51549  -8011474.42545  22484416.147    22484416.066    22484425.695
       216.000         160.000
 -15104943.31149 -11746206.92347  21094384.319    21094384.690    21094395.326
       232.000         189.000
   1712383.04349   1335323.21147  20631734.947    20631734.488    20631742.036
       239.000         205.000
 -13006861.27949 -10111107.39447  20189928.707    20189928.800    20189935.942
       241.000         209.000
 00  5 15 15 35 29.9960000  0  7G 2G26G 4G 5G24G 7G 9
   1806813.16349   1408087.81047  21525066.106    21525065.538    21525075.001
       229.000         188.000
   6607066.94049   5143661.06345  24116989.225    24116989.001    24117002.806
       211.000         148.000
 -15185062.34749 -11816477.41847  19439036.127    19439036.621    19439043.994
       239.000         207.000
 -10429108.23749  -8103056.74845  22462050.776    22462050.709    22462060.258
       216.000         158.000
 -15230748.38949 -11844236.75347  21070444.308    21070444.694    21070455.298
       232.000         189.000
   1735704.15049   1353495.45147  20636172.791    20636172.381    20636179.986
       239.000         205.000
 -13060427.64449 -10152847.42447  20179735.376    20179735.482    20179742.617
       241.000         209.000
 00  5 15 15 35 59.9960000  0  7G 2G26G 4G 5G24G 7G 9
   1834408.52949   1429590.57146  21530317.434    21530316.851    21530326.322
       229.000         187.000
   6651798.09049   5178516.20445  24125501.550    24125501.324    24125515.185
       210.000         147.000
 -15251783.68449 -11868468.05247  19426339.457    19426339.948    19426347.333
       238.000         207.000
 -10546618.69149  -8194623.27545  22439689.240    22439689.158    22439698.666
       217.000         160.000
 -15356266.58349 -11942043.03847  21046558.883    21046559.297    21046569.857
       231.000         189.000
   1759155.85549   1371769.45547  20640635.553    20640635.124    20640642.760
       239.000         206.000
 -13113441.99149 -10194157.30947  20169647.093    20169647.185    20169654.331
       241.000         209.000
 00  5 15 15 36 29.9960000  0  7G 2G26G 4G 5G24G 7G 9
   1862280.90749   1451309.18147  21535621.517    21535620.910    21535630.365
       230.000         189.000
   6696458.37249   5213316.12245  24134000.257    24134000.113    24134014.082
       209.000         145.000
 -15317911.73449 -11919996.38347  19413755.651    19413756.184    19413763.561
       238.000         207.000
 -10664094.78349  -8286163.02846  22417334.235    22417334.167    22417343.638
       218.000         163.000
 -15481482.07449 -12039613.44647  21022731.047    21022731.495    21022741.998
       232.000         189.000
   1782749.98049   1390154.43847  20645125.409    20645124.983    20645132.641
       239.000         205.000
 -13165890.30749 -10235026.13647  20159666.528    20159666.602    20159673.754
       241.000         209.000
 00  5 15 15 36 59.9960000  0  7G 2G26G 4G 5G24G 7G 9
   1890431.44349   1473244.54547  21540978.534    21540977.909    21540987.364
       229.000         188.000
   6741046.29549   5248059.62845  24142485.195    24142485.015    24142499.183
       209.000         146.000
 -15383444.51949 -11971060.87447  19401285.166    19401285.684    19401293.061
       238.000         207.000
 -10781534.21649  -8377674.20246  22394986.218    22394986.131    22394995.599
       217.000         164.000
 -15606391.18749 -12136945.12347  20998961.553    20998961.976    20998972.450
       233.000         190.000
   1806486.59849   1408650.45247  20649642.438    20649641.975    20649649.630
       239.000         205.000
 -13217770.68649 -10275452.41647  20149793.988    20149794.094    20149801.266
       241.000         209.000
 00  5 15 15 37 29.9960000  0  7G 2G26G 4G 5G24G 7G 9
   1918861.38249   1495397.62547  21546388.706    21546388.072    21546397.537
       229.000         188.000
   6785560.46549   5282745.65345  24150956.242    24150955.988    24150970.196
       209.000         144.000
 -15448379.69049 -12021659.68847  19388928.423    19388928.924    19388936.287
       239.000         207.000
 -10898934.66049  -8469155.00446  22372645.545    22372645.520    22372654.995
       216.000         164.000
 -15730989.98849 -12234035.00047  20975251.118    20975251.532    20975261.966
       234.000         191.000
   1830365.66749   1427257.46347  20654186.555    20654186.065    20654193.727
       239.000         205.000
 -13269081.01049 -10315434.50647  20140030.020    20140030.091    20140037.233
       241.000         209.000
 00  5 15 15 37 59.9960000  0  7G 2G26G 4G 5G24G 7G 9
   1947561.38149   1517761.13647  21551850.247    21551849.601    21551859.100
       229.000         188.000
   6829989.10049   5317365.04545  24159411.140    24159410.685    24159424.968
       208.000         145.000
 -15512725.23349 -12071799.05847  19376683.874    19376684.387    19376691.724
       239.000         208.000
 -11016304.46349  -8560611.92846  22350310.783    22350310.738    22350320.218
       217.000         163.000
 -15855284.93849 -12330888.11147  20951598.515    20951598.909    20951609.328
       233.000         192.000
   1854376.93349   1445967.48647  20658755.794    20658755.298    20658762.986
       238.000         204.000
 -13319829.71749 -10354978.96847  20130372.816    20130372.923    20130380.096
       241.000         209.000
 00  5 15 15 38 29.9960000  0  7G 2G26G 4G 5G24G 7G 9
   1976532.32549   1540335.78146  21557363.300    21557362.678    21557372.213
       228.000         187.000
   6874330.27949   5351916.27145  24167849.325    24167848.837    24167863.084
       208.000         145.000
 -15576479.26049 -12121477.50647  19364551.888    19364552.385    19364559.726
       239.000         208.000
 -11133641.58949  -8652043.39346  22327982.206    22327982.149    22327991.662
       218.000         164.000
 -15979272.81749 -12427501.94547  20928004.349    20928004.722    20928015.138
       234.000         192.000
   1878520.02149   1464780.22747  20663350.097    20663349.610    20663357.322
       238.000         204.000
 -13370015.30049 -10394084.63747  20120822.844    20120822.936    20120830.103
       242.000         210.000
 00  5 15 15 38 59.9960000  0  7G 2G26G 4G 5G24G 7G 9
   2005770.81249   1563118.90246  21562927.257    21562926.680    21562936.232
       229.000         187.000
   6918578.08249   5386394.70345  24176269.575    24176269.142    24176283.513
       209.000         146.000
 -15639644.45049 -12170697.11647  19352531.936    19352532.442    19352539.775
       239.000         208.000
 -11250948.42449  -8743451.26846  22305659.488    22305659.394    22305668.833
       220.000         165.000
 -16102954.70349 -12523877.33747  20904468.375    20904468.759    20904479.171
       234.000         192.000
   1902790.30349   1483692.08147  20667968.598    20667968.123    20667975.856
       238.000         204.000
 -13419640.47749 -10432753.61647  20111379.473    20111379.585    20111386.758
       242.000         210.000
 00  5 15 15 39 29.9960000  0  7G 2G26G 4G 5G24G 7G 9
   2035267.60149   1586103.29646  21568540.427    21568539.827    21568549.416
       227.000         187.000
   6962720.40949   5420790.98845  24184669.785    24184669.416    24184683.787
       209.000         146.000
 -15702229.06749 -12219464.33347  19340622.453    19340622.974    19340630.322
       239.000         207.000
 -11368233.17949  -8834841.92246  22283340.921    22283340.804    22283350.221
       220.000         166.000
 -16226337.17749 -12620019.42247  20880989.379    20880989.770    20881000.191
       234.000         193.000
   1927177.13649   1502694.75847  20672609.319    20672608.834    20672616.571
       238.000         204.000
 -13468714.08649 -10470992.81047  20102041.116    20102041.217    20102048.349
       242.000         210.000
 00  5 15 15 39 59.9960000  0  7G 2G26G 4G 5G24G 7G 9
   2065041.04849   1609303.26646  21574206.209    21574205.611    21574215.244
       228.000         186.000
   7006773.31849   5455117.57145  24193053.035    24193052.633    24193067.114
       211.000         147.000
 -15764213.75049 -12267764.07647  19328827.162    19328827.675    19328834.993
       239.000         208.000
 -11485476.31849  -8926200.16046  22261030.281    22261030.150    22261039.538
       220.000         168.000
 -16349399.22149 -12715911.83347  20857571.387    20857571.782    20857582.174
       234.000         193.000
   1951697.96449   1521801.84347  20677275.517    20677275.051    20677282.760
       238.000         203.000
 -13517216.86249 -10508787.19547  20092811.360    20092811.450    20092818.607
       242.000         210.000
 00  5 15 15 40 29.9960000  0  7G 2G26G 4G 5G24G 7G 9
   2095078.13849   1632708.67546  21579922.167    21579921.573    21579931.224
       227.000         185.000
   7050721.32149   5489362.40345  24201416.409    24201415.978    24201430.505
       211.000         148.000
 -15825610.30549 -12315605.53247  19317143.780    19317144.279    19317151.602
       239.000         207.000
 -11602689.58749  -9017535.12446  22238725.292    22238725.171    22238734.529
       219.000         166.000
 -16472151.19249 -12811562.62147  20834212.374    20834212.776    20834223.179
       233.000         194.000
   1976338.88949   1541002.50847  20681964.587    20681964.101    20681971.807
       238.000         203.000
 -13565160.99849 -10546146.27247  20083687.914    20083687.984    20083695.161
       242.000         210.000
 00  5 15 15 40 59.9960000  0  7G 2G26G 4G 5G24G 7G 9
   2125384.69449   1656324.05746  21585689.360    21585688.784    21585698.484
       226.000         185.000
   7094567.53149   5523527.93045  24209760.397    24209759.944    24209774.474
       213.000         148.000
 -15886412.23049 -12362983.64547  19305573.576    19305574.051    19305581.368
       239.000         208.000
 -11719866.12049  -9108841.45046  22216427.205    22216427.158    22216436.543
       217.000         166.000
 -16594584.68749 -12906965.24647  20810914.000    20810914.373    20810924.782
       235.000         194.000
   2001104.38749   1560300.24147  20686677.313    20686676.844    20686684.577
       237.000         203.000
 -13612540.10149 -10583065.06947  20074671.985    20074672.069    20074679.208
       242.000         210.000
 00  5 15 15 41 29.9960000  0  7G 2G26G 4G 5G24G 7G 9
   2155963.11749   1680151.28246  21591508.315    21591507.748    21591517.494
       226.000         185.000
   7138311.86949   5557614.06045  24218085.109    24218084.525    24218099.044
       213.000         149.000
 -15946616.19449 -12409895.81847  19294117.131    19294117.609    19294124.914
       239.000         207.000
 -11837002.43449  -9200116.43846  22194136.867    22194136.839    22194146.179
       221.000         168.000
 -16716695.11449 -13002116.14147  20787677.114    20787677.474    20787687.855
       235.000         195.000
   2025995.82449   1579696.10447  20691414.021    20691413.556    20691421.299
       237.000         202.000
 -13659351.17349 -10619541.24447  20065764.115    20065764.215    20065771.363
       241.000         209.000
 00  5 15 15 41 59.9960000  0  7G 2G26G 4G 5G24G 7G 9
   2186799.44649   1704179.46646  21597376.304    21597375.769    21597385.574
       227.000         185.000
   7181937.90449   5591608.02045  24226387.252    24226386.550    24226401.141
       212.000         148.000
 -16006235.16149 -12456352.14947  19282772.025    19282772.485    19282779.773
       239.000         208.000
 -11954111.01049  -9291369.83146  22171851.956    22171851.813    22171861.086
       223.000         169.000
 -16838493.45949 -13097023.84847  20764499.571    20764499.936    20764510.332
       234.000         195.000
   2050998.15049   1599178.38047  20696171.839    20696171.370    20696179.136
       237.000         202.000
 -13705607.32949 -10655585.01747  20056961.871    20056961.974    20056969.124
       242.000         209.000
 00  5 15 15 42 29.9960000  0  7G 2G26G 4G 5G24G 7G 9
   2217902.72549   1728415.66546  21603295.184    21603294.598    21603304.449
       225.000         184.000
   7225452.37649   5625515.05445  24234668.135    24234667.390    24234681.992
       211.000         147.000
 -16065259.18849 -12502344.88747  19271540.093    19271540.578    19271547.865
       239.000         208.000
 -12071181.59749  -9382593.61546  22149574.152    22149574.007    22149583.245
       224.000         169.000
 -16959968.09549 -13191679.32047  20741383.632    20741383.999    20741394.394
       234.000         195.000
   2076119.61349   1618753.48947  20700952.341    20700951.881    20700959.626
       237.000         202.000
 -13751299.19049 -10691189.07547  20048266.988    20048267.103    20048274.250
       241.000         209.000
 00  5 15 15 42 59.9960000  0  7G 2G26G 4G 5G24G 7G 9
   2249274.84849   1752861.34946  21609265.150    21609264.590    21609274.477
       226.000         183.000
   7268854.57149   5659334.58245  24242927.532    24242926.812    24242941.546
       210.000         145.000
 -16123685.55349 -12547871.92047  19260421.925    19260422.425    19260429.686
       239.000         208.000
 -12188211.12549  -9473785.40546  22127304.083    22127303.967    22127313.251
       221.000         169.000
 -17081114.74249 -13286079.22147  20718330.125    20718330.486    20718340.873
       234.000         194.000
   2101360.94249   1638421.99647  20705755.651    20705755.185    20705762.935
       236.000         201.000
 -13796424.31349 -10726351.52147  20039679.968    20039680.081    20039687.221
       241.000         209.000
 00  5 15 15 43 29.9960000  0  7G 2G26G 4G 5G24G 7G 9
   2280912.37949   1777513.84646  21615285.688    21615285.095    21615295.005
       226.000         183.000
   7312138.65949   5693062.08545  24251164.429    24251163.812    24251178.574
       207.000         144.000
 -16181516.67549 -12592935.12347  19249417.028    19249417.508    19249424.782
       239.000         208.000
 -12305201.78149  -9564946.90346  22105041.411    22105041.336    22105050.627
       222.000         170.000
 -17201933.91649 -13380223.94047  20695338.917    20695339.285    20695349.666
       234.000         194.000
   2126717.80349   1658180.53547  20710580.893    20710580.459    20710588.219
       236.000         201.000
 -13840985.11349 -10761074.23447  20031200.340    20031200.458    20031207.600
       242.000         209.000
 00  5 15 15 43 59.9960000  0  7G 2G26G 4G 5G24G 7G 9
   2312809.89449   1802368.93246  21621355.673    21621355.093    21621365.002
       226.000         183.000
   7355296.94449   5726691.56545  24259377.394    24259376.877    24259391.702
       206.000         143.000
 -16238757.16749 -12637538.09747  19238524.529    19238525.013    19238532.287
       239.000         207.000
 -12422157.50949  -9656081.18546  22082785.409    22082785.356    22082794.645
       221.000         168.000
 -17322428.61249 -13474115.82847  20672409.495    20672409.836    20672420.203
       235.000         195.000
   2152183.78249   1678024.09447  20715426.905    20715426.494    20715434.298
       236.000         202.000
 -13884986.47749 -10795361.02747  20022827.163    20022827.274    20022834.434
       241.000         208.000
 00  5 15 15 44 29.9960000  0  7G 2G26G 4G 5G24G 7G 9
   2344973.05849   1827431.00446  21627476.204    21627475.630    21627485.583
       225.000         183.000
   7398332.41749   5760225.36445  24267566.927    24267566.415    24267581.477
       204.000         141.000
 -16295400.77249 -12681675.96847  19227745.602    19227746.073    19227753.350
       239.000         207.000
 -12539071.42449  -9747182.87646  22060537.367    22060537.342    22060546.603
       223.000         170.000
 -17442590.53049 -13567748.40547  20649543.406    20649543.722    20649554.046
       236.000         195.000
   2177763.46949   1697956.25647  20720294.602    20720294.185    20720302.011
       236.000         201.000
 -13928422.30649 -10829207.14847  20014561.646    20014561.732    20014568.872
       241.000         209.000
 00  5 15 15 44 59.9960000  0  7G 2G26G 4G 5G24G 7G 9
   2377395.22249   1852694.89146  21633646.084    21633645.469    21633655.444
       225.000         183.000
   7441236.01949   5793656.41045  24275731.410    24275730.954    24275746.236
       204.000         141.000
 -16351453.26049 -12725353.22647  19217079.179    19217079.654    19217086.903
       238.000         207.000
 -12655949.29049  -9838256.49946  22038296.221    22038296.174    22038305.434
       221.000         169.000
 -17562424.26049 -13661125.25047  20626739.739    20626740.073    20626750.364
       235.000         195.000
   2203449.15249   1717971.01647  20725182.433    20725182.028    20725189.886
       236.000         201.000
 -13971298.86449 -10862617.47047  20006402.567    20006402.627    20006409.749
       241.000         209.000
 00  5 15 15 45 29.9960000  0  6G 2G 4G 5G24G 7G 9
   2410071.87249   1878157.06646  21639864.393    21639863.731    21639873.687
       226.000         182.000
 -16406918.48549 -12768572.87647  19206524.518    19206524.961    19206532.201
       239.000         207.000
 -12772794.08749  -9929304.33946  22016061.254    22016061.267    22016070.542
       220.000         168.000
 -17681931.06749 -13754247.35547  20603998.272    20603998.621    20604008.890
       235.000         195.000
   2229235.46349   1738064.17947  20730089.470    20730089.043    20730096.915
       237.000         202.000
 -14013619.90449 -10895594.92547  19998349.184    19998349.220    19998356.303
       242.000         208.000
 00  5 15 15 45 59.9960000  0  6G 2G 4G 5G24G 7G 9
   2443002.39249   1903817.07046  21646130.940    21646130.290    21646140.254
       225.000         182.000
 -16461796.06449 -12811334.62447  19196081.620    19196082.094    19196089.344
       238.000         206.000
 -12889604.90749 -10020325.71946  21993832.854    21993832.853    21993842.106
       221.000         168.000
 -17801109.18049 -13847113.34447  20581319.423    20581319.736    20581329.972
       236.000         195.000
   2255120.86649   1758234.56147  20735015.371    20735014.919    20735022.775
       236.000         201.000
 -14055385.57749 -10928139.62647  19990401.454    19990401.506    19990408.578
       241.000         209.000
 00  5 15 15 46 29.9960000  0  6G 2G 4G 5G24G 7G 9
   2476192.57849   1929679.40946  21652446.946    21652446.280    21652456.262
       226.000         183.000
 -16516079.63549 -12853633.51047  19185751.811    19185752.274    19185759.510
       240.000         206.000
 -13006374.70549 -10111315.11946  21971612.282    21971612.250    21971621.490
       221.000         170.000
 -17919950.49949 -13939716.88947  20558704.634    20558704.935    20558715.137
       236.000         195.000
   2281110.20549   1778485.92947  20739961.048    20739960.578    20739968.428
       236.000         200.000
 -14096589.64749 -10960246.71647  19982560.599    19982560.650    19982567.722
       241.000         208.000
 00  5 15 15 46 59.9960000  0  6G 2G 4G 5G24G 7G 9
   2509641.09049   1955743.03346  21658812.128    21658811.452    21658821.436
       226.000         182.000
 -16569769.86549 -12895470.05047  19175534.941    19175535.386    19175542.592
       240.000         206.000
 -13123103.51449 -10202272.58246  21949399.442    21949399.451    21949408.710
       223.000         171.000
 -18038453.65049 -14032056.92747  20536154.245    20536154.498    20536164.658
       237.000         195.000
   2307201.23749   1798816.54047  20744926.127    20744925.614    20744933.429
       236.000         200.000
 -14137232.87349 -10991916.78347  19974826.485    19974826.528    19974833.581
       242.000         209.000
 00  5 15 15 47 29.9960000  0  6G 2G 4G 5G24G 7G 9
   2543335.41049   1981998.20246  21665224.066    21665223.369    21665233.403
       225.000         182.000
 -16622878.30549 -12936853.25047  19165428.745    19165429.171    19165436.369
       239.000         206.000
 -13239802.12449 -10293206.52546  21927192.458    21927192.439    21927201.641
       223.000         170.000
 -18156628.52749 -14124141.17347  20513666.286    20513666.520    20513676.634
       237.000         196.000
   2333380.72949   1819216.07647  20749907.996    20749907.463    20749915.261
       236.000         200.000
 -14177327.19649 -11023159.13247  19967196.785    19967196.852    19967203.905
       241.000         208.000
 00  5 15 15 47 59.9960000  0  6G 2G 4G 5G24G 7G 9
   2577287.24249   2008454.02346  21671684.985    21671684.282    21671694.362
       225.000         181.000
 -16675392.97449 -12977773.76647  19155435.535    19155435.958    19155443.156
       239.000         206.000
 -13356457.89549 -10384107.05446  21904993.604    21904993.545    21905002.774
       221.000         169.000
 -18274460.99949 -14215958.61347  20491243.485    20491243.704    20491253.754
       237.000         196.000
   2359659.23349   1839692.77147  20754908.679    20754908.151    20754915.933
       235.000         200.000
 -14216860.72649 -11053964.49747  19959673.838    19959673.889    19959680.945
       241.000         209.000
 00  5 15 15 48 29.9960000  0  6G 2G 4G 5G24G 7G 9
   2611505.69149   2035117.59446  21678196.728    21678195.956    21678206.075
       224.000         181.000
 -16727303.74749 -13018223.71647  19145557.264    19145557.673    19145564.851
       239.000         206.000
 -13473060.07749 -10474965.85646  21882805.038    21882804.867    21882814.041
       223.000         171.000
 -18391939.02149 -14307499.85247  20468888.152    20468888.349    20468898.353
       237.000         196.000
   2386045.29749   1860253.27347  20759929.822    20759929.304    20759937.089
       235.000         199.000
 -14255823.66449 -11084325.24547  19952259.468    19952259.504    19952266.575
       241.000         208.000
 00  5 15 15 48 59.9960000  0  6G 2G 4G 5G24G 7G 9
   2645981.32449   2061981.56446  21684757.317    21684756.563    21684766.733
       224.000         181.000
 -16778619.75749 -13058210.21547  19135792.146    19135792.577    19135799.727
       239.000         206.000
 -13589616.93149 -10565789.33246  21860624.996    21860624.802    21860633.950
       220.000         171.000
 -18509069.89249 -14398770.59147  20446598.850    20446599.055    20446608.999
       237.000         196.000
   2412528.37649   1880889.36747  20764969.433    20764968.920    20764976.692
       235.000         199.000
 -14294225.22449 -11114248.56147  19944951.940    19944951.952    19944959.027
       242.000         209.000
 00  5 15 15 49 29.9960000  0  6G 2G 4G 5G24G 7G 9
   2680702.47849   2089036.84046  21691364.659    21691363.914    21691374.111
       224.000         181.000
 -16829351.85249 -13097741.71447  19126138.138    19126138.563    19126145.731
       240.000         206.000
 -13706138.38049 -10656585.20646  21838451.559    21838451.420    21838460.602
       222.000         172.000
 -18625862.50449 -14489777.74947  20424373.953    20424374.118    20424384.017
       237.000         196.000
   2439096.06049   1901591.38847  20770025.171    20770024.646    20770032.410
       236.000         199.000
 -14332076.58749 -11143743.14747  19937749.116    19937749.114    19937756.165
       242.000         209.000
 00  5 15 15 49 59.9960000  0  6G 2G 4G 5G24G 7G 9
   2715668.12949   2116282.64446  21698018.526    21698017.791    21698028.000
       225.000         180.000
 -16879500.27349 -13136818.40447  19116595.247    19116595.655    19116602.810
       240.000         206.000
 -13822624.04449 -10747353.22246  21816285.039    21816284.924    21816294.059
       221.000         172.000
 -18742315.44249 -14580520.23247  20402213.635    20402213.819    20402223.663
       237.000         196.000
   2465746.59649   1922357.96847  20775096.695    20775096.147    20775103.887
       235.000         199.000
 -14369378.20149 -11172809.36147  19930650.845    19930650.871    19930657.922
       241.000         209.000
 00  5 15 15 50 29.9950000  0  6G 2G 4G 5G24G 7G 9
   2750884.74849   2143724.01346  21704720.141    21704719.422    21704729.657
       224.000         179.000
 -16929055.22449 -13175432.64447  19107165.225    19107165.653    19107172.822
       239.000         206.000
 -13939061.10149 -10838083.33046  21794127.738    21794127.630    21794136.764
       222.000         173.000
 -18858414.45149 -14670986.92747  20380120.665    20380120.867    20380130.665
       237.000         196.000
   2492485.98949   1943193.79547  20780185.110    20780184.547    20780192.272
       235.000         199.000
 -14406120.91749 -11201440.06847  19923658.964    19923658.970    19923666.043
       241.000         209.000
 00  5 15 15 50 59.9950000  0  6G 2G 4G 5G24G 7G 9
   2786360.07249   2171366.96246  21711470.957    21711470.256    21711480.533
       224.000         179.000
 -16978014.25849 -13213582.54047  19097848.640    19097849.060    19097856.210
       240.000         206.000
 -14055450.14749 -10928776.04546  21771979.648    21771979.486    21771988.563
       223.000         174.000
 -18974159.45649 -14761177.77747  20358095.089    20358095.271    20358105.031
       236.000         196.000
   2519320.56449   1964103.78247  20785291.587    20785291.042    20785298.790
       234.000         199.000
 -14442301.35149 -11229632.63647  19916774.043    19916774.068    19916781.156
       241.000         208.000
 00  5 15 15 51 29.9950000  0  6G 2G 4G 5G24G 7G 9
   2822083.73749   2199203.42446  21718269.116    21718268.375    21718278.669
       224.000         178.000
 -17026384.06649 -13251273.29247  19088644.199    19088644.586    19088651.737
       239.000         206.000
 -14171794.75749 -11019434.12946  21749839.918    21749839.816    21749848.883
       222.000         173.000
 -19089553.00849 -14851094.76547  20336136.304    20336136.549    20336146.263
       236.000         196.000
   2546239.59549   1985079.57947  20790414.107    20790413.587    20790421.376
       235.000         198.000
 -14477927.12649 -11257393.00547  19909994.713    19909994.732    19910001.814
       242.000         209.000
 00  5 15 15 51 59.9950000  0  6G 2G 4G 5G24G 7G 9
   2858052.34249   2227230.75346  21725113.781    21725113.066    21725123.422
       223.000         177.000
 -17074167.66949 -13288507.26447  19079551.271    19079551.670    19079558.807
       239.000         206.000
 -14288096.88749 -11110059.11646  21727708.313    21727708.214    21727717.278
       223.000         175.000
 -19204595.99949 -14940738.59147  20314244.279    20314244.531    20314254.223
       237.000         196.000
   2573238.91049   2006117.93947  20795551.982    20795551.440    20795559.253
       235.000         199.000
 -14513001.35849 -11284723.59447  19903320.333    19903320.338    19903327.410
       242.000         208.000
 00  5 15 15 52 29.9950000  0  6G 2G 4G 5G24G 7G 9
   2894267.69849   2255450.34846  21732005.473    21732004.735    21732015.117
       223.000         177.000
 -17121362.55749 -13325282.49747  19070570.372    19070570.782    19070577.919
       239.000         206.000
 -14404353.12449 -11200648.32346  21705585.444    21705585.350    21705594.413
       223.000         176.000
 -19319284.03449 -15030105.83147  20292419.820    20292420.069    20292429.722
       237.000         197.000
   2600319.72649   2027219.80047  20800705.375    20800704.801    20800712.641
       235.000         198.000
 -14547521.82949 -11311622.69047  19896751.354    19896751.351    19896758.390
       242.000         208.000
 00  5 15 15 52 59.9950000  0  6G 2G 4G 5G24G 7G 9
   2930741.45349   2283871.29246  21738946.353    21738945.584    21738955.966
       223.000         177.000
 -17167956.55349 -13361589.50647  19061703.795    19061704.214    19061711.379
       238.000         205.000
 -14520550.16449 -11291191.41246  21683473.782    21683473.734    21683482.846
       224.000         176.000
 -19433602.94449 -15119185.43647  20270665.572    20270665.832    20270675.477
       237.000         197.000
   2627492.95049   2048393.67047  20805876.284    20805875.745    20805883.605
       234.000         198.000
 -14581476.36849 -11338080.79847  19890290.066    19890290.043    19890297.087
       242.000         209.000
 00  5 15 15 53 29.9950000  0  6G 2G 4G 5G24G 7G 9
   2967466.00449   2312487.66346  21745934.928    21745934.152    21745944.559
       222.000         176.000
 -17213956.86649 -13397433.90347  19052950.170    19052950.636    19052957.787
       239.000         205.000
 -14636693.92049 -11381693.00146  21661372.379    21661372.282    21661381.358
       225.000         177.000
 -19547557.85549 -15207981.41047  20248980.647    20248980.887    20248990.502
       237.000         197.000
   2654750.17949   2069632.99647  20811063.201    20811062.668    20811070.562
       235.000         199.000
 -14614872.52049 -11364103.79747  19883935.028    19883934.998    19883942.047
       242.000         209.000
 00  5 15 15 53 59.9950000  0  6G 2G 4G 5G24G 7G 9
   3004443.89049   2341301.44346  21752971.704    21752970.925    21752981.409
       223.000         177.000
 -17259360.41349 -13432813.29147  19044310.163    19044310.624    19044317.773
       238.000         205.000
 -14752780.49949 -11472150.03146  21639281.824    21639281.709    21639290.774
       223.000         177.000
 -19661143.53349 -15296489.67247  20227365.934    20227366.201    20227375.797
       237.000         197.000
   2682093.45849   2090939.37647  20816266.538    20816265.989    20816273.908
       236.000         199.000
 -14647707.44749 -11389689.48147  19877686.766    19877686.747    19877693.780
       242.000         209.000
 00  5 15 15 54 29.9950000  0  6G 2G 4G 5G24G 7G 9
   3041658.28049   2370299.49846  21760053.507    21760052.722    21760063.234
       222.000         176.000
 -17304183.41249 -13467740.30047  19035780.620    19035781.083    19035788.222
       238.000         205.000
 -14868824.78049 -11562574.09446  21617199.316    21617199.223    21617208.222
       224.000         176.000
 -19774374.15649 -15384721.26347  20205818.865    20205819.092    20205828.637
       238.000         197.000
   2709505.44949   2112299.29547  20821482.954    20821482.386    20821490.335
       235.000         199.000
 -14679997.44649 -11414850.53947  19871542.206    19871542.196    19871549.228
       241.000         209.000
 00  5 15 15 54 59.9950000  0  6G 2G 4G 5G24G 7G 9
   3079116.93949   2399487.89246  21767181.837    21767181.010    21767191.551
       222.000         176.000
 -17348418.11349 -13502208.90147  19027363.050    19027363.504    19027370.633
       239.000         205.000
 -14984817.70049 -11652958.13646  21595126.566    21595126.473    21595135.449
       223.000         177.000
 -19887239.55449 -15472668.26647  20184341.295    20184341.484    20184350.981
       238.000         197.000
   2736993.03749   2133718.12047  20826713.708    20826713.157    20826721.149
       235.000         199.000
 -14711734.70549 -11439580.89847  19865502.847    19865502.818    19865509.866
       242.000         209.000
 00  5 15 15 55 29.9950000  0  6G 2G 4G 5G24G 7G 9
   3116836.58349   2428879.65446  21774359.765    21774358.946    21774369.523
       222.000         177.000
 -17392046.91149 -13536205.36647  19019060.750    19019061.192    19019068.345
       238.000         205.000
 -15100740.71749 -11743287.69846  21573067.100    21573067.015    21573076.000
       224.000         178.000
 -19999720.44449 -15560315.64547  20162936.863    20162937.039    20162946.492
       237.000         198.000
   2764572.34949   2155208.41747  20831961.924    20831961.387    20831969.415
       235.000         199.000
 -14742902.08449 -11463867.18347  19859571.888    19859571.888    19859578.941
       241.000         209.000
 00  5 15 15 55 59.9950000  0  6G 2G 4G 5G24G 7G 9
   3154796.28649   2458458.47646  21781583.334    21781582.571    21781593.178
       223.000         177.000
 -17435090.25349 -13569745.62847  19010869.874    19010870.330    19010877.460
       238.000         205.000
 -15216612.79649 -11833577.58646  21551017.313    21551017.243    21551026.232
       224.000         178.000
 -20111835.04549 -15647677.61547  20141602.066    20141602.282    20141611.728
       237.000         198.000
   2792222.17149   2176753.66147  20837223.598    20837223.049    20837231.073
       235.000         199.000
 -14773520.24949 -11487725.51647  19853745.442    19853745.450    19853752.515
       241.000         209.000
 00  5 15 15 56 29.9950000  0  6G 2G 4G 5G24G 7G 9
   3193017.50949   2488241.07246  21788856.747    21788855.984    21788866.609
       222.000         178.000
 -17477526.51449 -13602812.84147  19002794.517    19002794.969    19002802.117
       238.000         205.000
 -15332411.10049 -11923809.98646  21528981.599    21528981.540    21528990.505
       223.000         177.000
 -20223559.36049 -15734735.45947  20120341.561    20120341.796    20120351.221
       237.000         198.000
   2819963.23949   2198370.00347  20842502.631    20842502.076    20842510.111
       235.000         199.000
 -14803567.48349 -11511138.96447  19848027.652    19848027.651    19848034.745
       241.000         209.000
 00  5 15 15 56 59.9950000  0  6G 2G 4G 5G24G 7G 9
   3231477.27349   2518209.53046  21796175.591    21796174.791    21796185.406
       223.000         176.000
 -17519378.59449 -13635424.84947  18994830.315    18994830.771    18994837.916
       238.000         206.000
 -15448156.70849 -12014001.31446  21506955.854    21506955.842    21506964.798
       223.000         177.000
 -20334914.06549 -15821505.30247  20099151.371    20099151.643    20099161.052
       237.000         198.000
   2847771.79949   2220038.93847  20847794.460    20847793.932    20847802.002
       235.000         199.000
 -14833066.96949 -11534125.59547  19842414.056    19842414.088    19842421.214
       242.000         208.000
 00  5 15 15 57 29.9950000  0  6G 2G 4G 5G24G 7G 9
   3270183.55949   2548370.09146  21803541.246    21803540.481    21803551.144
       224.000         177.000
 -17560637.88849 -13667574.94647  18986978.951    18986979.404    18986986.543
       238.000         206.000
 -15563839.94449 -12104144.05546  21484942.078    21484942.007    21484950.968
       223.000         177.000
 -20445888.84049 -15907979.09847  20078033.513    20078033.787    20078043.198
       237.000         199.000
   2875655.27349   2241766.24647  20853100.596    20853100.048    20853108.132
       236.000         199.000
 -14862010.12049 -11556678.72247  19836906.352    19836906.400    19836913.533
       242.000         209.000
 00  5 15 15 57 59.9950000  0  6G 2G 4G 5G24G 7G 9
   3309149.34449   2578732.86146  21810956.386    21810955.595    21810966.266
       224.000         177.000
 -17601291.26749 -13699252.89747  18979242.854    18979243.315    18979250.449
       238.000         206.000
 -15679445.99449 -12194226.63046  21462942.896    21462942.828    21462951.843
       223.000         178.000
 -20556467.84049 -15994144.48947  20056991.026    20056991.261    20057000.636
       238.000         199.000
   2903626.16949   2263561.67647  20858423.409    20858422.826    20858430.898
       235.000         199.000
 -14890383.99949 -11578788.25847  19831507.016    19831507.048    19831514.201
       242.000         209.000
 00  5 15 15 58 29.9950000  0  6G 2G 4G 5G24G 7G 9
   3348362.66349   2609288.51046  21818418.585    21818417.806    21818428.506
       223.000         176.000
 -17641350.18449 -13730467.63747  18971619.925    18971620.361    18971627.490
       238.000         206.000
 -15794985.17749 -12284257.12146  21440956.473    21440956.407    21440965.409
       223.000         178.000
 -20666660.77649 -16080009.05747  20036021.966    20036022.189    20036031.541
       238.000         199.000
   2931671.98149   2285415.47947  20863760.388    20863759.820    20863767.933
       235.000         198.000
 -14918200.39449 -11600463.39947  19826213.742    19826213.781    19826220.944
       242.000         209.000
 00  5 15 15 58 59.9950000  0  6G 2G 4G 5G24G 7G 9
   3387821.16049   2640035.21446  21825927.426    21825926.657    21825937.393
       222.000         176.000
 -17680816.81349 -13761220.84947  18964109.684    18964110.119    18964117.247
       238.000         206.000
 -15910458.11349 -12374235.97346  21418982.617    21418982.570    21418991.577
       223.000         178.000
 -20776467.17949 -16165572.42847  20015126.434    20015126.677    20015135.999
       237.000         199.000
   2959790.00149   2307325.55047  20869111.087    20869110.551    20869118.705
       234.000         198.000
 -14945461.56049 -11621705.88647  19821026.129    19821026.170    19821033.352
       243.000         210.000
 00  5 15 15 59 29.9950000  0  6G 2G 4G 5G24G 7G 9
   3427528.07749   2670975.48746  21833483.575    21833482.776    21833493.555
       223.000         174.000
 -17719687.38049 -13791509.60347  18956712.890    18956713.300    18956720.431
       238.000         206.000
 -16025859.29749 -12464158.92846  21397022.574    21397022.431    21397031.371
       225.000         179.000
 -20885881.22749 -16250830.07347  19994305.584    19994305.825    19994315.141
       238.000         199.000
   2987983.08449   2329294.11047  20874476.086    20874475.554    20874483.748
       234.000         197.000
 -14972164.02449 -11642513.03247  19815944.863    19815944.899    19815952.064
       243.000         210.000
 00  5 15 15 59 59.9950000  0  6G 2G 4G 5G24G 7G 9
   3467474.26449   2702102.20246  21841085.195    21841084.449    21841095.243
       221.000         174.000
 -17757970.86449 -13821340.88547  18949427.785    18949428.205    18949435.320
       237.000         206.000
 -16141196.33749 -12554031.88446  21375074.578    21375074.474    21375083.390
       225.000         179.000
 -20994909.76949 -16335787.31847  19973558.069    19973558.336    19973567.637
       238.000         200.000
   3016241.47849   2351313.56447  20879853.506    20879852.992    20879861.210
       234.000         197.000
 -14998316.69149 -11662891.75747  19810968.207    19810968.230    19810975.418
       243.000         210.000
 00  5 15 16  0 29.9950000  0  6G 2G 4G 5G24G 7G 9
   3507670.51849   2733423.78046  21848734.396    21848733.677    21848744.473
       221.000         173.000
 -17795656.42749 -13850706.25747  18942256.469    18942256.879    18942263.995
       238.000         206.000
 -16256456.55749 -12643845.00146  21353141.293    21353141.185    21353150.040
       226.000         181.000
 -21103539.45249 -16420433.76247  19952886.518    19952886.757    19952896.021
       239.000         200.000
   3044575.64049   2373392.06047  20885245.381    20885244.864    20885253.100
       234.000         197.000
 -15023908.97449 -11682833.82247  19806098.194    19806098.224    19806105.380
       243.000         210.000
 00  5 15 16  0 59.9950000  0  6G 2G 4G 5G24G 7G 9
   3548097.57449   2764925.19346  21856427.589    21856426.828    21856437.694
       221.000         172.000
 -17832763.00249 -13879620.46747  18935195.336    18935195.761    18935202.860
       238.000         206.000
 -16371657.61349 -12733612.00446  21331219.222    21331219.123    21331227.961
       226.000         181.000
 -21211787.10149 -16504782.52247  19932287.644    19932287.879    19932297.113
       238.000         201.000
   3072965.71449   2395514.11647  20890647.886    20890647.361    20890655.631
       234.000         196.000
 -15048959.85449 -11702354.02047  19801331.178    19801331.218    19801338.383
       242.000         210.000
 00  5 15 16  1 29.9950000  0  6G 2G 4G 5G24G 7G 9
   3588753.84549   2796605.21746  21864164.377    21864163.589    21864174.514
       220.000         172.000
 -17869291.87349 -13908084.51547  18928244.124    18928244.550    18928251.636
       238.000         206.000
 -16486798.82849 -12823332.38146  21309308.612    21309308.470    21309317.261
       227.000         182.000
 -21319651.68049 -16588832.77647  19911761.674    19911761.890    19911771.113
       239.000         201.000
   3101409.72449   2417678.20347  20896060.690    20896060.150    20896068.427
       233.000         196.000
 -15073470.77849 -11721453.46147  19796666.939    19796666.954    19796674.140
       242.000         210.000
 00  5 15 16  1 59.9950000  0  6G 2G 4G 5G24G 7G 9
   3629650.03449   2828472.18746  21871946.730    21871945.987    21871956.997
       218.000         169.000
 -17905232.18049 -13936089.94947  18921404.914    18921405.347    18921412.416
       238.000         206.000
 -16601867.35849 -12912996.11446  21287411.793    21287411.620    21287420.405
       227.000         182.000
 -21427119.93549 -16672574.21847  19891311.119    19891311.325    19891320.529
       239.000         201.000
   3129918.25949   2439892.56747  20901485.756    20901485.205    20901493.497
       233.000         195.000
 -15097431.01149 -11740123.80547  19792107.443    19792107.489    19792114.693
       242.000         209.000
 00  5 15 16  2 29.9950000  0  6G 2G 4G 5G24G 7G 9
   3670778.11949   2860519.83646  21879773.253    21879772.506    21879783.585
       218.000         170.000
 -17940591.83349 -13963642.92547  18914676.208    18914676.654    18914683.711
       238.000         206.000
 -16716869.55749 -13002608.17546  21265527.561    21265527.401    21265536.171
       228.000         184.000
 -21534197.33149 -16756011.09447  19870934.927    19870935.134    19870944.318
       239.000         201.000
   3158482.77149   2462150.55347  20906921.477    20906920.905    20906929.198
       233.000         195.000
 -15120848.49649 -11758371.22347  19787651.263    19787651.287    19787658.514
       241.000         209.000
 00  5 15 16  2 59.9950000  0  6G 2G 4G 5G24G 7G 9
   3712147.69249   2892755.67246  21887645.681    21887644.986    21887656.098
       219.000         169.000
 -17975361.00949 -13990735.78647  18908059.871    18908060.298    18908067.348
       239.000         206.000
 -16831793.97249 -13092159.62346  21243658.119    21243657.972    21243666.730
       228.000         183.000
 -21640872.05149 -16839134.19647  19850635.322    19850635.559    19850644.738
       239.000         201.000
   3187112.31849   2484459.22047  20912369.565    20912368.985    20912377.266
       233.000         195.000
 -15143713.76149 -11776188.33547  19783300.108    19783300.182    19783307.416
       242.000         209.000
 00  5 15 16  3 29.9950000  0  6G 2G 4G 5G24G 7G 9
   3753749.39049   2925172.37546  21895562.323    21895561.614    21895572.790
       220.000         168.000
 -18009548.92949 -14017375.72747  18901554.146    18901554.561    18901561.594
       238.000         206.000
 -16946648.09849 -13181656.30446  21221802.076    21221801.935    21221810.648
       229.000         184.000
 -21747151.04049 -16921948.93847  19830411.014    19830411.287    19830420.477
       239.000         201.000
   3215797.23049   2506811.02347  20917828.201    20917827.610    20917835.879
       234.000         195.000
 -15166036.26849 -11793582.52347  19779052.316    19779052.367    19779059.609
       242.000         209.000
 00  5 15 16  3 59.9950000  0  6G 2G 4G 5G24G 7G 9
   3795593.22849   2957777.76346  21903525.121    21903524.380    21903535.586
       220.000         169.000
 -18043145.38249 -14043554.78547  18895160.958    18895161.366    18895168.390
       238.000         206.000
 -17061419.92549 -13271088.86446  21199961.704    21199961.552    21199970.194
       230.000         184.000
 -21853021.63449 -17004445.45247  19810264.419    19810264.715    19810273.917
       239.000         201.000
   3244547.38849   2529213.66247  20923299.232    20923298.648    20923306.917
       233.000         194.000
 -15187805.88749 -11810545.88647  19774909.656    19774909.726    19774917.022
       240.000         209.000
 00  5 15 16  4 29.9950000  0  6G 2G 4G 5G24G 7G 9
   3837674.55149   2990568.20546  21911533.103    21911532.335    21911543.614
       218.000         168.000
 -18076155.00949 -14069276.57747  18888879.457    18888879.862    18888886.871
       238.000         206.000
 -17176111.74349 -13360459.07546  21178136.586    21178136.416    21178144.998
       230.000         184.000
 -21958485.90649 -17086625.35647  19790195.189    19790195.472    19790204.687
       239.000         202.000
   3273357.82249   2551663.27147  20928781.698    20928781.134    20928789.445
       233.000         195.000
 -15209027.13849 -11827081.95447  19770871.355    19770871.460    19770878.777
       241.000         208.000
 00  5 15 16  4 59.9950000  0  6G 2G 4G 5G24G 7G 9
   3879981.58649   3023534.51746  21919583.875    21919583.176    21919594.590
       218.000         168.000
 -18108589.15149 -14094549.93047  18882707.461    18882707.855    18882714.858
       236.000         205.000
 -17290733.32449 -13449774.54746  21156324.817    21156324.629    21156333.190
       230.000         184.000
 -22063553.02049 -17168495.78147  19770201.556    19770201.807    19770211.036
       239.000         202.000
   3302216.57049   2574150.53247  20934273.346    20934272.813    20934281.168
       232.000         194.000
 -15229711.69049 -11843199.80847  19766935.173    19766935.302    19766942.670
       240.000         208.000
 00  5 15 16  5 29.9950000  0  6G 2G 4G 5G24G 7G 9
   3922506.11649   3056670.31946  21927676.172    21927675.458    21927686.933
       219.000         168.000
 -18140456.39549 -14119381.55247  18876643.303    18876643.721    18876650.723
       236.000         205.000
 -17405291.10649 -13539040.31446  21134525.189    21134524.985    21134533.527
       230.000         185.000
 -22168228.88249 -17250061.33747  19750282.378    19750282.595    19750291.840
       239.000         202.000
   3331114.93149   2596668.65747  20939772.544    20939772.030    20939780.421
       232.000         193.000
 -15249867.88549 -11858905.96647  19763099.606    19763099.709    19763107.100
       240.000         208.000
 00  5 15 16  5 59.9950000  0  6G 2G 4G 5G24G 7G 9
   3965282.60149   3090002.44546  21935816.445    21935815.686    21935827.219
       218.000         166.000
 -18171722.24049 -14143744.55147  18870693.630    18870694.028    18870701.027
       237.000         205.000
 -17519748.55649 -13628227.90946  21112744.635    21112744.450    21112752.976
       231.000         184.000
 -22272476.81849 -17331293.44747  19730444.620    19730444.839    19730454.072
       239.000         203.000
   3360087.11749   2619244.30847  20945285.833    20945285.310    20945293.732
       232.000         193.000
 -15269461.55049 -11874173.78047  19759371.090    19759371.160    19759378.570
       241.000         208.000
 00  5 15 16  6 29.9950000  0  6G 2G 4G 5G24G 7G 9
   4008305.39249   3123526.49546  21944003.536    21944002.769    21944014.363
       218.000         167.000
 -18202391.87549 -14167642.96947  18864857.431    18864857.822    18864864.778
       236.000         205.000
 -17634108.95949 -13717339.87146  21090982.598    21090982.370    21090990.877
       231.000         185.000
 -22376299.69349 -17412194.33547  19710687.767    19710687.949    19710697.185
       239.000         203.000
   3389127.49749   2641873.10047  20950812.107    20950811.583    20950820.026
       232.000         193.000
 -15288498.06449 -11889007.45647  19755748.603    19755748.667    19755756.060
       241.000         209.000
 00  5 15 16  6 59.9950000  0  6G 2G 4G 5G24G 7G 9
   4051559.88249   3157231.08746  21952234.790    21952233.977    21952245.621
       217.000         167.000
 -18232480.32049 -14191088.51647  18859131.787    18859132.173    18859139.128
       236.000         205.000
 -17748385.16649 -13806386.22946  21069236.530    21069236.312    21069244.815
       231.000         184.000
 -22479709.91049 -17492773.68147  19691009.406    19691009.607    19691018.849
       240.000         204.000
   3418220.95349   2664543.24747  20956348.460    20956347.933    20956356.413
       231.000         193.000
 -15306992.21049 -11903418.50547  19752229.333    19752229.375    19752236.757
       242.000         209.000
 00  5 15 16  7 29.9950000  0  6G 2G 4G 5G24G 7G 9
   4095053.03449   3191121.64946  21960511.369    21960510.575    21960522.273
       217.000         166.000
 -18261980.23849 -14214075.46447  18853518.132    18853518.532    18853525.470
       237.000         205.000
 -17862567.77949 -13895359.65646  21047508.298    21047508.065    21047516.539
       231.000         185.000
 -22582697.92649 -17573024.03447  19671411.442    19671411.615    19671420.824
       240.000         204.000
   3447374.40349   2687260.15047  20961896.242    20961895.710    20961904.225
       231.000         192.000
 -15324937.44249 -11917401.82947  19748814.551    19748814.562    19748821.911
       241.000         209.000
 00  5 15 16  7 59.9950000  0  6G 2G 4G 5G24G 7G 9
   4138772.60749   3225188.62846  21968831.144    21968830.313    21968842.023
       217.000         166.000
 -18290904.03549 -14236613.49247  18848014.095    18848014.509    18848021.442
       236.000         205.000
 -17976666.94849 -13984268.06946  21025795.910    21025795.704    21025804.151
       230.000         185.000
 -22685273.40249 -17652952.93147  19651891.957    19651892.123    19651901.321
       240.000         204.000
   3476575.45049   2710014.13247  20967453.076    20967452.530    20967461.073
       231.000         192.000
 -15342345.81549 -11930966.81947  19745501.865    19745501.875    19745509.232
       242.000         209.000
 00  5 15 16  8 29.9950000  0  6G 2G 4G 5G24G 7G 9
   4182732.67349   3259443.00246  21977196.609    21977195.815    21977207.561
       218.000         166.000
 -18319237.67449 -14258691.65747  18842622.380    18842622.801    18842629.729
       236.000         205.000
 -18090666.57649 -14073098.90846  21004102.382    21004102.235    21004110.702
       229.000         184.000
 -22787419.98849 -17732547.62447  19632454.111    19632454.250    19632463.417
       241.000         204.000
   3505838.00149   2732816.04547  20973021.560    20973021.062    20973029.623
       231.000         191.000
 -15359203.55549 -11944102.74847  19742293.952    19742293.979    19742301.332
       242.000         209.000
 00  5 15 16  8 59.9950000  0  6G 2G 4G 5G24G 7G 9
   4226918.83749   3293873.55746  21985605.193    21985604.363    21985616.114
       218.000         165.000
 -18346995.49349 -14280321.13047  18837340.224    18837340.672    18837347.596
       236.000         205.000
 -18204578.66549 -14161861.53746  20982425.566    20982425.425    20982433.894
       229.000         184.000
 -22889149.62949 -17811817.43347  19613095.579    19613095.724    19613104.875
       240.000         204.000
   3535147.55949   2755654.58647  20978599.065    20978598.533    20978607.106
       231.000         191.000
 -15375524.96549 -11956820.76047  19739188.115    19739188.136    19739195.487
       242.000         209.000
 00  5 15 16  9 29.9950000  0  6G 2G 4G 5G24G 7G 9
   4271336.06049   3328484.15646  21994057.599    21994056.794    21994068.614
       216.000         164.000
 -18374172.70649 -14301498.18847  18832168.594    18832169.033    18832175.936
       236.000         205.000
 -18318396.46749 -14250550.71046  20960766.729    20960766.597    20960775.044
       229.000         184.000
 -22990455.12549 -17890756.73647  19593817.754    19593817.901    19593827.024
       240.000         205.000
   3564508.77949   2778533.37447  20984186.368    20984185.858    20984194.421
       231.000         191.000
 -15391305.36849 -11969117.20947  19736185.205    19736185.247    19736192.616
       242.000         210.000
 00  5 15 16  9 59.9950000  0  6G 2G 4G 5G24G 7G 9
   4315986.76249   3363276.67745  22002554.468    22002553.656    22002565.552
       215.000         161.000
 -18400766.76649 -14322220.83947  18827107.932    18827108.358    18827115.265
       236.000         205.000
 -18432115.23349 -14339162.70646  20939126.742    20939126.619    20939135.029
       229.000         184.000
 -23091331.34649 -17969361.53647  19574621.593    19574621.760    19574630.865
       240.000         205.000
   3593924.13449   2801454.35047  20989784.043    20989783.471    20989792.040
       231.000         191.000
 -15406542.52749 -11980990.34847  19733285.727    19733285.733    19733293.109
       242.000         210.000
 00  5 15 16 10 29.9950000  0  6G 2G 4G 5G24G 7G 9
   4360885.14649   3398262.19645  22011098.488    22011097.694    22011109.617
       214.000         162.000
 -18426763.71849 -14342478.20947  18822160.905    18822161.308    18822168.203
       236.000         205.000
 -18545718.33249 -14427684.56246  20917508.739    20917508.621    20917517.072
       228.000         184.000
 -23191761.78949 -18047618.97747  19555510.247    19555510.452    19555519.540
       240.000         204.000
   3623407.62849   2824428.42147  20995394.656    20995394.070    20995402.628
       231.000         190.000
 -15421222.31549 -11992429.17747  19730492.334    19730492.311    19730499.652
       242.000         210.000
 00  5 15 16 10 59.9950000  0  6G 2G 4G 5G24G 7G 9
   4406027.63749   3433437.92745  22019689.050    22019688.211    22019700.160
       213.000         162.000
 -18452167.15949 -14362273.11047  18817326.820    18817327.191    18817334.093
       236.000         205.000
 -18659207.36249 -14516117.53146  20895912.415    20895912.322    20895920.797
       228.000         184.000
 -23291747.57149 -18125529.93047  19536483.589    19536483.769    19536492.835
       240.000         205.000
   3652955.60349   2847452.73047  21001017.564    21001016.942    21001025.465
       231.000         191.000
 -15435348.61649 -12003436.71647  19727804.185    19727804.197    19727811.535
       242.000         210.000
 00  5 15 16 11 29.9950000  0  6G 2G 4G 5G24G 7G 9
   4451415.30949   3468804.70646  22028326.192    22028325.357    22028337.357
       214.000         163.000
 -18476976.22249 -14381604.86347  18812605.799    18812606.206    18812613.072
       236.000         205.000
 -18772578.85149 -14604458.91746  20874338.513    20874338.411    20874346.858
       228.000         184.000
 -23391285.39949 -18203091.83047  19517542.107    19517542.309    19517551.373
       240.000         205.000
   3682569.20349   2870528.18047  21006652.922    21006652.312    21006660.829
       232.000         191.000
 -15448920.61549 -12014012.33247  19725221.596    19725221.570    19725228.892
       243.000         210.000
 00  5 15 16 11 59.9950000  0  6G 2G 4G 5G24G 7G 9
   4497037.04249   3504353.86445  22037007.925    22037007.033    22037019.096
       213.000         161.000
 -18501202.01049 -14400482.11547  18807995.834    18807996.211    18808003.048
       236.000         205.000
 -18885841.71849 -14692715.66646  20852785.342    20852785.195    20852793.602
       229.000         185.000
 -23490383.94349 -18280311.43447  19498684.232    19498684.444    19498693.521
       240.000         205.000
   3712237.03549   2893645.88447  21012298.667    21012298.008    21012306.497
       232.000         190.000
 -15461949.47549 -12024164.72847  19722742.353    19722742.311    19722749.626
       242.000         210.000
 00  5 15 16 12 29.9950000  0  6G 2G 4G 5G24G 7G 9
   4542886.62849   3540080.56845  22045732.965    22045732.084    22045744.181
       211.000         161.000
 -18524850.98349 -14418909.89747  18803495.587    18803495.984    18803502.801
       236.000         205.000
 -18998999.77449 -14780890.73846  20831252.122    20831251.939    20831260.305
       229.000         185.000
 -23589047.02849 -18357191.71647  19479909.218    19479909.454    19479918.535
       240.000         205.000
   3741953.03449   2916801.12247  21017953.502    21017952.853    21017961.350
       231.000         190.000
 -15474441.52949 -12033898.82547  19720365.240    19720365.197    19720372.498
       243.000         210.000
 00  5 15 16 12 59.9950000  0  6G 2G 4G 5G24G 7G 9
   4588957.59549   3575979.78445  22054500.227    22054499.298    22054511.420
       213.000         161.000
 -18547929.70349 -14436893.33447  18799103.887    18799104.239    18799111.086
       236.000         205.000
 -19112057.18449 -14868987.38146  20809738.059    20809737.828    20809746.156
       229.000         185.000
 -23687278.63149 -18433735.77847  19461216.365    19461216.567    19461225.637
       240.000         205.000
   3771710.75449   2939988.86947  21023616.266    21023615.632    21023624.138
       231.000         190.000
 -15486403.58049 -12043219.94547  19718088.992    19718088.921    19718096.214
       242.000         210.000
 00  5 15 16 13 29.9950000  0  6G 2G 4G 5G24G 7G 9
   4635265.55349   3612063.66345  22063312.611    22063311.628    22063323.782
       214.000         161.000
 -18570422.78949 -14454420.43047  18794823.616    18794823.973    18794830.797
       236.000         204.000
 -19224996.02849 -14956991.63646  20788246.502    20788246.270    20788254.595
       229.000         186.000
 -23785060.87149 -18509929.69147  19442609.001    19442609.187    19442618.257
       240.000         205.000
   3801525.72649   2963221.22747  21029289.952    21029289.309    21029297.813
       231.000         190.000
 -15497820.53149 -12052116.30547  19715916.467    19715916.392    19715923.687
       242.000         210.000
 00  5 15 16 13 59.9950000  0  6G 2G 4G 5G24G 7G 9
   4681801.38949   3648325.10045  22072168.214    22072167.245    22072179.470
       212.000         162.000
 -18592339.52949 -14471498.42647  18790652.987    18790653.356    18790660.198
       236.000         205.000
 -19337823.12949 -15044908.82046  20766776.216    20766775.985    20766784.283
       230.000         187.000
 -23882400.55049 -18585778.74547  19424085.883    19424086.040    19424095.077
       241.000         205.000
   3831388.95649   2986491.18947  21034972.810    21034972.169    21034980.693
       231.000         189.000
 -15508701.66049 -12060595.14047  19713845.918    19713845.826    19713853.110
       242.000         210.000
 00  5 15 16 14 29.9940000  0  6G 2G 4G 5G24G 7G 9
   4728559.11249   3684759.43445  22081066.066    22081065.106    22081077.440
       213.000         162.000
 -18613683.88549 -14488130.41247  18786591.315    18786591.675    18786598.498
       236.000         204.000
 -19450536.87549 -15132737.67246  20745327.495    20745327.257    20745335.550
       230.000         186.000
 -23979296.31949 -18661281.89547  19405647.221    19405647.363    19405656.386
       240.000         206.000
   3861294.99549   3009794.50547  21040663.851    21040663.192    21040671.711
       231.000         189.000
 -15519051.18749 -12068659.73747  19711876.488    19711876.412    19711883.702
       242.000         210.000
 00  5 15 16 14 59.9940000  0  6G 2G 4G 5G24G 7G 9
   4775547.61349   3721373.58446  22090007.907    22090006.962    22090019.317
       212.000         163.000
 -18634451.60549 -14504313.07947  18782639.380    18782639.735    18782646.549
       236.000         204.000
 -19563136.56149 -15220477.65546  20723900.459    20723900.221    20723908.498
       230.000         186.000
 -24075746.77049 -18736438.05247  19387293.298    19387293.438    19387302.426
       240.000         206.000
   3891251.65449   3033137.25547  21046364.471    21046363.828    21046372.373
       230.000         189.000
 -15528864.37449 -12076306.41647  19710009.156    19710009.063    19710016.339
       242.000         210.000
 00  5 15 16 15 29.9940000  0  6G 2G 4G 5G24G 7G 9
   4822760.24449   3758162.39045  22098992.455    22098991.442    22099003.810
       215.000         162.000
 -18654647.46749 -14520050.13347  18778796.263    18778796.597    18778803.412
       236.000         204.000
 -19675620.92349 -15308127.76946  20702495.354    20702495.114    20702503.409
       230.000         187.000
 -24171751.23049 -18811246.68047  19369024.247    19369024.389    19369033.340
       240.000         206.000
   3921252.89549   3056514.75347  21052073.601    21052072.939    21052081.518
       230.000         189.000
 -15538146.48149 -12083539.26347  19708242.858    19708242.770    19708250.036
       242.000         209.000
 00  5 15 16 15 59.9940000  0  6G 2G 4G 5G24G 7G 9
   4870181.69749   3795113.90445  22108016.624    22108015.623    22108028.081
       213.000         162.000
 -18674286.92349 -14535353.62647  18775058.986    18775059.331    18775066.172
       236.000         204.000
 -19788003.06749 -15395698.23146  20681109.714    20681109.488    20681117.748
       231.000         186.000
 -24267322.94349 -18885718.09647  19350837.514    19350837.652    19350846.622
       240.000         206.000
   3951283.54949   3079915.17347  21057788.351    21057787.662    21057796.244
       231.000         188.000
 -15546913.11549 -12090370.43647  19706574.606    19706574.548    19706581.835
       241.000         209.000
 00  5 15 16 16 29.9940000  0  6G 2G 4G 5G24G 7G 9
   4917817.45649   3832232.40945  22117081.632    22117080.626    22117093.155
       213.000         162.000
 -18693364.83949 -14550219.55647  18771428.608    18771428.944    18771435.766
       236.000         204.000
 -19900275.04449 -15483182.86646  20659745.011    20659744.811    20659753.059
       231.000         187.000
 -24362453.89549 -18959846.06747  19332734.691    19332734.825    19332743.769
       240.000         206.000
   3981349.23349   3103342.89246  21063509.739    21063509.065    21063517.638
       229.000         187.000
 -15555158.89049 -12096795.75347  19705005.492    19705005.437    19705012.730
       241.000         209.000
 00  5 15 16 16 59.9940000  0  6G 2G 4G 5G24G 7G 9
   4965652.73549   3869506.38345  22126184.725    22126183.625    22126196.174
       214.000         162.000
 -18711896.02749 -14564659.46147  18767902.267    18767902.599    18767909.397
       236.000         204.000
 -20012449.10249 -15570591.18747  20638398.988    20638398.774    20638407.020
       232.000         188.000
 -24457156.65749 -19033640.38147  19314713.319    19314713.448    19314722.391
       240.000         206.000
   4011435.29049   3126786.47746  21069234.939    21069234.301    21069242.910
       229.000         187.000
 -15562899.01949 -12102827.05547  19703532.563    19703532.531    19703539.850
       241.000         208.000
 00  5 15 16 17 29.9940000  0  6G 2G 4G 5G24G 7G 9
   5013703.52649   3906948.28245  22135328.621    22135327.593    22135340.191
       214.000         162.000
 -18729865.16049 -14578661.41047  18764482.876    18764483.216    18764490.007
       236.000         204.000
 -20124506.84849 -15657908.87747  20617075.063    20617074.867    20617083.103
       232.000         188.000
 -24551412.85749 -19107086.72747  19296776.937    19296777.061    19296786.005
       240.000         206.000
   4041557.74249   3150258.42546  21074967.107    21074966.472    21074975.120
       229.000         186.000
 -15570118.07049 -12108452.32647  19702158.836    19702158.816    19702166.132
       241.000         208.000
 00  5 15 16 17 59.9940000  0  6G 2G 4G 5G24G 7G 9
   5061970.24749   3944558.44145  22144513.680    22144512.663    22144525.300
       214.000         161.000
 -18747272.01649 -14592225.21547  18761170.479    18761170.816    18761177.596
       236.000         204.000
 -20236445.50149 -15745133.77147  20595773.817    20595773.615    20595781.848
       232.000         189.000
 -24645219.95649 -19180183.12447  19278925.972    19278926.121    19278935.072
       240.000         206.000
   4071717.24549   3173759.24346  21080706.301    21080705.694    21080714.384
       229.000         186.000
 -15576815.89049 -12113671.44047  19700884.305    19700884.289    19700891.604
       242.000         208.000
 00  5 15 16 18 29.9940000  0  6G 2G 4G 5G24G 7G 9
   5110452.43049   3982336.48545  22153739.686    22153738.687    22153751.387
       213.000         159.000
 -18764117.05649 -14605351.24447  18757964.976    18757965.331    18757972.105
       236.000         204.000
 -20348262.82449 -15832264.11946  20574495.665    20574495.468    20574503.647
       233.000         187.000
 -24738575.94549 -19252928.00547  19261160.847    19261161.025    19261169.979
       240.000         206.000
   4101913.49949   3197288.69646  21086452.498    21086451.915    21086460.613
       229.000         186.000
 -15582993.37349 -12118485.09747  19699708.804    19699708.780    19699716.102
       242.000         209.000
 00  5 15 16 18 59.9940000  0  6G 2G 4G 5G24G 7G 9
   5159152.28349   4020284.13645  22163007.118    22163006.130    22163018.917
       213.000         158.000
 -18780398.78249 -14618038.32447  18754866.694    18754867.036    18754873.815
       236.000         204.000
 -20459954.03949 -15919296.20647  20553241.558    20553241.337    20553249.451
       233.000         188.000
 -24831476.37549 -19325317.90347  19243482.444    19243482.625    19243491.586
       240.000         206.000
   4132149.18649   3220848.87646  21092206.268    21092205.652    21092214.346
       229.000         185.000
 -15588648.49549 -12122891.71947  19698632.746    19698632.688    19698639.992
       242.000         209.000
 00  5 15 16 19 29.9940000  0  6G 2G 4G 5G24G 7G 9
   5208067.86249   4058399.88145  22172315.718    22172314.736    22172327.473
       213.000         159.000
 -18796119.26949 -14630288.07447  18751875.201    18751875.554    18751882.322
       237.000         205.000
 -20571518.90549 -16006229.82847  20532011.394    20532011.211    20532019.326
       233.000         188.000
 -24923920.88149 -19397352.53347  19225890.814    19225890.986    19225899.955
       241.000         206.000
   4162422.18249   3244438.12846  21097967.072    21097966.473    21097975.188
       228.000         185.000
 -15593783.69349 -12126893.21047  19697655.577    19697655.528    19697662.831
       242.000         209.000
 00  5 15 16 19 59.9940000  0  6G 2G 4G 5G24G 7G 9
   5257196.29449   4096681.47345  22181664.727    22181663.761    22181676.526
       213.000         158.000
 -18811281.83749 -14642103.08247  18748989.857    18748990.231    18748997.013
       237.000         204.000
 -20682957.67349 -16093065.19347  20510805.251    20510805.069    20510813.228
       232.000         189.000
 -25015910.07249 -19469032.37647  19208385.822    19208385.990    19208394.958
       240.000         206.000
   4192729.95649   3268054.48146  21103734.485    21103733.900    21103742.670
       228.000         185.000
 -15598402.13649 -12130492.03847  19696776.726    19696776.693    19696784.006
       242.000         208.000
 00  5 15 16 20 29.9940000  0  6G 2G 4G 5G24G 7G 9
   5306535.39849   4135127.22645  22191053.945    22191052.897    22191065.673
       211.000         158.000
 -18825889.04149 -14653485.33847  18746210.202    18746210.581    18746217.371
       236.000         204.000
 -20794269.98749 -16179802.02747  20489623.156    20489622.997    20489631.157
       234.000         188.000
 -25107444.08849 -19540357.53747  19190967.410    19190967.599    19190976.577
       240.000         206.000
   4223070.48849   3291696.36946  21109508.173    21109507.574    21109516.384
       228.000         185.000
 -15602506.91449 -12133690.60647  19695995.605    19695995.599    19696002.920
       241.000         208.000
 00  5 15 16 20 59.9940000  0  6G 2G 4G 5G24G 7G 9
   5356075.13249   4173729.30845  22200481.318    22200480.219    22200493.013
       213.000         157.000
 -18839951.66949 -14664443.24847  18743534.168    18743534.550    18743541.370
       237.000         204.000
 -20905463.42049 -16266446.23347  20468463.754    20468463.568    20468471.692
       233.000         188.000
 -25198530.72049 -19611334.08647  19173634.146    19173634.357    19173643.320
       242.000         206.000
   4253433.99049   3315356.14646  21115286.154    21115285.600    21115294.484
       228.000         185.000
 -15606108.74449 -12136497.27147  19695310.188    19695310.205    19695317.543
       242.000         208.000
 00  5 15 16 21 29.9940000  0  6G 2G 4G 5G24G 7G 9
   5405840.08849   4212506.86945  22209951.520    22209950.409    22209963.236
       212.000         158.000
 -18853445.20949 -14674957.71847  18740966.441    18740966.815    18740973.652
       236.000         204.000
 -21016510.72949 -16352976.57947  20447332.123    20447331.930    20447340.055
       233.000         188.000
 -25289143.07349 -19681941.07447  19156391.183    19156391.372    19156400.325
       242.000         206.000
   4283845.27049   3339053.15246  21121073.293    21121072.737    21121081.651
       228.000         185.000
 -15609183.10049 -12138892.92147  19694725.201    19694725.204    19694732.549
       242.000         208.000
 00  5 15 16 21 59.9940000  0  6G 2G 4G 5G24G 7G 9
   5455822.18149   4251453.63745  22219462.911    22219461.878    22219474.772
       211.000         157.000
 -18866378.19949 -14685035.38847  18738505.407    18738505.769    18738512.601
       236.000         205.000
 -21127417.33949 -16439397.29047  20426227.260    20426227.082    20426235.180
       233.000         188.000
 -25379287.00449 -19752183.04847  19139237.361    19139237.522    19139246.460
       241.000         206.000
   4314296.70849   3362781.45546  21126868.056    21126867.524    21126876.437
       228.000         185.000
 -15611738.46349 -12140884.14847  19694238.965    19694238.964    19694246.321
       241.000         208.000
 00  5 15 16 22 29.9940000  0  6G 2G 4G 5G24G 7G 9
   5506009.84049   4290560.57745  22229013.587    22229012.514    22229025.455
       212.000         156.000
 -18878762.50649 -14694685.52147  18736148.777    18736149.143    18736155.959
       237.000         205.000
 -21238192.17349 -16525715.31047  20405147.496    20405147.319    20405155.393
       233.000         188.000
 -25468971.74549 -19822067.21747  19122170.929    19122171.066    19122179.999
       242.000         206.000
   4344777.05749   3386532.28746  21132668.411    21132667.816    21132676.738
       227.000         184.000
 -15613786.81449 -12142480.31347  19693849.241    19693849.215    19693856.558
       241.000         208.000
 00  5 15 16 22 59.9940000  0  6G 2G 4G 5G24G 7G 9
   5556405.79749   4329829.83445  22238603.885    22238602.813    22238615.741
       212.000         157.000
 -18890595.97849 -14703906.43047  18733896.972    18733897.320    18733904.141
       237.000         205.000
 -21348829.77249 -16611926.40647  20384093.827    20384093.664    20384101.707
       232.000         188.000
 -25558192.56249 -19891589.88847  19105192.704    19105192.867    19105201.792
       242.000         206.000
   4375289.38049   3410308.02646  21138474.790    21138474.182    21138483.145
       228.000         184.000
 -15615326.00049 -12143679.72847  19693556.383    19693556.345    19693563.702
       242.000         208.000
 00  5 15 16 23 29.9940000  0  6G 2G 4G 5G24G 7G 9
   5607014.39849   4369264.76245  22248234.682    22248233.537    22248246.550
       210.000         156.000
 -18901874.63749 -14712695.01347  18731750.723    18731751.088    18731757.891
       237.000         205.000
 -21459323.03349 -16698025.02247  20363067.580    20363067.450    20363075.518
       231.000         188.000
 -25646942.70749 -19960745.79347  19088304.060    19088304.240    19088313.161
       241.000         206.000
   4405838.26949   3434112.26246  21144288.101    21144287.511    21144296.487
       229.000         184.000
 -15616352.37049 -12144479.54047  19693361.085    19693361.058    19693368.440
       241.000         208.000
 00  5 15 16 23 59.9940000  0  6G 2G 4G 5G24G 7G 9
   5657840.06849   4408868.83845  22257906.676    22257905.611    22257918.684
       212.000         155.000
 -18912594.74149 -14721048.35747  18729710.742    18729711.129    18729717.947
       237.000         205.000
 -21569665.04049 -16784005.77947  20342070.153    20342070.027    20342078.079
       232.000         189.000
 -25735216.08749 -20029530.19247  19071506.145    19071506.339    19071515.251
       242.000         206.000
   4436428.50549   3457948.72846  21150109.265    21150108.699    21150117.706
       228.000         184.000
 -15616862.23549 -12144876.88347  19693264.098    19693264.066    19693271.461
       241.000         207.000
 00  5 15 16 24 29.9940000  0  6G 2G 4G 5G24G 7G 9
   5708875.83449   4448636.62845  22267618.764    22267617.623    22267630.837
       209.000         155.000
 -18922763.46249 -14728972.05347  18727775.699    18727776.093    18727782.916
       236.000         205.000
 -21679859.73949 -16869871.75047  20321100.816    20321100.658    20321108.706
       232.000         188.000
 -25823016.83049 -20097946.30647  19054798.198    19054798.373    19054807.294
       241.000         206.000
   4467053.55149   3481812.30846  21155937.078    21155936.512    21155945.579
       227.000         183.000
 -15616862.67149 -12144877.26847  19693264.020    19693264.004    19693271.423
       241.000         207.000
 00  5 15 16 24 59.9940000  0  6G 2G 4G 5G24G 7G 9
   5760108.93149   4488558.18045  22277368.291    22277367.144    22277380.496
       211.000         153.000
 -18932394.01749 -14736476.40747  18725943.081    18725943.460    18725950.297
       237.000         205.000
 -21789917.30749 -16955630.87047  20300157.525    20300157.376    20300165.438
       231.000         188.000
 -25910355.77149 -20166002.58147  19038178.080    19038178.286    19038187.213
       241.000         206.000
   4497701.23949   3505693.53046  21161769.229    21161768.643    21161777.750
       226.000         184.000
 -15616367.06449 -12144491.13247  19693358.377    19693358.344    19693365.776
       241.000         207.000
 00  5 15 16 25 29.9940000  0  6G 2G 4G 5G24G 7G 9
   5811543.06949   4528636.40145  22287156.140    22287154.976    22287168.440
       209.000         154.000
 -18941483.59049 -14743559.20647  18724213.378    18724213.776    18724220.639
       237.000         205.000
 -21899831.67149 -17041278.39147  20279241.484    20279241.318    20279249.397
       231.000         188.000
 -25997227.33749 -20233694.66147  19021646.906    19021647.120    19021656.074
       241.000         206.000
   4528375.16249   3529595.19546  21167606.432    21167605.799    21167614.923
       227.000         183.000
 -15615372.63949 -12143716.30347  19693547.621    19693547.619    19693555.056
       241.000         207.000
 00  5 15 16 25 59.9940000  0  6G 2G 4G 5G24G 7G 9
   5863172.08849   4568866.45445  22296981.045    22296979.862    22296993.388
       209.000         152.000
 -18950038.78649 -14750225.61447  18722585.372    18722585.789    18722592.650
       237.000         206.000
 -22009606.12949 -17126816.90147  20258352.075    20258351.919    20258359.985
       231.000         188.000
 -26083635.28149 -20301025.48147  19005203.969    19005204.198    19005213.146
       241.000         206.000
   4559069.90549   3553513.09146  21173447.604    21173446.916    21173456.015
       227.000         182.000
 -15613885.87649 -12142557.84147  19693830.613    19693830.578    19693838.030
       241.000         207.000
 00  5 15 16 26 29.9940000  0  6G 2G 4G 5G24G 7G 9
   5915007.69849   4609257.49545  22306845.298    22306844.122    22306857.677
       210.000         153.000
 -18958048.20649 -14756466.73647  18721061.271    18721061.658    18721068.544
       237.000         205.000
 -22119226.23649 -17212235.13447  20237492.016    20237491.881    20237499.950
       233.000         189.000
 -26169565.91049 -20367984.36147  18988851.879    18988852.104    18988861.061
       241.000         206.000
   4589797.50849   3577456.58246  21179294.953    21179294.287    21179303.381
       227.000         182.000
 -15611895.54749 -12141006.97847  19694209.367    19694209.356    19694216.823
       242.000         208.000
 00  5 15 16 26 59.9940000  0  6G 2G 4G 5G24G 7G 9
   5967045.00249   4649805.70245  22316747.934    22316746.764    22316760.383
       210.000         152.000
 -18965517.30849 -14762286.83447  18719639.970    18719640.350    18719647.253
       237.000         206.000
 -22228693.78449 -17297534.49147  20216660.990    20216660.867    20216668.951
       232.000         188.000
 -26255021.61249 -20434573.17547  18972590.198    18972590.398    18972599.349
       241.000         206.000
   4620553.73649   3601422.37946  21185147.719    21185147.051    21185156.212
       226.000         182.000
 -15609406.98149 -12139067.88447  19694682.997    19694682.960    19694690.427
       242.000         208.000
 00  5 15 16 27 29.9940000  0  6G 2G 4G 5G24G 7G 9
   6019270.53049   4690500.57445  22326686.324    22326685.171    22326698.836
       209.000         152.000
 -18972460.10649 -14767696.81947  18718318.867    18718319.218    18718326.118
       237.000         206.000
 -22338019.66149 -17382723.46047  20195856.967    20195856.830    20195864.870
       233.000         189.000
 -26340014.07449 -20500801.02547  18956416.664    18956416.851    18956425.788
       241.000         206.000
   4651325.53149   3625400.31846  21191003.418    21191002.796    21191011.985
       226.000         182.000
 -15606434.36349 -12136751.60647  19695248.763    19695248.681    19695256.151
       242.000         208.000
 00  5 15 16 27 59.9940000  0  7G30G 2G 4G 5G24G 7G 9
   -302328.56259   -214787.25755  23296168.826    23296170.457    23296180.357
       210.000         139.000
   6071706.29949   4731359.26845  22336664.688    22336663.540    22336677.365
       206.000         150.000
 -18978855.04249 -14772679.90447  18717101.967    18717102.329    18717109.229
       237.000         206.000
 -22447179.03949 -17467782.68447  20175084.659    20175084.483    20175092.507
       233.000         190.000
 -26424519.20449 -20566649.13147  18940335.864    18940336.039    18940344.940
       241.000         206.000
   4682135.49449   3649407.98146  21196866.429    21196865.805    21196875.017
       225.000         181.000
 -15602956.40749 -12134041.56747  19695910.626    19695910.565    19695918.042
       242.000         208.000
 00  5 15 16 28 29.9940000  0  7G30G 2G 4G 5G24G 7G 9
   -436140.88649   -319056.55245  23270705.462    23270706.360    23270716.553
       211.000         144.000
   6124342.04849   4772373.78545  22346681.144    22346680.008    22346693.930
       208.000         147.000
 -18984713.18749 -14777244.70247  18715987.243    18715987.585    18715994.498
       237.000         206.000
 -22556179.34249 -17552717.94847  20154342.611    20154342.399    20154350.401
       233.000         190.000
 -26508545.00049 -20632123.73147  18924346.325    18924346.453    18924355.323
       241.000         206.000
   4712973.75849   3673437.70546  21202734.857    21202734.195    21202743.434
       225.000         181.000
 -15598983.82049 -12130946.09447  19696666.694    19696666.579    19696674.043
       242.000         208.000
 00  5 15 16 28 59.9940000  0  7G30G 2G 4G 5G24G 7G 9
   -570013.84959   -423373.13155  23245230.422    23245231.181    23245241.222
       211.000         145.000
   6177176.86649   4813543.40545  22356735.602    22356734.392    22356748.348
       207.000         146.000
 -18990035.99449 -14781392.36147  18714974.378    18714974.719    18714981.637
       237.000         206.000
 -22665018.79749 -17637527.87747  20133631.159    20133630.927    20133638.938
       233.000         191.000
 -26592090.54749 -20697224.11747  18908448.160    18908448.277    18908457.094
       241.000         206.000
   4743839.77349   3697489.05546  21208608.538    21208607.855    21208617.126
       224.000         180.000
 -15594518.43349 -12127466.62847  19697516.512    19697516.371    19697523.836
       242.000         208.000
 00  5 15 16 29 29.9940000  0  7G30G 2G 4G 5G24G 7G 9
   -703938.92149   -527730.27245  23219745.356    23219745.986    23219756.292
       211.000         145.000
   6230217.05249   4854873.06245  22366829.091    22366827.869    22366841.866
       207.000         147.000
 -18994817.83149 -14785118.48247  18714064.483    18714064.790    18714071.705
       238.000         206.000
 -22773688.24249 -17722205.33747  20112952.027    20112951.801    20112959.803
       234.000         191.000
 -26675147.21149 -20761943.55647  18892643.024    18892643.104    18892651.880
       241.000         205.000
   4774740.40249   3721567.36346  21214488.778    21214488.111    21214497.383
       224.000         179.000
 -15589554.45549 -12123598.65347  19698461.188    19698461.042    19698468.510
       242.000         207.000
 00  5 15 16 29 59.9940000  0  7G30G 2G 4G 5G24G 7G 9
   -837916.80949   -632128.58645  23194250.254    23194250.598    23194261.258
       211.000         146.000
   6283459.68049   4896360.43745  22376961.190    22376959.844    22376973.912
       207.000         146.000
 -18999062.07049 -14788425.69147  18713256.869    18713257.162    18713264.063
       237.000         206.000
 -22882187.58949 -17806750.25647  20092305.287    20092305.048    20092313.045
       233.000         192.000
 -26757716.04849 -20826282.87147  18876930.700    18876930.765    18876939.500
       239.000         205.000
   4805673.44749   3745670.93746  21220375.214    21220374.546    21220383.824
       225.000         179.000
 -15584095.49949 -12119344.97947  19699500.104    19699499.910    19699507.356
       242.000         207.000
 00  5 15 16 30 29.9940000  0  7G30G 2G 4G 5G24G 7G 9
   -971951.03349   -736570.79445  23168744.517    23168744.922    23168755.221
       210.000         147.000
   6336898.91549   4938001.01945  22387130.609    22387129.308    22387143.335
       207.000         145.000
 -19002775.29849 -14791319.12347  18712550.294    18712550.575    18712557.476
       238.000         205.000
 -22990520.02149 -17891165.11247  20071690.276    20071690.054    20071698.038
       234.000         192.000
 -26839800.87249 -20890245.03347  18861310.437    18861310.529    18861319.239
       238.000         204.000
   4836633.56949   3769795.60846  21226266.817    21226266.130    21226275.423
       225.000         179.000
 -15578148.23349 -12114710.79747  19700631.898    19700631.703    19700639.130
       242.000         207.000
 00  5 15 16 30 59.9940000  0  7G30G 2G 4G 5G24G 7G 9
  -1106043.84849   -841058.64045  23143227.640    23143227.967    23143238.133
       210.000         147.000
   6390530.22349   4979791.25045  22397336.749    22397335.338    22397349.350
       207.000         144.000
 -19005962.46049 -14793802.64347  18711943.807    18711944.095    18711950.999
       237.000         205.000
 -23098686.92449 -17975450.97747  20051106.831    20051106.590    20051114.547
       235.000         193.000
 -26921403.93249 -20953831.79847  18845781.860    18845781.957    18845790.651
       238.000         204.000
   4867616.97049   3793938.41846  21232162.847    21232162.175    21232171.466
       225.000         179.000
 -15571717.66949 -12109700.02547  19701855.631    19701855.438    19701862.875
       242.000         206.000
 00  5 15 16 31 29.9940000  0  7G30G 2G 4G 5G24G 7G 9
  -1240181.85549   -945581.67045  23117701.929    23117702.276    23117712.620
       208.000         146.000
   6444364.48849   5021739.62845  22407581.400    22407580.001    22407593.981
       206.000         143.000
 -19008613.36949 -14795868.29747  18711439.373    18711439.674    18711446.576
       237.000         205.000
 -23206674.52349 -18059597.13647  20030557.537    20030557.238    20030565.174
       235.000         193.000
 -27002512.36049 -21017033.13947  18830347.419    18830347.512    18830356.191
       239.000         204.000
   4898635.02749   3818108.23046  21238065.493    21238064.814    21238074.095
       225.000         179.000
 -15564793.94249 -12104304.97347  19703173.214    19703173.031    19703180.456
       242.000         206.000
 00  5 15 16 31 59.9940000  0  7G30G 2G 4G 5G24G 7G 9
  -1374385.68149  -1050156.01945  23092163.646    23092164.126    23092174.546
       206.000         143.000
   6498379.00349   5063828.45845  22417860.222    22417858.949    22417872.867
       204.000         142.000
 -19010751.60649 -14797534.46947  18711032.500    18711032.789    18711039.693
       237.000         205.000
 -23314502.83849 -18143619.16347  20010038.466    20010038.179    20010046.085
       235.000         193.000
 -27083147.05649 -21079865.33347  18815003.119    18815003.203    18815011.888
       238.000         204.000
   4929665.59649   3842287.80846  21243970.533    21243969.849    21243979.129
       225.000         179.000
 -15557400.30649 -12098543.75547  19704580.227    19704580.034    19704587.448
       241.000         205.000
 00  5 15 16 32 29.9940000  0  7G30G 2G 4G 5G24G 7G 9
  -1508640.65549  -1154770.22245  23066615.737    23066616.253    23066626.651
       203.000         140.000
   6552585.99149   5106067.28145  22428175.751    22428174.429    22428188.481
       204.000         143.000
 -19012365.48749 -14798792.05547  18710725.436    18710725.700    18710732.589
       238.000         205.000
 -23422156.56049 -18227505.16547  19989552.670    19989552.340    19989560.210
       235.000         193.000
 -27163293.88749 -21142317.38447  18799751.656    18799751.741    18799760.414
       238.000         204.000
   4960721.47549   3866487.08746  21249880.363    21249879.663    21249888.992
       224.000         179.000
 -15549525.39449 -12092407.52247  19706078.803    19706078.620    19706086.031
       241.000         205.000
 00  5 15 16 32 59.9940000  0  7G30G 2G 4G 5G24G 7G 9
  -1642959.40749  -1259434.09845  23041055.717    23041056.136    23041066.627
       202.000         135.000
   6606970.89849   5148444.71045  22438525.151    22438523.837    22438538.041
       204.000         142.000
 -19013470.44449 -14799653.07947  18710515.208    18710515.459    18710522.338
       237.000         205.000
 -23529647.46949 -18311264.29347  19969097.867    19969097.505    19969105.341
       235.000         194.000
 -27242965.34849 -21204399.01547  18784590.666    18784590.736    18784599.389
       238.000         203.000
   4991788.68049   3890695.18146  21255792.376    21255791.649    21255800.969
       225.000         178.000
 -15541184.22349 -12085907.97147  19707666.139    19707665.924    19707673.344
       241.000         205.000
 00  5 15 16 33 29.9940000  0  7G30G 2G 4G 5G24G 7G 9
  -1777337.68249  -1364144.38345  23015484.440    23015484.794    23015495.232
       200.000         133.000
   6661535.19449   5190961.91945  22448908.702    22448907.289    22448921.643
       204.000         140.000
 -19014065.45949 -14800116.74247  18710402.015    18710402.257    18710409.116
       237.000         205.000
 -23636971.04949 -18394893.02847  19948674.846    19948674.498    19948682.315
       235.000         194.000
 -27322157.90249 -21266107.46747  18769520.804    18769520.866    18769529.518
       238.000         204.000
   5022869.52749   3914913.93046  21261706.922    21261706.208    21261715.550
       223.000         178.000
 -15532376.15349 -12079044.59647  19709342.338    19709342.101    19709349.524
       241.000         205.000
 00  5 15 16 33 59.9940000  0  7G30G 2G 4G 5G24G 7G 9
  -1911788.23749  -1468910.95344  22989899.203    22989899.714    22989910.271
       195.000         130.000
   6716263.49549   5233606.90845  22459323.410    22459321.985    22459336.402
       202.000         140.000
 -19014166.46849 -14800195.47247  18710382.812    18710383.047    18710389.899
       237.000         205.000
 -23744139.45749 -18478400.85647  19928281.352    19928281.004    19928288.831
       235.000         194.000
 -27400884.95249 -21327453.19647  18754539.515    18754539.575    18754548.233
       237.000         203.000
   5053949.37749   3939131.87546  21267621.223    21267620.566    21267629.955
       223.000         176.000
 -15523117.15449 -12071829.85147  19711104.358    19711104.089    19711111.496
       242.000         205.000
 00  5 15 16 34 29.9940000  0  7G30G 2G 4G 5G24G 7G 9
  -2046304.77749  -1573728.97344  22964301.444    22964301.976    22964312.643
       199.000         127.000
   6771160.17649   5276383.10345  22469770.228    22469768.809    22469783.180
       201.000         137.000
 -19013770.14349 -14799886.67047  18710458.248    18710458.481    18710465.347
       237.000         205.000
 -23851145.50649 -18561782.16947  19907918.785    19907918.433    19907926.223
       235.000         194.000
 -27479140.29649 -21388431.36247  18739648.013    18739648.060    18739656.691
       237.000         203.000
   5085033.02249   3963352.79446  21273536.351    21273535.660    21273545.103
       223.000         178.000
 -15513403.78449 -12064261.05047  19712952.822    19712952.543    19712959.932
       241.000         205.000
 00  5 15 16 34 59.9940000  0  7G30G 2G 4G 5G24G 7G 9
  -2180878.88349  -1678591.84544  22938692.836    22938693.310    22938703.859
       203.000         130.000
   6826230.83749   5319294.86645  22480250.132    22480248.698    22480263.196
       198.000         135.000
 -19012871.41049 -14799186.38347  18710629.262    18710629.509    18710636.376
       237.000         205.000
 -23957980.57949 -18645030.25947  19887588.695    19887588.384    19887596.174
       234.000         194.000
 -27556916.24249 -21449035.97347  18724847.657    18724847.760    18724856.388
       237.000         203.000
   5116127.00849   3987581.76346  21279453.397    21279452.733    21279462.210
       223.000         177.000
 -15503231.21049 -12056334.42847  19714888.606    19714888.359    19714895.759
       241.000         205.000
 00  5 15 16 35 29.9940000  0  7G30G 2G 4G 5G24G 7G 9
  -2315508.75949  -1783498.17645  22913073.728    22913074.115    22913084.730
       206.000         132.000
   6881475.14249   5362341.91645  22490763.142    22490761.637    22490776.279
       198.000         135.000
 -19011471.40549 -14798095.49347  18710895.679    18710895.929    18710902.819
       237.000         205.000
 -24064642.20649 -18728143.18947  19867291.620    19867291.323    19867299.111
       235.000         194.000
 -27634211.48949 -21509266.01247  18710138.824    18710138.943    18710147.572
       237.000         203.000
   5147231.44949   4011818.88246  21285372.474    21285371.788    21285381.313
       223.000         177.000
 -15492600.75449 -12048051.01147  19716911.489    19716911.301    19716918.727
       241.000         205.000
 00  5 15 16 35 59.9940000  0  7G30G 2G 4G 5G24G 7G 9
  -2450197.68249  -1888450.54345  22887443.347    22887443.788    22887454.185
       212.000         134.000
   6936887.35749   5405519.79944  22501308.037    22501306.546    22501321.174
       196.000         129.000
 -19009576.67549 -14796619.10747  18711256.228    18711256.500    18711263.386
       237.000         205.000
 -24171132.89149 -18811122.92547  19847027.107    19847026.812    19847034.583
       235.000         195.000
 -27711029.73149 -21569124.36147  18695520.799    18695520.884    18695529.512
       238.000         203.000
   5178341.39449   4036060.29146  21291292.631    21291291.912    21291301.449
       223.000         177.000
 -15481518.83949 -12039415.81747  19719020.351    19719020.155    19719027.603
       241.000         204.000
 00  5 15 16 36 29.9940000  0  7G30G 2G 4G 5G24G 7G 9
  -2584953.13449  -1993454.75945  22861800.275    22861800.620    22861811.010
       215.000         140.000
   6992457.36549   5448820.61644  22511883.029    22511881.554    22511896.242
       195.000         128.000
 -19007198.00449 -14794765.62347  18711708.896    18711709.166    18711716.058
       238.000         205.000
 -24277459.86549 -18893975.09347  19826793.758    19826793.438    19826801.185
       235.000         195.000
 -27787379.07049 -21628617.33447  18680992.022    18680992.078    18681000.684
       237.000         203.000
   5209447.63649   4060298.81846  21297211.982    21297211.291    21297220.898
       222.000         177.000
 -15469996.25449 -12030437.24347  19721213.079    19721212.881    19721220.323
       241.000         204.000
 00  5 15 16 36 59.9940000  0  7G30G 2G 4G 5G24G 7G 9
  -2719748.73449  -2098490.23845  22836149.471    22836149.808    22836160.337
       216.000         144.000
   7048208.74049   5492262.74744  22522492.623    22522491.203    22522505.835
       197.000         127.000
 -19004312.32549 -14792517.07047  18712258.021    18712258.291    18712265.211
       237.000         205.000
 -24383596.36849 -18976678.83447  19806596.630    19806596.330    19806604.071
       236.000         195.000
 -27863234.06549 -21687725.10447  18666557.292    18666557.340    18666565.935
       237.000         203.000
   5240574.64449   4084553.51046  21303135.352    21303134.631    21303144.306
       222.000         177.000
 -15458009.92349 -12021097.30747  19723494.080    19723493.844    19723501.290
       241.000         204.000
 00  5 15 16 37 29.9940000  0  7G30G 2G 4G 5G24G 7G 9
  -2854604.01349  -2203572.25945  22810487.338    22810487.712    22810498.224
       218.000         148.000
   7104119.49949   5535829.11244  22533132.424    22533131.042    22533145.569
       198.000         128.000
 -19000942.33949 -14789891.13447  18712899.364    18712899.617    18712906.529
       238.000         205.000
 -24489561.24549 -19059248.84847  19786432.229    19786431.877    19786439.595
       236.000         194.000
 -27938614.84349 -21746463.35047  18652212.843    18652212.846    18652221.417
       237.000         203.000
   5271701.13349   4108807.80346  21309058.676    21309057.914    21309067.583
       222.000         177.000
 -15445582.95249 -12011414.01347  19725858.916    19725858.675    19725866.118
       241.000         204.000
 00  5 15 16 37 59.9930000  0  7G30G 2G 4G 5G24G 7G 9
  -2989512.85149  -2308695.98045  22784815.075    22784815.402    22784825.825
       220.000         151.000
   7160187.07549   5579517.65044  22543802.147    22543800.726    22543815.200
       201.000         131.000
 -18997090.12749 -14786889.43947  18713632.457    18713632.692    18713639.591
       238.000         205.000
 -24595348.76549 -19141680.65947  19766301.541    19766301.174    19766308.854
       235.000         194.000
 -28013517.57449 -21804829.09447  18637959.351    18637959.336    18637967.874
       237.000         203.000
   5302826.01849   4133060.85046  21314981.626    21314980.884    21314990.556
       222.000         176.000
 -15432717.44149 -12001389.00047  19728307.250    19728306.969    19728314.393
       241.000         204.000
 00  5 15 16 38 29.9930000  0  8G30G 2G10G 4G 5G24G 7G 9
  -3124480.74149  -2413865.71445  22759131.520    22759131.875    22759142.204
       219.000         153.000
   7216416.21649   5623332.10344  22554502.654    22554501.110    22554515.735
       201.000         129.000
  -2659020.99259  -2045978.00655  23295323.612    23295323.095    23295344.148
       203.000         139.000
 -18992754.82949 -14783511.32247  18714457.506    18714457.705    18714464.587
       238.000         205.000
 -24700961.67749 -19223976.41747  19746204.087    19746203.700    19746211.368
       236.000         195.000
 -28087944.70249 -21862824.24347  18623796.341    18623796.327    18623804.830
       237.000         203.000
   5333953.39349   4157315.82846  21320905.074    21320904.306    21320914.009
       222.000         176.000
 -15419412.10449 -11991021.27247  19730839.195    19730838.930    19730846.355
       241.000         204.000
 00  5 15 16 38 59.9930000  0  8G30G 2G10G 4G 5G24G 7G 9
  -3259477.28949  -2519057.78245  22733442.435    22733442.891    22733453.126
       214.000         151.000
   7272827.96349   5667288.85344  22565237.798    22565236.278    22565250.999
       202.000         128.000
  -2789569.09949  -2147703.49145  23270480.980    23270480.541    23270501.574
       195.000         141.000
 -18987914.75049 -14779739.86747  18715378.604    18715378.791    18715385.631
       238.000         205.000
 -24806370.55749 -19306113.18847  19726145.455    19726145.061    19726152.666
       235.000         195.000
 -28161868.83649 -21920427.44547  18609729.050    18609729.020    18609737.506
       237.000         203.000
   5365105.81149   4181590.32546  21326833.289    21326832.495    21326842.235
       221.000         174.000
 -15405645.45249 -11980294.07447  19733458.960    19733458.694    19733466.110
       241.000         204.000
 00  5 15 16 39 29.9930000  0  9G30G 2G10G 4G 5G24G 7G 9G16
  -3394521.25449  -2624286.78145  22707744.317    22707744.777    22707755.063
       213.000         150.000
   7329401.51049   5711371.68645  22576003.727    22576002.257    22576017.151
       203.000         132.000
  -2920307.99349  -2249577.60245  23245601.953    23245601.489    23245622.543
       200.000         140.000
 -18982591.28849 -14775591.75547  18716391.704    18716391.855    18716398.679
       239.000         205.000
 -24911593.19449 -19388104.83347  19706122.232    19706121.823    19706129.443
       235.000         194.000
 -28235309.17949 -21977653.66747  18595753.838    18595753.797    18595762.254
       237.000         203.000
   5396263.16549   4205868.65546  21332762.340    21332761.606    21332771.384
       222.000         175.000
 -15391439.34149 -11969224.44447  19736162.370    19736162.091    19736169.498
       241.000         204.000
 -11337787.95759  -8604487.10355  22468608.934    22468608.374    22468620.203
       216.000         151.000
 00  5 15 16 39 59.9930000  0  9G30G 2G10G 4G 5G24G 7G 9G16
  -3529629.26049  -2729565.69045  22682033.934    22682034.478    22682044.825
       211.000         151.000
   7386117.44449   5755565.43445  22586796.955    22586795.459    22586810.441
       203.000         134.000
  -3051253.84149  -2351612.97445  23220683.314    23220683.030    23220704.097
       198.000         133.000
 -18976804.88249 -14771082.90647  18717492.863    18717493.013    18717499.820
       238.000         205.000
 -25016645.97049 -19469964.12747  19686131.358    19686130.951    19686138.523
       235.000         195.000
 -28308283.54049 -22034516.78347  18581867.286    18581867.238    18581875.673
       237.000         202.000
   5427406.85149   4230136.34446  21338688.892    21338688.128    21338697.930
       222.000         174.000
 -15376814.04649 -11957828.18247  19738945.565    19738945.255    19738952.646
       241.000         204.000
 -11361864.31949  -8623247.88945  22464027.422    22464026.803    22464038.623
       215.000         151.000
 00  5 15 16 40 29.9930000  0  9G30G 2G10G 4G 5G24G 7G 9G16
  -3664786.37049  -2834882.84445  22656314.364    22656314.849    22656325.221
       212.000         152.000
   7442987.96449   5799879.62145  22597619.454    22597617.957    22597633.096
       199.000         135.000
  -3182390.16249  -2453796.73945  23195728.703    23195728.369    23195749.396
       200.000         137.000
 -18970543.92749 -14766204.27747  18718684.327    18718684.469    18718691.253
       238.000         205.000
 -25121513.50649 -19551679.07247  19666175.713    19666175.318    19666182.887
       235.000         195.000
 -28380777.44349 -22091005.52147  18568072.204    18568072.114    18568080.515
       237.000         202.000
   5458550.22449   4254403.78746  21344615.476    21344614.615    21344624.438
       222.000         175.000
 -15361757.90649 -11946096.19347  19741810.690    19741810.395    19741817.814
       241.000         205.000
 -11385443.62249  -8641621.35645  22459540.493    22459539.858    22459551.637
       216.000         150.000
 00  5 15 16 40 59.9930000  0  9G30G 2G10G 4G 5G24G 7G 9G16
  -3800004.47149  -2940247.52845  22630583.133    22630583.618    22630594.014
       212.000         153.000
   7499998.62449   5844302.99545  22608468.750    22608467.059    22608482.248
       200.000         134.000
  -3313727.90949  -2556137.49045  23170735.759    23170735.414    23170756.468
       201.000         137.000
 -18963823.92049 -14760967.94747  18719963.110    18719963.260    18719970.058
       238.000         205.000
 -25226207.04849 -19633258.44047  19646253.167    19646252.779    19646260.349
       235.000         194.000
 -28452803.79549 -22147129.93047  18554366.038    18554365.942    18554374.324
       237.000         202.000
   5489679.47049   4278660.22146  21350539.267    21350538.411    21350548.247
       220.000         174.000
 -15346286.52449 -11934040.63747  19744754.865    19744754.558    19744761.998
       241.000         205.000
 -11408539.31349  -8659618.00045  22455145.501    22455144.857    22455156.668
       213.000         149.000
 00  5 15 16 41 29.9930000  0  9G30G 2G10G 4G 5G24G 7G 9G16
  -3935274.46149  -3045652.63245  22604842.127    22604842.602    22604852.941
       212.000         152.000
   7557155.96149   5888840.66045  22619345.989    22619344.203    22619359.360
       197.000         134.000
  -3445256.37849  -2658626.84045  23145706.409    23145706.031    23145727.243
       202.000         140.000
 -18956638.81849 -14755369.21047  18721330.429    18721330.569    18721337.368
       238.000         205.000
 -25330716.72949 -19714694.54547  19626365.640    19626365.222    19626372.807
       235.000         195.000
 -28524354.25649 -22202883.51747  18540750.425    18540750.336    18540758.680
       237.000         202.000
   5520802.11549   4302911.50446  21356461.725    21356460.900    21356470.776
       221.000         173.000
 -15330394.07049 -11921656.98047  19747779.172    19747778.842    19747786.291
       241.000         205.000
 -11431143.24149  -8677231.45445  22450844.069    22450843.492    22450855.331
       215.000         152.000
 00  5 15 16 41 59.9930000  0  9G30G 2G10G 4G 5G24G 7G 9G16
  -4070590.14049  -3151093.35545  22579092.383    22579092.829    22579103.224
       211.000         151.000
   7614463.14348   5933495.08145  22630251.608    22630249.740    22630265.054
       193.000         133.000
  -3576969.07449  -2761259.78445  23120641.927    23120641.684    23120662.890
       204.000         137.000
 -18948986.45449 -14749406.37147  18722786.655    18722786.793    18722793.594
       238.000         204.000
 -25435036.08149 -19795982.33047  19606514.300    19606513.890    19606521.475
       235.000         194.000
 -28595423.59649 -22258262.20147  18527226.373    18527226.289    18527234.609
       237.000         202.000
   5551922.48849   4327161.01746  21362383.958    21362383.040    21362392.903
       222.000         174.000
 -15314078.15649 -11908943.35347  19750884.084    19750883.745    19750891.181
       242.000         205.000
     -7891.10253                  22446635.078
       214.000          74.000
 00  5 15 16 42 29.9930000  0  9G30G 2G10G 4G 5G24G 7G 9G16
  -4205945.81049  -3256565.23845  22553334.839    22553335.453    22553345.860
       213.000         150.000
   7671923.25248   5978268.63544  22641186.162    22641184.396    22641199.855
       192.000         131.000
  -3708858.83049  -2864030.64445  23095543.568    23095543.602    23095564.813
       201.000         137.000
 -18940864.36849 -14743077.52347  18724332.308    18724332.418    18724339.219
       239.000         205.000
 -25539158.97449 -19877117.03447  19586700.398    19586699.962    19586707.531
       235.000         195.000
 -28666007.44049 -22313262.58147  18513794.730    18513794.622    18513802.930
       236.000         201.000
   5583044.35849   4351411.69546  21368306.361    21368305.454    21368315.296
       221.000         174.000
 -15297336.97849 -11895898.36547  19754069.870    19754069.537    19754076.989
       241.000         204.000
    -36124.87149    -24727.80545  22442524.122    22442524.899    22442537.356
       213.000         150.000
 00  5 15 16 42 59.9930000  0  9G30G 2G10G 4G 5G24G 7G 9G16
  -4341343.97849  -3362070.24245  22527569.454    22527569.975    22527580.355
       215.000         151.000
   7729531.07748   6023157.29445  22652149.134    22652147.258    22652162.864
       194.000         132.000
  -3840927.01149  -2966940.60845  23070411.589    23070411.608    23070432.876
       199.000         140.000
 -18932279.00949 -14736387.67847  18725966.127    18725966.205    18725973.001
       239.000         204.000
 -25643087.52549 -19958100.31647  19566923.429    19566923.005    19566930.559
       235.000         194.000
 -28736109.14849 -22367887.26347  18500454.833    18500454.719    18500463.009
       236.000         201.000
   5614163.47649   4375660.23346  21374228.254    21374227.322    21374237.187
       221.000         173.000
 -15280176.62649 -11882526.73847  19757335.462    19757335.104    19757342.560
       241.000         204.000
    -57235.14759    -41177.38655  22438507.521    22438507.763    22438519.456
       214.000         152.000
 00  5 15 16 43 29.9930000  0  9G30G 2G10G 4G 5G24G 7G 9G16
  -4476786.03649  -3467609.45645  22501795.709    22501796.190    22501806.464
       216.000         151.000
   7787282.59949   6068157.93345  22663139.480    22663137.564    22663153.190
       196.000         134.000
  -3973173.79449  -3069989.67945  23045245.655    23045245.598    23045266.891
       201.000         138.000
 -18923234.92249 -14729340.37947  18727687.228    18727687.289    18727694.078
       239.000         204.000
 -25746822.47249 -20038932.72347  19547183.264    19547182.869    19547190.421
       235.000         195.000
 -28805730.93749 -22422137.98047  18487206.236    18487206.141    18487214.406
       236.000         201.000
   5645276.75549   4399904.22246  21380149.047    21380148.104    21380157.988
       221.000         174.000
 -15262601.93649 -11868832.25347  19760679.826    19760679.497    19760686.993
       241.000         204.000
    -77851.33049    -57241.95245  22434584.504    22434584.577    22434596.600
       214.000         154.000
 00  5 15 16 43 59.9930000  0  8G30G 2G10G 4G 5G24G 7G 9
  -4612274.62749  -3573184.93745  22476013.083    22476013.559    22476023.742
       218.000         154.000
   7845172.30149   6113266.24145  22674156.101    22674153.970    22674169.770
       195.000         134.000
  -4105600.84549  -3173179.27445  23020045.285    23020045.372    23020066.539
       199.000         136.000
 -18913738.50449 -14721940.61947  18729494.386    18729494.439    18729501.221
       238.000         204.000
 -25850365.95149 -20119615.94447  19527479.630    19527479.217    19527486.747
       235.000         195.000
 -28874876.48149 -22476017.60347  18474048.295    18474048.173    18474056.410
       236.000         201.000
   5676379.82049   4424140.24246  21386067.973    21386066.942    21386076.812
       222.000         173.000
 -15244619.14049 -11854819.76647  19764101.923    19764101.576    19764109.093
       241.000         203.000
 00  5 15 16 44 29.9930000  0  9G30G 2G10G 4G 5G24G 7G 9G16
  -4747805.36149  -3678793.24845  22450222.516    22450222.905    22450232.995
       219.000         155.000
   7903201.63049   6158483.35945  22685198.985    22685196.972    22685212.868
       195.000         135.000
  -4238202.75949  -3276505.11845  22994811.733    22994811.850    22994833.051
       199.000         135.000
 -18903789.16749 -14714187.92747  18731387.737    18731387.785    18731394.563
       238.000         204.000
 -25953713.17949 -20200146.23647  19507813.306    19507812.883    19507820.429
       235.000         195.000
 -28943542.63149 -22529523.66947  18460981.574    18460981.454    18460989.649
       236.000         200.000
   5707475.07449   4448370.18946  21391985.282    21391984.283    21391994.190
       221.000         172.000
 -15226227.83749 -11840488.95747  19767601.750    19767601.390    19767608.914
       241.000         203.000
    -13148.69155                  22427016.944
       213.000         151.000
 00  5 15 16 44 59.9930000  0  9G30G 2G10G 4G 5G24G 7G 9G16
  -4883373.09849  -3784430.41445  22424424.846    22424425.214    22424435.235
       218.000         154.000
   7961372.94849   6203811.10145  22696268.906    22696266.990    22696283.062
       198.000         136.000
  -4370973.30549  -3379962.40345  22969546.349    22969546.207    22969567.276
       203.000         138.000
 -18893385.42149 -14706081.15447  18733367.538    18733367.597    18733374.373
       238.000         204.000
 -26056858.74149 -20280519.38647  19488185.320    19488184.908    19488192.431
       235.000         194.000
 -29011725.58549 -22582653.22047  18448006.815    18448006.671    18448014.835
       236.000         200.000
   5738566.00049   4472596.75846  21397901.843    21397900.804    21397910.735
       220.000         173.000
 -15207426.61749 -11825838.73947  19771179.575    19771179.216    19771186.736
       241.000         203.000
      -898.60453                  22423378.086
       217.000          74.000
 00  5 15 16 45 29.9930000  0  9G30G 2G10G 4G 5G24G 7G 9G16
  -5018980.08549  -3890098.14845  22398619.614    22398619.947    22398629.986
       217.000         153.000
   8019681.21749   6249245.54645  22707365.141    22707363.205    22707379.275
       198.000         136.000
  -4503913.58049  -3483551.88845  22944248.504    22944248.268    22944269.284
       197.000         136.000
 -18882533.24449 -14697624.95347  18735432.699    18735432.743    18735439.499
       238.000         204.000
 -26159804.54049 -20360736.87647  19468595.409    19468594.979    19468602.516
       236.000         195.000
 -29079428.52449 -22635408.74047  18435123.373    18435123.229    18435131.363
       236.000         200.000
   5769648.30149   4496816.59946  21403816.809    21403815.740    21403825.651
       221.000         173.000
 -15188221.37049 -11810873.69747  19774834.294    19774833.922    19774841.448
       241.000         203.000
    -15426.65845                  22419827.682
       216.000         156.000
 00  5 15 16 45 59.9930000  0  9G30G 2G10G 4G 5G24G 7G 9G16
  -5154634.66949  -3995802.94345  22372805.293    22372805.668    22372815.624
       214.000         152.000
   8078115.54349   6294778.21345  22718485.208    22718483.321    22718499.429
       199.000         137.000
  -4637030.80948  -3587279.26345  22918916.682    22918916.661    22918937.574
       194.000         135.000
 -18871244.77349 -14688828.78247  18737580.859    18737580.901    18737587.669
       238.000         203.000
 -26262558.30249 -20440804.72347  19449042.024    19449041.570    19449049.137
       235.000         195.000
 -29146661.20149 -22687797.81947  18422329.401    18422329.273    18422337.374
       235.000         199.000
   5800711.96049   4521021.92146  21409728.210    21409727.108    21409737.001
       221.000         173.000
 -15168624.30149 -11795603.33547  19778563.581    19778563.197    19778570.734
       241.000         203.000
    -43551.65049    -29579.48755  22416372.341    22416372.548    22416384.582
       216.000         158.000
 00  5 15 16 46 29.9930000  0  9G30G 2G10G 4G 5G24G 7G 9G16
  -5290329.39749  -4101539.05245  22346983.288    22346983.709    22346993.696
       213.000         152.000
   8136680.33649   6340412.54345  22729629.928    22729628.098    22729644.357
       200.000         137.000
  -4770316.53248  -3691137.93045  22893552.837    22893552.767    22893573.882
       194.000         133.000
 -18859515.88049 -14679689.42747  18739812.835    18739812.859    18739819.634
       239.000         204.000
 -26365112.03749 -20520716.70347  19429526.636    19429526.211    19429533.800
       235.000         194.000
 -29213417.07649 -22739815.36647  18409626.175    18409626.040    18409634.119
       235.000         199.000
   5831762.62549   4545217.13046  21415637.055    21415635.968    21415645.874
       220.000         172.000
 -15148631.87349 -11780024.90347  19782368.035    19782367.674    19782375.234
       240.000         202.000
    -61225.93359    -43351.63245  22413009.287    22413009.337    22413021.182
       216.000         159.000
 00  5 15 16 46 59.9930000  0  9G30G 2G10G 4G 5G24G 7G 9G16
  -5426061.99049  -4207304.63445  22321154.185    22321154.580    22321164.563
       216.000         156.000
   8195375.24249   6386148.24745  22740799.641    22740797.727    22740814.247
       202.000         139.000
  -4903767.21149  -3795125.12945  22868157.992    22868157.699    22868178.763
       195.000         135.000
 -18847348.30649 -14670208.23847  18742128.271    18742128.304    18742135.079
       238.000         204.000
 -26467462.97449 -20600470.66347  19410049.886    19410049.475    19410057.047
       235.000         195.000
 -29279695.18449 -22791460.62747  18397013.855    18397013.733    18397021.784
       235.000         199.000
   5862800.92749   4569402.68646  21421543.528    21421542.452    21421552.423
       219.000         171.000
 -15128245.48949 -11764139.48847  19786247.467    19786247.124    19786254.704
       240.000         202.000
    -78411.33049    -56742.82145  22409739.233    22409739.185    22409750.858
       217.000         160.000
 00  5 15 16 47 29.9930000  0  9G30G 2G10G 4G 5G24G 7G 9G16
  -5561817.62449  -4313088.21945  22295320.757    22295321.126    22295331.082
       218.000         159.000
   8254212.06049   6431994.54545  22751996.283    22751994.428    22752011.124
       201.000         139.000
  -5037366.87049  -3899228.41244  22842734.824    22842734.414    22842755.278
       197.000         131.000
 -18834731.05049 -14660376.65147  18744529.295    18744529.333    18744536.103
       239.000         203.000
 -26569596.06549 -20680054.86447  19390614.624    19390614.191    19390621.790
       235.000         195.000
 -29345482.15349 -22842723.18447  18384495.018    18384494.870    18384502.907
       235.000         198.000
   5893839.70249   4593588.62746  21427450.021    21427449.033    21427459.065
       219.000         171.000
 -15107454.23349 -11747938.59747  19790204.003    19790203.632    19790211.239
       240.000         201.000
    -95094.97749    -69743.04445  22406564.542    22406564.364    22406576.157
       216.000         160.000
 00  5 15 16 47 59.9930000  0  9G30G 2G10G 4G 5G24G 7G 9G16
  -5697608.34749  -4418899.06845  22269480.563    22269480.928    22269490.939
       218.000         161.000
   8313175.80849   6477939.75645  22763217.058    22763215.172    22763232.065
       203.000         139.000
  -5171126.53948  -4003456.36944  22817281.064    22817280.738    22817301.501
       193.000         131.000
 -18821680.05949 -14650207.08547  18747012.858    18747012.884    18747019.665
       239.000         203.000
 -26671522.94749 -20759478.39447  19371218.584    19371218.157    19371225.713
       234.000         194.000
 -29410791.32049 -22893613.43047  18372067.118    18372066.963    18372074.958
       235.000         198.000
   5924864.99649   4617764.05346  21433353.960    21433353.035    21433363.128
       218.000         170.000
 -15086274.24349 -11731434.79747  19794234.504    19794234.103    19794241.728
       240.000         201.000
   -111290.50949    -82362.91245  22403482.669    22403482.466    22403494.240
       217.000         160.000
 00  5 15 16 48 29.9930000  0  9G30G 2G10G 4G 5G24G 7G 9G16
  -5833427.30149  -4524731.95845  22243635.060    22243635.431    22243645.412
       220.000         162.000
   8372270.20649   6523986.74145  22774462.774    22774460.789    22774477.827
       204.000         137.000
  -5305038.46548  -4107802.99344  22791798.260    22791797.868    22791818.542
       194.000         129.000
 -18808192.23649 -14639697.12947  18749579.552    18749579.576    18749586.345
       239.000         204.000
 -26773236.31349 -20838735.55347  19351863.171    19351862.730    19351870.263
       235.000         195.000
 -29475617.14749 -22944127.04747  18359731.168    18359731.004    18359738.986
       235.000         198.000
   5955881.75349   4641932.81946  21439256.239    21439255.372    21439265.591
       216.000         169.000
 -15064702.51349 -11714625.74647  19798339.491    19798339.127    19798346.765
       240.000         201.000
   -126993.00549    -94598.61845  22400494.590    22400494.341    22400506.171
       216.000         158.000
 00  5 15 16 48 59.9930000  0  9G30G 2G10G 4G 5G24G 7G 9G16
  -5969276.17149  -4630588.16245  22217783.950    22217784.249    22217794.157
       220.000         162.000
   8431491.10349   6570132.29845  22785732.503    22785730.671    22785747.810
       202.000         138.000
  -5439102.79148  -4212268.33244  22766286.309    22766285.964    22766306.755
       190.000         130.000
 -18794272.87349 -14628850.91547  18752228.298    18752228.353    18752235.157
       238.000         203.000
 -26874737.26349 -20917827.18547  19332548.172    19332547.732    19332555.266
       235.000         195.000
 -29539962.46449 -22994266.24947  18347486.632    18347486.490    18347494.463
       234.000         198.000
   5986886.86149   4666092.51446  21445156.392    21445155.531    21445165.774
       218.000         168.000
 -15042744.36349 -11697515.59447  19802518.051    19802517.685    19802525.355
       240.000         201.000
   -142205.48549   -106452.47545  22397599.769    22397599.456    22397611.291
       217.000         159.000
 00  5 15 16 49 29.9930000  0  9G30G 2G10G 4G 5G24G 7G 9G16
  -6105165.79049  -4736476.13445  22191925.020    22191925.314    22191935.174
       220.000         160.000
   8490824.43849   6616365.47745  22797023.638    22797021.857    22797039.131
       203.000         135.000
  -5573329.61648  -4316860.32444  22740743.391    22740743.265    22740763.792
       191.000         130.000
 -18779936.80449 -14617679.98847  18754956.358    18754956.441    18754963.257
       238.000         203.000
 -26976036.16049 -20996761.37247  19313271.634    19313271.195    19313278.728
       235.000         195.000
 -29603839.78749 -23044040.77347  18335331.162    18335331.014    18335338.992
       234.000         198.000
   6017867.47149   4690233.13246  21451051.919    21451051.040    21451061.301
       217.000         169.000
 -15020414.35449 -11680115.67647  19806767.375    19806767.008    19806774.694
       241.000         202.000
   -156941.01849   -117934.69145  22394795.692    22394795.333    22394807.172
       215.000         158.000
 00  5 15 16 49 59.9930000  0  9G30G 2G10G 4G 5G24G 7G 9G16
  -6241059.03149  -4842366.94345  22166065.341    22166065.685    22166075.527
       221.000         158.000
   8550304.65049   6662713.10945  22808342.796    22808340.909    22808358.499
       203.000         133.000
  -5707680.29848  -4421548.79144  22715177.211    22715176.819    22715197.291
       191.000         129.000
 -18765150.71749 -14606158.39747  18757770.105    18757770.171    18757777.003
       238.000         203.000
 -27077095.66649 -21075509.02347  19294040.631    19294040.207    19294047.709
       235.000         195.000
 -29667213.22049 -23093422.66247  18323271.563    18323271.442    18323279.407
       234.000         198.000
   6048858.83549   4714382.12946  21456949.410    21456948.591    21456958.902
       217.000         169.000
 -14997679.70549 -11662400.45747  19811093.719    19811093.341    19811101.055
       240.000         201.000
   -171164.25449   -129017.71945  22392089.130    22392088.739    22392100.510
       215.000         157.000
 00  5 15 16 50 29.9930000  0  9G30G 2G10G 4G 5G24G 7G 9G16
  -6376970.00749  -4948271.55045  22140202.357    22140202.638    22140212.523
       220.000         157.000
   8609914.11049   6709161.43345  22819686.453    22819684.561    22819702.412
       204.000         132.000
  -5842168.56448  -4526344.47144  22689584.711    22689584.624    22689604.862
       192.000         129.000
 -18749933.13649 -14594300.57847  18760665.916    18760666.000    18760672.857
       238.000         203.000
 -27177930.05949 -21154081.25947  19274852.478    19274852.047    19274859.551
       236.000         196.000
 -29730098.80949 -23142424.40647  18311304.865    18311304.724    18311312.685
       234.000         197.000
   6079844.82249   4738526.92146  21462845.941    21462845.103    21462855.431
       217.000         167.000
 -14974558.89249 -11644384.32847  19815493.535    19815493.150    19815500.887
       240.000         201.000
   -184891.29149   -139714.10345  22389476.987    22389476.571    22389488.352
       212.000         156.000
 00  5 15 16 50 59.9930000  0  9G30G 2G10G 4G 5G24G 7G 9G16
  -6512891.30349  -5054184.19245  22114337.436    22114337.621    22114347.523
       218.000         154.000
   8669657.57349   6755714.17144  22831055.680    22831053.781    22831071.723
       201.000         129.000
  -5976785.50248  -4631240.43644  22663967.832    22663967.555    22663987.679
       194.000         127.000
 -18734280.13549 -14582103.46947  18763644.621    18763644.686    18763651.556
       238.000         203.000
 -27278530.93449 -21232471.53647  19255708.809    19255708.336    19255715.833
       235.000         196.000
 -29792490.27249 -23191041.11747  18299432.167    18299432.033    18299439.962
       234.000         197.000
   6110831.04649   4762671.90646  21468742.503    21468741.635    21468752.014
       218.000         167.000
 -14951048.28349 -11626064.46447  19819967.588    19819967.163    19819974.898
       241.000         201.000
   -198116.85749   -150019.73545  22386960.178    22386959.796    22386971.627
       212.000         155.000
 00  5 15 16 51 29.9930000  0  9G30G 2G10G 4G 5G24G 7G 9G16
  -6648827.26049  -5160108.23445  22088469.588    22088469.812    22088479.731
       220.000         159.000
   8729527.44349   6802365.42244  22842449.131    22842447.084    22842465.074
       204.000         129.000
  -6111534.35148  -4736239.21144  22638325.868    22638325.500    22638345.322
       193.000         125.000
 -18718200.30549 -14569573.77047  18766704.573    18766704.617    18766711.486
       238.000         203.000
 -27378902.47749 -21310683.11047  19236608.696    19236608.235    19236615.749
       235.000         196.000
 -29854393.55049 -23239277.42647  18287652.393    18287652.221    18287660.157
       234.000         197.000
   6141811.34949   4786812.27546  21474638.054    21474637.125    21474647.501
       218.000         167.000
 -14927156.38749 -11607447.49347  19824514.150    19824513.717    19824521.453
       240.000         200.000
   -210847.14249   -159939.44745  22384537.758    22384537.287    22384549.072
       211.000         153.000
 00  5 15 16 51 59.9930000  0  9G30G 2G10G 4G 5G24G 7G 9G16
  -6784785.00449  -5266049.29145  22062597.650    22062597.885    22062607.758
       221.000         161.000
   8789513.57249   6849107.26244  22853864.541    22853862.501    22853880.661
       197.000         128.000
  -6246421.23848  -4841345.52244  22612657.497    22612657.085    22612677.006
       191.000         124.000
 -18701704.72849 -14556720.10647  18769843.620    18769843.651    18769850.514
       238.000         203.000
 -27479051.54449 -21388721.33147  19217550.984    19217550.504    19217558.002
       236.000         197.000
 -29915817.50449 -23287140.23747  18275963.792    18275963.621    18275971.547
       234.000         197.000
   6172776.76049   4810941.03646  21480530.788    21480529.799    21480540.141
       217.000         168.000
 -14902894.21649 -11588542.00247  19829131.195    19829130.743    19829138.460
       241.000         200.000
   -223091.43349   -169480.47745  22382207.655    22382207.288    22382219.013
       210.000         153.000
 00  5 15 16 52 29.9930000  0  8G30G10G 4G 5G24G 7G 9G16
  -6920758.17749  -5372002.35746  22036722.655    22036722.991    22036732.876
       222.000         164.000
  -6381438.55048  -4946553.48444  22586964.161    22586963.858    22586983.688
       192.000         127.000
 -18684790.93849 -14543540.56747  18773062.209    18773062.273    18773069.145
       239.000         203.000
 -27578971.44549 -21466580.97747  19198536.830    19198536.353    19198543.869
       236.000         197.000
 -29976757.24349 -23334625.73847  18264367.340    18264367.176    18264375.084
       233.000         197.000
   6203731.70049   4835061.63446  21486421.431    21486420.421    21486430.797
       217.000         167.000
 -14878259.77149 -11569346.42447  19833819.056    19833818.621    19833826.316
       241.000         200.000
   -234845.35749   -178639.38945  22379971.123    22379970.665    22379982.274
       210.000         153.000
 00  5 15 16 52 59.9930000  0  8G30G10G 4G 5G24G 7G 9G16
  -7056748.33049  -5477968.65446  22010844.560    22010844.892    22010854.771
       222.000         165.000
  -6516586.73948  -5051863.42144  22561245.945    22561245.723    22561265.636
       192.000         125.000
 -18667464.56649 -14530039.54047  18776359.320    18776359.400    18776366.275
       239.000         203.000
 -27678663.42149 -21544263.02147  19179566.065    19179565.578    19179573.122
       237.000         198.000
 -30037215.99349 -23381736.43947  18252862.388    18252862.248    18252870.139
       233.000         197.000
   6234672.76949   4859171.42046  21492309.529    21492308.451    21492318.828
       217.000         168.000
 -14853258.76449 -11549865.22047  19838576.672    19838576.216    19838583.916
       240.000         200.000
   -246112.35449   -187418.83845  22377826.934    22377826.595    22377838.236
       208.000         150.000
 00  5 15 16 53 29.9930000  0  8G30G10G 4G 5G24G 7G 9G16
  -7192752.49749  -5583945.86546  21984963.816    21984964.146    21984974.022
       222.000         166.000
  -6651861.90448  -5157272.32244  22535503.472    22535503.479    22535523.320
       189.000         125.000
 -18649726.63849 -14516217.81547  18779734.782    18779734.848    18779741.725
       239.000         203.000
 -27778124.01349 -21621764.76747  19160639.345    19160638.855    19160646.403
       237.000         198.000
 -30097192.40949 -23428471.30147  18241449.219    18241449.108    18241457.000
       233.000         197.000
   6265601.21049   4883271.38846  21498195.121    21498194.048    21498204.459
       218.000         168.000
 -14827892.08249 -11530099.06947  19843403.876    19843403.408    19843411.109
       240.000         199.000
   -256891.87049   -195818.46945  22375775.691    22375775.304    22375786.928
       206.000         148.000
 00  5 15 16 53 59.9930000  0  8G30G10G 4G 5G24G 7G 9G16
  -7328771.46349  -5689934.61246  21959080.175    21959080.538    21959090.476
       221.000         165.000
  -6787263.52149  -5262779.76144  22509737.013    22509736.975    22509756.966
       195.000         126.000
 -18631581.79549 -14502079.01747  18783187.639    18783187.727    18783194.605
       239.000         203.000
 -27877353.63749 -21699086.53447  19141756.548    19141756.069    19141763.640
       237.000         198.000
 -30156688.70649 -23474832.04247  18230127.470    18230127.333    18230135.214
       233.000         197.000
   6296514.41749   4907359.45746  21504077.853    21504076.771    21504087.146
       218.000         167.000
 -14802164.59949 -11510051.78147  19848299.715    19848299.260    19848306.948
       240.000         199.000
   -267186.63249   -203840.36945  22373816.640    22373816.225    22373827.835
       208.000         148.000
 00  5 15 16 54 29.9930000  0  8G30G10G 4G 5G24G 7G 9G16
  -7464796.89649  -5795928.38546  21933195.343    21933195.740    21933205.632
       220.000         164.000
  -6922782.07448  -5368378.30944  22483948.430    22483948.393    22483968.195
       194.000         128.000
 -18613026.21149 -14487620.15947  18786718.698    18786718.770    18786725.643
       239.000         203.000
 -27976343.74849 -21776221.67347  19122919.334    19122918.873    19122926.440
       237.000         198.000
 -30215698.79349 -23520813.91847  18218898.241    18218898.092    18218905.967
       233.000         197.000
   6327418.51949   4931440.45746  21509958.733    21509957.707    21509968.145
       216.000         167.000
 -14776072.52749 -11489720.39347  19853264.913    19853264.470    19853272.195
       240.000         199.000
   -276990.63649   -211479.84845  22371951.054    22371950.639    22371962.191
       207.000         147.000
 00  5 15 16 54 59.9930000  0  8G30G10G 4G 5G24G 7G 9G16
  -7600826.30049  -5901925.27945  21907309.767    21907310.164    21907320.015
       219.000         159.000
  -7058414.12048  -5474065.32044  22458138.204    22458138.369    22458157.865
       191.000         125.000
 -18594061.31049 -14472842.35947  18790327.605    18790327.688    18790334.581
       239.000         202.000
 -28075091.61049 -21853168.04347  19104128.201    19104127.764    19104135.342
       237.000         198.000
 -30274221.70949 -23566416.17747  18207761.729    18207761.571    18207769.432
       234.000         197.000
   6358314.26649   4955514.94046  21515838.049    21515837.098    21515847.595
       216.000         167.000
 -14749617.66349 -11469106.31547  19858299.155    19858298.713    19858306.481
       239.000         199.000
   -286303.52749   -218736.66545  22370178.718    22370178.370    22370189.950
       205.000         144.000
 00  5 15 16 55 29.9930000  0  8G30G10G 4G 5G24G 7G 9G16
  -7736845.51849  -6007914.22245  21881426.170    21881426.544    21881436.338
       216.000         158.000
  -7194144.62748  -5579829.00444  22432309.146    22432309.350    22432328.793
       194.000         127.000
 -18574677.11849 -14457737.83947  18794016.338    18794016.405    18794023.298
       239.000         203.000
 -28173582.66649 -21929914.30247  19085385.995    19085385.541    19085393.109
       237.000         199.000
 -30332245.10749 -23611629.20947  18196720.286    18196720.094    18196727.944
       233.000         197.000
   6389213.88749   4979592.43846  21521718.185    21521717.194    21521727.738
       217.000         167.000
 -14722789.84449 -11448201.61447  19863404.379    19863403.955    19863411.737
       239.000         199.000
   -295113.65549   -225601.70445  22368502.215    22368501.915    22368513.409
       205.000         144.000
 00  5 15 16 55 59.9930000  0  8G30G10G 4G 5G24G 7G 9G16
  -7872857.53949  -6113897.56945  21855543.877    21855544.270    21855554.022
       217.000         157.000
  -7329975.15849  -5685670.67244  22406461.372    22406461.401    22406480.780
       199.000         129.000
 -18554880.55549 -14442311.99147  18797783.547    18797783.599    18797790.499
       239.000         202.000
 -28271819.44449 -22006462.42147  19066692.137    19066691.674    19066699.253
       236.000         198.000
 -30389773.55349 -23656456.55947  18185773.004    18185772.804    18185780.627
       233.000         197.000
   6420112.83249   5003669.41046  21527598.181    21527597.175    21527607.751
       216.000         167.000
 -14695596.04949 -11427011.74147  19868579.256    19868578.819    19868586.656
       238.000         198.000
   -303425.90649   -232078.79645  22366920.416    22366920.033    22366931.647
       200.000         140.000
 00  5 15 16 56 29.9930000  0  8G30G10G 4G 5G24G 7G 9G16
  -8008864.35249  -6219876.84245  21829662.530    21829662.964    21829672.691
       219.000         161.000
  -7465906.91648  -5791591.19744  22380594.273    22380594.316    22380613.554
       193.000         128.000
 -18534678.12949 -14426569.88947  18801627.987    18801628.022    18801634.932
       239.000         203.000
 -28369804.15549 -22082814.13647  19048046.268    19048045.794    19048053.380
       237.000         198.000
 -30446811.19049 -23700901.46347  18174919.109    18174918.918    18174926.720
       233.000         197.000
   6451006.76949   5027742.48246  21533477.158    21533476.169    21533486.833
       216.000         165.000
 -14668042.84849 -11405541.81547  19873822.533    19873822.085    19873829.967
       239.000         199.000
   -311245.06749   -238171.62345  22365432.259    22365431.964    22365443.721
       201.000         139.000
 00  5 15 16 56 59.9930000  0  8G30G10G 4G 5G24G 7G 9G16
  -8144855.00249  -6325843.53746  21803784.305    21803784.778    21803794.464
       221.000         165.000
  -7601927.87649  -5897581.25244  22354710.164    22354710.159    22354729.236
       201.000         131.000
 -18514063.05549 -14410506.24547  18805550.964    18805550.986    18805557.887
       239.000         202.000
 -28467525.50149 -22158960.62147  19029450.492    19029450.028    19029457.612
       237.000         198.000
 -30503349.10049 -23744956.97047  18164160.265    18164160.098    18164167.933
       233.000         197.000
   6481904.69849   5051818.66146  21539356.817    21539355.932    21539366.661
       215.000         166.000
 -14640123.93849 -11383786.92447  19879135.396    19879134.954    19879142.886
       238.000         199.000
   -318562.44649   -243873.47645  22364039.719    22364039.424    22364051.258
       202.000         140.000
 00  5 15 16 57 29.9930000  0  8G30G10G 4G 5G24G 7G 9G16
  -8280834.43149  -6431801.48146  21777908.240    21777908.722    21777918.397
       220.000         166.000
  -7738041.72849  -6003643.70044  22328808.427    22328808.407    22328827.339
       204.000         130.000
 -18493044.16049 -14394127.93647  18809550.780    18809550.796    18809557.690
       239.000         202.000
 -28564987.97449 -22234905.39547  19010903.996    19010903.515    19010911.090
       237.000         198.000
 -30559393.95149 -23788628.28247  18153495.281    18153495.118    18153502.945
       233.000         197.000
   6512799.98249   5075892.76746  21545236.055    21545235.165    21545245.954
       216.000         167.000
 -14611848.27549 -11361754.04547  19884516.116    19884515.706    19884523.679
       239.000         199.000
   -325385.30949   -249190.01545  22362741.101    22362740.970    22362752.918
       201.000         142.000
 00  5 15 16 57 59.9930000  0  8G30G10G 4G 5G24G 7G 9G16
  -8416793.53649  -6537743.58146  21752036.106    21752036.533    21752046.188
       219.000         165.000
  -7874238.21549  -6109770.54744  22302890.918    22302890.777    22302909.587
       198.000         130.000
 -18471616.96749 -14377431.47447  18813628.291    18813628.290    18813635.200
       239.000         202.000
 -28662182.31249 -22310641.23647  18992408.545    18992408.056    18992415.607
       237.000         197.000
 -30614938.61949 -23831909.83947  18142925.480    18142925.314    18142933.154
       233.000         197.000
   6543699.68949   5099970.33446  21551116.199    21551115.274    21551126.114
       217.000         167.000
 -14583211.11549 -11339439.48247  19889965.675    19889965.247    19889973.266
       238.000         199.000
   -331707.02849   -254116.05945  22361538.237    22361538.056    22361549.974
       206.000         145.000
 00  5 15 16 58 29.9930000  0  8G30G10G 4G 5G24G 7G 9G16
  -8552740.29549  -6643676.05745  21726166.289    21726166.725    21726176.366
       217.000         162.000
  -8010524.20349  -6215967.11944  22276956.340    22276956.271    22276974.814
       203.000         129.000
 -18449793.33249 -14360426.09347  18817781.265    18817781.244    18817788.141
       239.000         202.000
 -28759116.22549 -22386174.13647  18973962.636    18973962.144    18973969.672
       237.000         198.000
 -30669992.97849 -23874809.33747  18132449.010    18132448.822    18132456.652
       233.000         197.000
   6574594.15649   5124043.82846  21556995.299    21556994.388    21557005.290
       217.000         167.000
 -14554224.51049 -11316852.62247  19895481.765    19895481.297    19895489.353
       239.000         199.000
   -337537.97949   -258659.66045  22360428.697    22360428.499    22360440.391
       207.000         148.000
 00  5 15 16 58 59.9930000  0  8G30G10G 4G 5G24G 7G 9G16
  -8688675.39249  -6749599.43545  21700298.649    21700299.083    21700308.718
       215.000         158.000
  -8146899.65649  -6322233.44145  22251004.832    22251004.700    22251023.031
       204.000         132.000
 -18427578.31649 -14343115.73847  18822008.666    18822008.667    18822015.565
       239.000         201.000
 -28855790.15149 -22461504.45947  18955566.226    18955565.717    18955573.219
       237.000         198.000
 -30724559.52449 -23917328.72647  18122065.348    18122065.159    18122072.978
       233.000         196.000
   6605480.69449   5148111.13446  21562872.919    21562872.028    21562882.940
       216.000         167.000
 -14524893.87649 -11293997.68147  19901063.277    19901062.804    19901070.892
       238.000         199.000
   -342881.33649   -262823.31145  22359411.957    22359411.687    22359423.565
       208.000         150.000
 00  5 15 16 59 29.9920000  0  8G30G10G 4G 5G24G 7G 9G16
  -8824576.67549  -6855496.43445  21674437.366    21674437.839    21674447.528
       216.000         158.000
  -8283341.02349  -6428551.11145  22225040.849    22225040.592    22225058.683
       204.000         133.000
 -18404959.24249 -14325490.54347  18826312.921    18826312.962    18826319.877
       238.000         201.000
 -28952182.93649 -22536615.70847  18937223.255    18937222.751    18937230.263
       237.000         198.000
 -30778621.12849 -23959454.65247  18111777.749    18111777.568    18111785.421
       232.000         197.000
   6636373.92449   5172183.64846  21568751.812    21568750.931    21568761.874
       217.000         167.000
 -14495206.74649 -11270864.95947  19906712.595    19906712.139    19906720.280
       238.000         198.000
   -347721.71949   -266595.04645  22358490.884    22358490.579    22358502.519
       208.000         152.000
 00  5 15 16 59 59.9920000  0  8G30G10G 4G 5G24G 7G 9G16
  -8960446.74749  -6961369.16045  21648582.125    21648582.565    21648592.253
       219.000         160.000
  -8419849.86649  -6534921.36845  22199063.781    22199063.625    22199081.731
       203.000         133.000
 -18381932.47449 -14307547.65847  18830694.808    18830694.840    18830701.780
       238.000         201.000
 -29048294.52849 -22611507.84547  18918933.850    18918933.332    18918940.815
       237.000         199.000
 -30832177.02449 -24001186.52547  18101586.421    18101586.233    18101594.056
       233.000         196.000
   6667280.39949   5196266.49646  21574633.281    21574632.355    21574643.296
       217.000         165.000
 -14465159.26349 -11247451.43847  19912430.550    19912430.074    19912438.237
       238.000         198.000
   -352055.72749   -269972.19645  22357666.288    22357665.860    22357677.820
       208.000         152.000
 00  5 15 17  0 29.9920000  0  8G30G10G 4G 5G24G 7G 9G16
  -9096278.90649  -7067212.37045  21622734.172    21622734.570    21622744.148
       221.000         159.000
  -8556418.25449  -6641338.01545  22173075.507    22173075.364    22173093.353
       206.000         135.000
 -18358500.97749 -14289289.40047  18835153.707    18835153.727    18835160.683
       238.000         201.000
 -29144119.22549 -22686176.43647  18900699.023    18900698.495    18900705.983
       237.000         198.000
 -30885225.21549 -24042522.78047  18091491.706    18091491.512    18091499.331
       232.000         196.000
   6698199.32849   5220359.02846  21580517.113    21580516.162    21580527.081
       217.000         166.000
 -14434754.65749 -11223759.65047  19918216.465    19918215.959    19918224.146
       238.000         198.000
   -355883.43149   -272954.84445  22356937.869    22356937.460    22356949.421
       207.000         153.000
 00  5 15 17  0 59.9920000  0  8G30G10G 4G 5G24G 7G 9G16
  -9232067.02249  -7173021.27745  21596894.611    21596894.914    21596904.384
       220.000         160.000
  -8693039.17149  -6747795.60945  22147077.234    22147077.103    22147094.856
       207.000         136.000
 -18334663.07349 -14270714.46447  18839689.979    18839689.973    18839696.934
       238.000         201.000
 -29239650.84849 -22760616.65447  18882519.965    18882519.440    18882526.903
       237.000         199.000
 -30937761.87149 -24083460.43647  18081494.364    18081494.134    18081501.936
       233.000         196.000
   6729134.89549   5244464.55146  21586404.081    21586403.115    21586414.071
       217.000         168.000
 -14403991.30749 -11199788.31747  19924070.626    19924070.127    19924078.322
       238.000         198.000
   -359201.71549   -275540.54245  22356306.415    22356306.033    22356318.015
       206.000         152.000
 00  5 15 17  1 29.9920000  0  8G30G10G 4G 5G24G 7G 9G16
  -9367817.83849  -7278801.08945  21571062.142    21571062.364    21571071.767
       218.000         161.000
  -8829718.53349  -6854298.72145  22121067.899    22121067.715    22121085.282
       207.000         137.000
 -18310429.87849 -14251831.51047  18844301.478    18844301.455    18844308.404
       238.000         201.000
 -29334895.89949 -22834833.57747  18864395.454    18864394.910    18864402.384
       236.000         198.000
 -30989795.88649 -24124006.42847  18071592.649    18071592.403    18071600.174
       232.000         196.000
   6760078.18449   5268576.04846  21592292.587    21592291.579    21592302.503
       217.000         166.000
 -14372880.57449 -11175546.30047  19929990.905    19929990.390    19929998.608
       238.000         198.000
   -362019.92049   -277736.59545  22355770.152    22355769.755    22355781.717
       208.000         152.000
 00  5 15 17  1 59.9920000  0  8G30G10G 4G 5G24G 7G 9G16
  -9503537.35949  -7384556.47345  21545235.513    21545235.761    21545245.184
       215.000         160.000
  -8966461.35449  -6960851.30445  22095046.402    22095046.243    22095063.772
       209.000         141.000
 -18285811.92949 -14232648.75447  18848986.205    18848986.149    18848993.079
       239.000         201.000
 -29429860.32349 -22908831.83247  18846324.338    18846323.787    18846331.229
       236.000         198.000
 -31041335.80749 -24164167.41847  18061784.972    18061784.705    18061792.434
       233.000         196.000
   6791021.24249   5292687.37046  21598181.019    21598179.995    21598190.882
       218.000         166.000
 -14341433.10849 -11151041.89647  19935975.273    19935974.722    19935982.966
       238.000         198.000
   -364346.83849   -279549.81445  22355327.516    22355327.056    22355338.947
       210.000         155.000
 00  5 15 17  2 29.9920000  0  8G30G10G 4G 5G24G 7G 9G16
  -9639228.21649  -7490289.51045  21519414.240    21519414.600    21519424.041
       214.000         158.000
  -9103268.90249  -7067454.32045  22069012.706    22069012.442    22069029.899
       210.000         141.000
 -18260815.74549 -14213171.25647  18853742.931    18853742.842    18853749.764
       239.000         202.000
 -29524546.04449 -22982612.90647  18828306.232    18828305.700    18828313.129
       236.000         198.000
 -31092385.89849 -24203946.70947  18052070.532    18052070.221    18052077.922
       233.000         196.000
   6821959.73849   5316795.16646  21604068.539    21604067.526    21604078.399
       216.000         165.000
 -14309655.59649 -11126280.30247  19942022.443    19942021.881    19942030.143
       238.000         199.000
   -366187.58149   -280984.17645  22354977.365    22354976.839    22354988.698
       209.000         154.000
 00  5 15 17  2 59.9920000  0  9G30G10G 4G 5G24G 7G 6G 9G16
  -9774897.41249  -7596005.68545  21493597.146    21493597.518    21493607.007
       215.000         160.000
  -9240146.80049  -7174112.14145  22042965.622    22042965.236    22042982.594
       210.000         143.000
 -18235452.82349 -14193408.00247  18858569.372    18858569.284    18858576.209
       239.000         202.000
 -29618960.10849 -23056182.30847  18810339.790    18810339.284    18810346.724
       237.000         199.000
 -31142955.32749 -24243351.47247  18042447.500    18042447.212    18042454.872
       232.000         196.000
   6852884.88049   5340892.54346  21609953.503    21609952.459    21609963.375
       215.000         165.000
   -232468.52053                  23168857.408
       208.000          85.000
 -14277559.79249 -11101270.70847  19948130.141    19948129.605    19948137.884
       239.000         198.000
   -367551.59549   -282047.08345  22354717.901    22354717.308    22354729.159
       209.000         155.000
 00  5 15 17  3 29.9920000  0  9G30G10G 4G 5G24G 7G 6G 9G16
  -9910533.49949  -7701696.09545  21467786.444    21467786.815    21467796.244
       219.000         161.000
  -9377082.75749  -7280815.20045  22016907.356    22016906.951    22016924.313
       208.000         145.000
 -18209716.18249 -14173353.52947  18863466.936    18863466.867    18863473.774
       240.000         202.000
 -29713091.17749 -23129531.19347  18792427.281    18792426.754    18792434.163
       237.000         199.000
 -31193035.26549 -24282374.80547  18032917.625    18032917.330    18032924.987
       232.000         196.000
   6883805.96749   5364986.75946  21615837.653    21615836.626    21615847.618
       216.000         165.000
    -51888.17243                  23147516.967
       207.000          74.000
 -14245138.73249 -11076007.66047  19954299.790    19954299.232    19954307.496
       239.000         198.000
   -368430.58949   -282732.06645  22354550.736    22354550.136    22354562.003
       211.000         156.000
 00  5 15 17  3 59.9920000  0  9G30G10G 4G 5G24G 7G 6G 9G16
 -10046137.86149  -7807361.78645  21441981.802    21441982.125    21441991.523
       219.000         159.000
  -9514077.09149  -7387563.74145  21990837.906    21990837.583    21990854.926
       209.000         144.000
 -18183611.68649 -14153012.41147  18868434.519    18868434.450    18868441.343
       239.000         202.000
 -29806940.58949 -23202660.59347  18774568.379    18774567.807    18774575.211
       236.000         199.000
 -31242629.26749 -24321019.48647  18023480.262    18023479.928    18023487.586
       232.000         196.000
   6914719.44549   5389075.04846  21621720.448    21621719.388    21621730.387
       216.000         165.000
   -139280.77845                  23126175.073
       210.000         144.000
 -14212398.65649 -11050496.02347  19960530.133    19960529.554    19960537.822
       238.000         197.000
   -368828.94949   -283042.50145  22354475.137    22354474.401    22354486.217
       211.000         156.000
 00  5 15 17  4 29.9920000  0  9G30G10G 4G 5G24G 7G 6G 9G16
 -10181708.96049  -7913001.55045  21416183.466    21416183.771    21416193.077
       216.000         155.000
  -9651127.18249  -7494355.74345  21964757.866    21964757.598    21964774.859
       210.000         147.000
 -18157142.29549 -14132386.96447  18873471.528    18873471.450    18873478.372
       239.000         202.000
 -29900506.52549 -23275569.11047  18756763.381    18756762.824    18756770.209
       237.000         199.000
 -31291738.32449 -24359286.28047  18014135.116    18014134.795    18014142.451
       232.000         197.000
   6945624.97649   5413157.15046  21627601.610    21627600.619    21627611.649
       214.000         164.000
   -656774.36649   -226679.40245  23104831.309    23104830.285    23104844.969
       211.000         147.000
 -14179342.62549 -11024738.18847  19966820.588    19966820.007    19966828.301
       238.000         197.000
   -368747.60349   -282979.16445  22354490.728    22354489.953    22354501.767
       208.000         153.000
 00  5 15 17  4 59.9920000  0  9G30G10G 4G 5G24G 7G 6G 9G16
 -10317250.15949  -8018618.02545  21390390.731    21390391.085    21390400.316
       211.000         153.000
  -9788235.65049  -7601193.22445  21938666.719    21938666.531    21938683.725
       211.000         147.000
 -18130315.93249 -14111483.35647  18878576.443    18878576.387    18878583.309
       239.000         202.000
 -29993792.35049 -23348259.36047  18739011.699    18739011.131    18739018.498
       236.000         199.000
 -31340368.19849 -24397179.69347  18004881.172    18004880.863    18004888.518
       232.000         196.000
   6976517.22749   5437228.89846  21633480.252    21633479.291    21633490.410
       216.000         163.000
   -768950.25449   -314089.02845  23083484.879    23083484.887    23083498.892
       211.000         149.000
 -14145978.28049 -10998740.12047  19973169.693    19973169.116    19973177.443
       238.000         196.000
   -368193.13449   -282547.15245  22354596.180    22354595.454    22354607.312
       208.000         150.000
 00  5 15 17  5 29.9920000  0  9G30G10G 4G 5G24G 7G 6G 9G16
 -10452755.43449  -8124206.48045  21364604.711    21364605.181    21364614.427
       213.000         155.000
  -9925395.13349  -7708070.43845  21912565.783    21912565.739    21912582.939
       210.000         147.000
 -18103130.86249 -14090300.23647  18883749.648    18883749.581    18883756.518
       239.000         201.000
 -30086791.78049 -23420726.43947  18721314.469    18721313.903    18721321.282
       237.000         199.000
 -31388515.04549 -24434696.71947  17995719.130    17995718.832    17995726.490
       233.000         196.000
   7007400.33249   5461293.52646  21639357.265    21639356.256    21639367.425
       215.000         164.000
   -881135.84959   -401506.23555  23062136.600    23062136.216    23062150.692
       212.000         151.000
 -14112304.29649 -10972500.76547  19979577.705    19979577.154    19979585.476
       237.000         196.000
   -367162.34049   -281743.98345  22354792.240    22354791.594    22354803.474
       204.000         148.000
 00  5 15 17  5 59.9920000  0  9G30G10G 4G 5G24G 7G 6G 9G16
 -10588219.34549  -8229762.69045  21338826.699    21338827.163    21338836.467
       215.000         159.000
 -10062599.28749  -7814982.47245  21886456.538    21886456.415    21886473.579
       210.000         149.000
 -18075586.12549 -14068836.86147  18888991.226    18888991.202    18888998.163
       241.000         202.000
 -30179499.49849 -23492966.21547  18703672.775    18703672.215    18703679.590
       236.000         199.000
 -31436176.03449 -24471835.14847  17986649.541    17986649.252    17986656.940
       232.000         197.000
   7038277.68349   5485353.65746  21645233.119    21645232.146    21645243.304
       216.000         164.000
   -993327.98349   -488928.52545  23040787.084    23040786.668    23040801.087
       210.000         152.000
 -14078320.05549 -10946019.65747  19986044.760    19986044.206    19986052.585
       237.000         196.000
   -365652.59449   -280567.61045  22355079.506    22355078.917    22355090.834
       207.000         149.000
 00  5 15 17  6 29.9920000  0  9G30G10G 4G 5G24G 7G 6G 9G16
 -10723635.79849  -8335281.93845  21313057.834    21313058.253    21313067.537
       218.000         162.000
 -10199840.42049  -7921923.30645  21860340.178    21860340.102    21860357.247
       209.000         149.000
 -18047679.91249 -14047091.81347  18894301.653    18894301.631    18894308.596
       241.000         202.000
 -30271909.05649 -23564973.65947  18686087.783    18686087.260    18686094.630
       236.000         199.000
 -31483347.14349 -24508591.85547  17977673.174    17977672.892    17977680.565
       232.000         197.000
   7069153.38849   5509412.51346  21651108.726    21651107.700    21651118.847
       216.000         164.000
  -1105522.51749   -576352.69145  23019437.055    23019436.732    23019451.018
       209.000         151.000
 -14044023.94649 -10919295.53347  19992571.254    19992570.653    19992579.035
       237.000         195.000
   -363660.61349   -279015.47345  22355458.677    22355458.005    22355469.882
       206.000         149.000
 00  5 15 17  6 59.9920000  0  9G30G10G 4G 5G24G 7G 6G 9G16
 -10858995.74549  -8440757.17545  21287299.826    21287300.136    21287309.327
       219.000         161.000
 -10337108.61349  -8028885.23945  21834218.614    21834218.551    21834235.663
       209.000         148.000
 -18019407.87049 -14025061.70647  18899681.724    18899681.677    18899688.642
       240.000         201.000
 -30364011.22349 -23636741.57947  18668561.322    18668560.794    18668568.167
       235.000         199.000
 -31530021.97049 -24544961.85447  17968791.280    17968790.963    17968798.656
       232.000         197.000
   7100034.69549   5533475.73846  21656985.344    21656984.325    21656995.492
       216.000         163.000
  -1217712.34049   -663773.18545  22998087.986    22998087.661    22998101.849
       208.000         149.000
 -14009411.65149 -10892325.03647  19999157.819    19999157.241    19999165.643
       236.000         195.000
   -361180.47249   -277082.92845  22355930.617    22355930.022    22355941.823
       208.000         150.000
 00  5 15 17  7 29.9920000  0  9G30G10G 4G 5G24G 7G 6G 9G16
 -10994300.91149  -8546189.70245  21261552.093    21261552.417    21261561.549
       214.000         158.000
 -10474404.64449  -8135868.86945  21808091.899    21808091.723    21808108.848
       209.000         148.000
 -17990776.40149 -14002751.52747  18905130.156    18905130.118    18905137.094
       241.000         201.000
 -30455807.81649 -23708271.38747  18651092.999    18651092.468    18651099.850
       236.000         199.000
 -31576204.87849 -24580948.53547  17960002.965    17960002.661    17960010.365
       233.000         197.000
   7130917.69949   5557540.29046  21662862.305    21662861.285    21662872.510
       215.000         163.000
  -1329901.54549   -751193.20645  22976738.974    22976738.787    22976752.892
       205.000         146.000
 -13974489.70249 -10865113.24947  20005803.328    20005802.751    20005811.165
       237.000         195.000
   -358217.10449   -274773.86445  22356494.469    22356493.910    22356505.826
       208.000         150.000
 00  5 15 17  7 59.9920000  0  9G30G10G 4G 5G24G 7G 6G 9G16
 -11129546.80949  -8651576.04345  21235815.594    21235815.919    21235824.962
       215.000         157.000
 -10611723.39949  -8242870.19345  21781960.819    21781960.669    21781977.735
       207.000         149.000
 -17961785.52249 -13980161.28547  18910647.023    18910646.950    18910653.919
       241.000         201.000
 -30547294.66749 -23779559.83647  18633683.641    18633683.096    18633690.511
       236.000         199.000
 -31621894.24749 -24616550.64247  17951308.584    17951308.268    17951315.966
       232.000         196.000
   7161804.57349   5581607.85046  21668740.061    21668738.966    21668750.232
       215.000         163.000
  -1442087.86949   -838610.98745  22955390.418    22955390.401    22955404.486
       203.000         143.000
 -13939258.51049 -10837660.49247  20012507.733    20012507.135    20012515.542
       237.000         194.000
   -354769.17149   -272087.20145  22357150.570    22357150.034    22357161.938
       210.000         150.000
 00  5 15 17  8 29.9920000  0  9G30G10G 4G 5G24G 7G 6G 9G16
 -11264739.41249  -8756920.87145  21210089.365    21210089.597    21210098.588
       217.000         159.000
 -10749069.30849  -8349892.68145  21755824.556    21755824.366    21755841.411
       209.000         149.000
 -17932445.69949 -13957299.14347  18916230.270    18916230.183    18916237.164
       241.000         201.000
 -30638477.43049 -23850611.32947  18616332.129    18616331.587    18616339.033
       235.000         199.000
 -31667098.08549 -24651774.41347  17942706.599    17942706.282    17942713.966
       232.000         196.000
   7192687.81949   5605672.57146  21674617.134    21674615.987    21674627.236
       215.000         164.000
  -1554279.10149   -926032.59945  22934041.073    22934041.044    22934055.119
       202.000         142.000
 -13903728.56349 -10809974.94147  20019268.979    20019268.360    20019276.750
       237.000         194.000
   -350845.53349   -269029.84645  22357897.339    22357896.772    22357908.552
       210.000         150.000
 00  5 15 17  8 59.9920000  0  9G30G10G 4G 5G24G 7G 6G 9G16
 -11399871.41249  -8862218.48045  21184374.621    21184374.813    21184383.802
       218.000         162.000
 -10886434.23649  -8456930.00645  21729684.634    21729684.498    21729701.450
       206.000         150.000
 -17902754.15649 -13934162.93447  18921880.426    18921880.353    18921887.322
       241.000         201.000
 -30729348.81849 -23921420.19947  18599039.922    18599039.338    18599046.776
       236.000         199.000
 -31711811.95549 -24686616.39147  17934197.863    17934197.548    17934205.191
       232.000         197.000
   7223572.40349   5629738.34246  21680494.424    21680493.246    21680504.525
       216.000         163.000
  -1666470.32149  -1013454.19445  22912691.924    22912691.707    22912705.806
       204.000         141.000
 -13867897.20849 -10782054.53047  20026087.538    20026086.922    20026095.342
       237.000         194.000
   -346441.99649   -265598.57745  22358735.357    22358734.781    22358746.595
       209.000         150.000
 00  5 15 17  9 29.9920000  0  9G30G10G 4G 5G24G 7G 6G 9G16
 -11534944.62349  -8967470.27346  21158671.038    21158671.228    21158680.211
       218.000         163.000
 -11023819.39349  -8563983.08845  21703540.908    21703540.686    21703557.678
       209.000         151.000
 -17872717.66049 -13910757.93847  18927596.269    18927596.158    18927603.134
       242.000         202.000
 -30819911.08149 -23991988.18947  18581806.511    18581805.914    18581813.360
       236.000         199.000
 -31756040.74449 -24721080.38147  17925781.440    17925781.103    17925788.739
       232.000         197.000
   7254454.28149   5653802.00746  21686371.165    21686370.021    21686381.274
       216.000         163.000
  -1778665.83549  -1100879.12845  22891341.771    22891341.508    22891355.647
       203.000         139.000
 -13831771.43549 -10753904.70047  20032962.136    20032961.507    20032969.958
       236.000         194.000
   -341564.05749   -261797.62645  22359663.697    22359663.047    22359674.844
       208.000         150.000
 00  5 15 17  9 59.9920000  0  9G30G10G 4G 5G24G 7G 6G 9G16
 -11669972.55849  -9072686.78946  21132976.066    21132976.249    21132985.236
       218.000         163.000
 -11161236.65949  -8671061.20745  21677391.012    21677390.865    21677407.807
       208.000         150.000
 -17842354.08949 -13887098.06847  18933374.325    18933374.218    18933381.171
       241.000         202.000
 -30910177.43649 -24062325.59447  18564629.407    18564628.805    18564636.250
       236.000         199.000
 -31799800.21549 -24755178.67447  17917454.258    17917453.954    17917461.596
       232.000         196.000
   7285318.18849   5677851.66946  21692244.519    21692243.351    21692254.590
       217.000         164.000
  -1890880.91249  -1188319.33545  22869987.699    22869987.599    22870001.788
       203.000         139.000
 -13795369.21749 -10725539.45847  20039889.270    20039888.687    20039897.221
       236.000         194.000
   -336227.99349   -257639.70345  22360679.214    22360678.526    22360690.294
       205.000         148.000
 00  5 15 17 10 29.9920000  0  9G30G10G 4G 5G24G 7G 6G 9G16
 -11804949.65349  -9177863.66845  21107290.720    21107290.909    21107299.957
       219.000         161.000
 -11298679.44849  -8778159.21145  21651236.229    21651236.140    21651252.972
       207.000         151.000
 -17811662.42649 -13863182.54747  18939214.829    18939214.706    18939221.662
       241.000         201.000
 -31000142.17249 -24132427.97847  18547509.681    18547509.097    18547516.525
       236.000         199.000
 -31843087.52849 -24788909.04947  17909216.930    17909216.631    17909224.319
       231.000         196.000
   7316167.66549   5701890.06346  21698115.165    21698113.947    21698125.155
       216.000         163.000
  -2003112.24249  -1275772.19845  22848630.797    22848630.651    22848644.727
       204.000         137.000
 -13758689.82549 -10696958.24247  20046869.175    20046868.611    20046877.200
       236.000         194.000
   -330431.41349   -253122.92945  22361782.176    22361781.519    22361793.371
       204.000         148.000
 00  5 15 17 10 59.9920000  0  9G30G10G 4G 5G24G 7G 6G 9G16
 -11939857.17149  -9282986.36146  21081618.547    21081618.789    21081627.877
       219.000         163.000
 -11436128.07749  -8885261.78645  21625080.585    21625080.341    21625097.097
       207.000         152.000
 -17780628.51449 -13839000.34347  18945120.437    18945120.317    18945127.265
       241.000         202.000
 -31089786.49749 -24202280.69347  18530450.973    18530450.366    18530457.772
       236.000         200.000
 -31885886.46749 -24822258.87947  17901072.540    17901072.262    17901079.959
       232.000         197.000
   7347019.45949   5725930.27946  21703986.126    21703984.947    21703996.201
       218.000         163.000
  -2115343.08649  -1363224.67745  22827274.006    22827273.698    22827287.731
       206.000         136.000
 -13721719.41649 -10668150.25947  20053904.440    20053903.907    20053912.540
       236.000         193.000
   -324158.80149   -248235.22545  22362975.796    22362975.144    22362987.042
       205.000         151.000
 00  5 15 17 11 29.9920000  0  9G30G10G 4G 5G24G 7G 6G 9G16
 -12074701.61549  -9388059.91246  21055958.402    21055958.727    21055967.775
       221.000         164.000
 -11573587.96349  -8992373.11445  21598922.663    21598922.405    21598939.035
       205.000         150.000
 -17749263.58349 -13814560.20147  18951089.018    18951088.914    18951095.888
       241.000         201.000
 -31179117.21449 -24271889.03847  18513451.889    18513451.276    18513458.685
       236.000         200.000
 -31928206.55049 -24855235.57647  17893019.320    17893019.031    17893026.711
       232.000         196.000
   7377864.92649   5749965.56146  21709855.967    21709854.772    21709866.066
       217.000         164.000
  -2227582.29549  -1450683.69245  22805915.459    22805915.200    22805929.231
       207.000         137.000
 -13684469.41049 -10639124.41547  20060992.935    20060992.440    20061001.102
       237.000         194.000
   -317420.17549   -242984.37745  22364258.195    22364257.525    22364269.438
       203.000         151.000
 00  5 15 17 11 59.9920000  0  9G30G10G 4G 5G24G 7G 6G 9G16
 -12209477.95849  -9493080.39546  21030311.267    21030311.619    21030320.593
       220.000         164.000
 -11711053.20249  -9099488.63045  21572763.778    21572763.485    21572779.997
       206.000         151.000
 -17717567.38949 -13789861.93347  18957120.607    18957120.533    18957127.527
       240.000         201.000
 -31268129.30649 -24341249.10947  18496513.417    18496512.822    18496520.230
       236.000         200.000
 -31970045.49149 -24887837.35747  17885057.641    17885057.366    17885065.032
       231.000         197.000
   7408706.86749   5773998.08446  21715725.077    21715723.947    21715735.242
       216.000         163.000
  -2339826.98849  -1538146.97445  22784555.796    22784555.670    22784569.695
       207.000         139.000
 -13646939.56949 -10609880.50947  20068134.759    20068134.230    20068142.907
       236.000         193.000
   -310213.84549   -237369.10845  22365629.373    22365628.783    22365640.783
       200.000         146.000
 00  5 15 17 12 29.9920000  0  9G30G10G 4G 5G24G 7G 6G 9G16
 -12344176.09649  -9598039.91446  21004678.964    21004679.369    21004688.374
       219.000         164.000
 -11848512.53549  -9206599.53245  21546605.986    21546605.692    21546622.077
       206.000         151.000
 -17685534.27249 -13764901.12947  18963216.327    18963216.275    18963223.287
       241.000         201.000
 -31356812.30049 -24410352.73547  18479637.597    18479637.024    18479644.398
       236.000         200.000
 -32011395.86349 -24920058.43547  17877188.953    17877188.671    17877196.306
       232.000         197.000
   7439553.64849   5798034.37545  21721595.130    21721593.985    21721605.278
       217.000         161.000
  -2452069.05249  -1625608.21445  22763196.893    22763196.688    22763210.674
       209.000         142.000
 -13609124.64649 -10580414.46847  20075330.735    20075330.248    20075338.933
       236.000         194.000
   -302532.75949   -231383.91545  22367090.982    22367090.419    22367102.520
       199.000         146.000
 00  5 15 17 12 59.9920000  0  9G30G10G 4G 5G24G 7G 6G 9G16
 -12478791.84049  -9702935.21546  20979062.351    20979062.787    20979071.884
       222.000         166.000
 -11985960.91249  -9313701.91145  21520450.178    21520449.935    21520466.221
       208.000         152.000
 -17653164.91349 -13739678.32147  18969376.027    18969375.983    18969383.014
       241.000         201.000
 -31445162.53049 -24479197.07147  18462825.065    18462824.523    18462831.885
       237.000         200.000
 -32052256.46749 -24951897.87547  17869413.444    17869413.164    17869420.799
       231.000         196.000
   7470407.15749   5822075.93245  21727466.443    21727465.299    21727476.632
       216.000         162.000
  -2564306.70749  -1713066.02845  22741838.757    22741838.575    22741852.534
       213.000         145.000
 -13571025.44449 -10550726.90947  20082580.848    20082580.365    20082589.096
       236.000         193.000
   -294376.19049   -225028.19645  22368643.146    22368642.588    22368654.697
       200.000         148.000
 00  5 15 17 13 29.9920000  0  9G30G10G 4G 5G24G 7G 6G 9G16
 -12613347.91649  -9807784.06146  20953457.181    20953457.576    20953466.659
       223.000         166.000
 -12123419.63849  -9420812.34845  21494292.468    21494292.219    21494308.417
       205.000         151.000
 -17620486.36549 -13714214.57847  18975594.591    18975594.553    18975601.599
       241.000         201.000
 -31533202.47749 -24547799.62547  18446071.612    18446071.069    18446078.440
       236.000         200.000
 -32092652.79049 -24983375.53647  17861726.305    17861726.017    17861733.638
       231.000         196.000
   7501242.93949   5846103.66746  21733334.406    21733333.286    21733344.609
       216.000         163.000
  -2676564.67649  -1800539.65045  22720476.726    22720476.568    22720490.444
       212.000         147.000
 -13532669.26549 -10520839.10647  20089879.864    20089879.384    20089888.164
       236.000         193.000
   -285770.26249   -218322.33645  22370280.734    22370280.238    22370292.394
       200.000         148.000
 00  5 15 17 13 59.9920000  0  9G30G10G 4G 5G24G 7G 6G 9G16
 -12747808.43249  -9912558.45146  20927870.156    20927870.573    20927879.639
       224.000         167.000
 -12260851.78949  -9527902.06445  21468139.903    21468139.549    21468155.662
       208.000         152.000
 -17587467.47049 -13688485.63647  18981877.919    18981877.892    18981884.940
       240.000         201.000
 -31620896.47649 -24616132.61347  18429384.006    18429383.452    18429390.831
       236.000         200.000
 -32132551.62149 -25014465.54047  17854133.803    17854133.515    17854141.151
       231.000         196.000
   7532094.73049   5870143.87045  21739205.382    21739204.335    21739215.658
       219.000         162.000
  -2788809.40249  -1888002.94745  22699117.094    22699117.020    22699130.955
       210.000         147.000
 -13494025.15649 -10490726.95047  20097233.718    20097233.209    20097242.021
       235.000         193.000
   -276682.19149   -211240.77445  22372010.204    22372009.649    22372021.913
       205.000         152.000
 00  5 15 17 14 29.9920000  0  9G30G10G 4G 5G24G 7G 6G 9G16
 -12882179.03849 -10017262.77646  20902300.265    20902300.622    20902309.717
       223.000         165.000
 -12398262.19649  -9634974.85145  21441991.586    21441991.057    21442007.062
       209.000         151.000
 -17554119.04449 -13662499.92047  18988223.969    18988223.932    18988230.994
       240.000         201.000
 -31708250.43449 -24684200.63247  18412761.111    18412760.559    18412767.927
       236.000         201.000
 -32171962.05249 -25045174.97947  17846634.239    17846633.964    17846641.587
       231.000         196.000
   7562954.56049   5894190.32945  21745077.948    21745076.841    21745088.231
       215.000         161.000
  -2901049.03649  -1975462.27245  22677758.452    22677758.464    22677772.405
       212.000         148.000
 -13455103.97949 -10460398.89447  20104640.278    20104639.757    20104648.606
       235.000         193.000
   -267121.55049   -203790.98245  22373829.563    22373828.996    22373841.323
       206.000         153.000
 00  5 15 17 14 59.9920000  0  9G30G10G 4G 5G24G 7G 6G 9G16
 -13016445.91249 -10121886.24046  20876750.080    20876750.402    20876759.513
       223.000         166.000
 -12535636.17949  -9742019.24445  21415849.985    21415849.500    21415865.367
       209.000         153.000
 -17520431.52149 -13636249.97147  18994634.578    18994634.507    18994641.563
       241.000         201.000
 -31795250.53449 -24751992.92147  18396205.579    18396205.004    18396212.394
       237.000         201.000
 -32210872.87949 -25075495.11147  17839229.734    17839229.471    17839237.122
       231.000         196.000
   7593834.29749   5918252.31645  21750954.206    21750953.151    21750964.633
       214.000         160.000
  -3013271.82149  -2062908.47245  22656403.045    22656403.077    22656417.038
       210.000         149.000
 -13415896.69849 -10429847.89547  20112101.292    20112100.753    20112109.638
       235.000         193.000
   -257077.81749   -195964.75045  22375740.938    22375740.315    22375752.574
       209.000         156.000
 00  5 15 17 15 29.9920000  0  9G30G10G 4G 5G24G 7G 6G 9G16
 -13150599.73249 -10226421.62546  20851221.435    20851221.735    20851230.833
       225.000         170.000
 -12672963.44449  -9849027.23745  21389717.183    21389716.844    21389732.606
       210.000         154.000
 -17486400.67149 -13609732.49847  19001110.567    19001110.441    19001117.468
       241.000         200.000
 -31881887.81349 -24819502.49347  18379719.075    18379718.495    18379725.886
       236.000         200.000
 -32249277.76349 -25105421.00447  17831921.568    17831921.286    17831928.910
       231.000         196.000
   7624741.07449   5942335.35845  21756835.669    21756834.594    21756846.156
       214.000         160.000
  -3125470.70049  -2150336.03945  22635052.179    22635052.194    22635066.153
       211.000         150.000
 -13376399.01849 -10399070.61647  20119617.558    20119617.016    20119625.942
       235.000         193.000
   -246545.49649   -187757.78945  22377745.363    22377744.610    22377756.868
       211.000         158.000
 00  5 15 17 15 59.9920000  0  9G30G10G 4G 5G24G 7G 6G 9G16
 -13284654.74649 -10330880.03446  20825711.672    20825711.901    20825720.998
       227.000         170.000
 -12810257.08149  -9956009.02045  21363590.914    21363590.553    21363606.228
       210.000         154.000
 -17452045.25549 -13582962.11347  19007648.279    19007648.130    19007655.139
       241.000         200.000
 -31968176.59649 -24886740.50947  18363298.921    18363298.303    18363305.685
       236.000         201.000
 -32287194.00049 -25134966.13847  17824706.371    17824706.086    17824713.707
       230.000         196.000
   7655658.58849   5966426.76945  21762719.222    21762718.124    21762729.649
       214.000         160.000
  -3237662.29149  -2237757.93345  22613702.732    22613702.767    22613716.642
       211.000         150.000
 -13336630.15749 -10368082.03847  20127185.415    20127184.869    20127193.863
       235.000         192.000
   -235542.03549   -179183.72245  22379839.387    22379838.543    22379850.841
       212.000         161.000
 00  5 15 17 16 29.9920000  0  9G30G10G 4G 5G24G 7G 6G 9G16
 -13418605.18449 -10435256.94746  20800221.740    20800221.939    20800231.006
       227.000         170.000
 -12947510.05349 -10062959.09745  21337472.372    21337472.014    21337487.611
       211.000         156.000
 -17417364.37549 -13555938.11947  19014247.928    19014247.758    19014254.739
       241.000         200.000
 -32054111.05149 -24953702.41947  18346946.150    18346945.522    18346952.916
       236.000         201.000
 -32324618.96249 -25164128.45847  17817584.692    17817584.382    17817591.984
       231.000         195.000
   7686590.65549   5990529.52345  21768605.529    21768604.399    21768615.992
       215.000         160.000
  -3349843.00449  -2325171.34345  22592355.349    22592355.407    22592369.273
       209.000         150.000
 -13296589.29949 -10336881.51047  20134805.047    20134804.507    20134813.504
       235.000         193.000
   -224065.33749   -170240.88345  22382023.369    22382022.580    22382034.835
       216.000         161.000
 00  5 15 17 16 59.9920000  0  9G30G10G 4G 5G24G 7G 6G 9G16
 -13552450.26649 -10539551.77746  20774751.791    20774752.057    20774761.022
       226.000         169.000
 -13084720.85849 -10169876.34345  21311361.780    21311361.494    21311376.982
       212.000         156.000
 -17382361.82649 -13528663.47047  19020908.732    19020908.576    19020915.557
       240.000         200.000
 -32139690.53049 -25020387.72147  18330660.935    18330660.301    18330667.678
       236.000         200.000
 -32361554.71549 -25192909.57547  17810556.083    17810555.760    17810563.343
       231.000         195.000
   7717535.90449   6014642.54445  21774494.362    21774493.222    21774504.837
       214.000         159.000
  -3462014.18149  -2412577.33345  22571009.765    22571009.815    22571023.659
       209.000         148.000
 -13256280.66049 -10305472.32147  20142475.667    20142475.092    20142484.132
       236.000         193.000
   -212118.13349   -160931.42645  22384296.902    22384296.107    22384308.352
       217.000         161.000
 00  5 15 17 17 29.9920000  0  9G30G10G 4G 5G24G 7G 6G 9G16
 -13686208.15449 -10643778.65846  20749298.389    20749298.717    20749307.696
       226.000         170.000
 -13221906.51149 -10276773.97545  21285255.974    21285255.704    21285271.161
       211.000         158.000
 -17347060.77449 -13501156.22147  19027626.345    19027626.192    19027633.195
       240.000         199.000
 -32224933.51749 -25086810.81947  18314439.716    18314439.081    18314446.492
       235.000         200.000
 -32398022.74349 -25221326.23947  17803616.432    17803616.131    17803623.712
       230.000         195.000
   7748473.94149   6038749.94645  21780381.737    21780380.668    21780392.302
       213.000         158.000
  -3574196.43549  -2499991.92445  22549662.125    22549662.153    22549675.912
       210.000         149.000
 -13215727.46249 -10273872.56947  20150192.787    20150192.209    20150201.299
       235.000         192.000
   -199722.25749   -151272.34945  22386655.814    22386655.041    22386667.253
       218.000         161.000
